[[{"header":{"parameterUnit":"m.s-1","parameterCategory":1,"la1":30.6,"la2":28.766,"lo1":-90.7593,"lo2":-88.6598,"dy":0.0162,"dx":0.0183,"nx":116,"ny":114,"refTime":"2023-10-18T18:00:00:Z","depth":0,"parameterNumber":2,"parameterNumberName":"U-component_of_WINDS"},"data":[0.0,0.0,0.0,0.0,0.0,0.0,0.0,0.0,0.0,0.0,0.0,0.0,0.0,0.0,0.0,0.0,0.0,0.0,0.0,0.0,0.0,0.0,0.0,0.0,0.0,0.0,0.0,0.0,0.0,0.0,0.0,0.0,0.0,0.0,0.0,0.0,0.0,0.0,0.0,0.0,0.0,0.0,0.0,0.0,0.0,0.0,0.0,0.0,0.0,0.0,0.0,0.0,0.0,0.0,0.0,0.0,0.0,0.0,0.0,0.0,0.0,0.0,0.0,0.0,0.0,0.0,0.0,0.0,0.0,0.0,0.0,0.0,0.0,0.0,0.0,0.0,0.0,0.0,0.0,0.0,0.0,0.0,0.0,0.0,0.0,0.0,0.0,0.0,0.0,0.0,0.0,0.0,0.0,0.0,0.0,0.0,0.0,0.0,0.0,0.0,0.0,0.0,0.0,0.0,0.0,0.0,0.0,0.0,0.0,0.0,0.0,0.0,0.0,0.0,0.0,0.0,0.0,0.0,0.0,0.0,0.0,0.0,0.0,0.0,0.0,0.0,0.0,0.0,0.0,0.0,0.0,0.0,0.0,0.0,0.0,0.0,0.0,0.0,0.0,0.0,0.0,0.0,0.0,0.0,0.0,0.0,0.0,0.0,0.0,0.0,0.0,0.0,0.0,0.0,0.0,0.0,0.0,0.0,0.0,0.0,0.0,0.0,0.0,0.0,0.0,0.0,0.0,0.0,0.0,0.0,0.0,0.0,0.0,0.0,0.0,0.0,0.0,0.0,0.0,0.0,0.0,0.0,0.0,0.0,0.0,0.0,0.0,0.0,0.0,0.0,0.0,0.0,0.0,0.0,0.0,0.0,0.0,0.0,0.0,0.0,0.0,0.0,0.0,0.0,0.0,0.0,0.0,0.0,0.0,0.0,0.0,0.0,0.0,0.0,0.0,0.0,0.0,0.0,0.0,0.0,0.0,0.0,0.0,0.0,0.0,0.0,0.0,0.0,0.0,0.0,0.0,0.0,0.0,0.0,0.0,0.0,0.0,0.0,0.0,0.0,0.0,0.0,0.0,0.0,0.0,0.0,0.0,0.0,0.0,0.0,0.0,0.0,0.0,0.0,0.0,0.0,0.0,0.0,0.0,0.0,0.0,0.0,0.0,0.0,0.0,0.0,0.0,0.0,0.0,0.0,0.0,0.0,0.0,0.0,0.0,0.0,0.0,0.0,0.0,0.0,0.0,0.0,0.0,0.0,0.0,0.0,0.0,0.0,0.0,0.0,0.0,0.0,0.0,0.0,0.0,0.0,0.0,0.0,0.0,0.0,0.0,0.0,0.0,0.0,0.0,0.0,0.0,0.0,0.0,0.0,0.0,0.0,0.0,0.0,0.0,0.0,0.0,0.0,0.0,0.0,0.0,0.0,0.0,0.0,0.0,0.0,0.0,0.0,0.0,0.0,0.0,0.0,0.0,0.0,0.0,0.0,0.0,0.0,0.0,0.0,0.0,0.0,0.0,0.0,0.0,0.0,0.0,0.0,0.0,0.0,0.0,0.0,0.0,0.0,0.0,0.0,0.0,0.0,0.0,0.0,0.0,0.0,0.0,0.0,0.0,0.0,0.0,0.0,0.0,0.0,0.0,0.0,0.0,0.0,0.0,0.0,0.0,0.0,0.0,0.0,0.0,0.0,0.0,0.0,0.0,0.0,0.0,0.0,0.0,0.0,0.0,0.0,0.0,0.0,0.0,0.0,0.0,0.0,0.0,0.0,0.0,0.0,0.0,0.0,0.0,0.0,0.0,0.0,0.0,0.0,0.0,0.0,0.0,0.0,0.0,0.0,0.0,0.0,0.0,0.0,0.0,0.0,0.0,0.0,0.0,0.0,0.0,0.0,0.0,0.0,0.0,0.0,0.0,0.0,0.0,0.0,0.0,0.0,0.0,0.0,0.0,0.0,0.0,0.0,0.0,0.0,0.0,0.0,0.0,0.0,0.0,0.0,0.0,0.0,0.0,0.0,0.0,0.0,0.0,0.0,0.0,0.0,0.0,0.0,0.0,0.0,0.0,0.0,0.0,0.0,0.0,0.0,0.0,0.0,0.0,0.0,0.0,0.0,0.0,0.0,0.0,0.0,0.0,0.0,0.0,0.0,0.0,0.0,0.0,0.0,0.0,0.0,0.0,0.0,0.0,0.0,0.0,0.0,0.0,0.0,0.0,0.0,0.0,0.0,0.0,0.0,0.0,0.0,0.0,0.0,0.0,0.0,0.0,0.0,0.0,0.0,0.0,0.0,0.0,0.0,0.0,0.0,0.0,0.0,0.0,0.0,0.0,0.0,0.0,0.0,0.0,0.0,0.0,0.0,0.0,0.0,0.0,0.0,0.0,0.0,0.0,0.0,0.0,0.0,0.0,0.0,0.0,0.0,0.0,0.0,0.0,0.0,0.0,0.0,0.0,0.0,0.0,0.0,0.0,0.0,0.0,0.0,0.0,0.0,0.0,0.0,0.0,0.0,0.0,0.0,0.0,0.0,0.0,0.0,0.0,0.0,0.0,0.0,0.0,0.0,0.0,0.0,0.0,0.0,0.0,0.0,0.0,0.0,0.0,0.0,0.0,0.0,0.0,0.0,0.0,0.0,0.0,0.0,0.0,0.0,0.0,0.0,0.0,0.0,0.0,0.0,0.0,0.0,0.0,0.0,0.0,0.0,0.0,0.0,0.0,0.0,0.0,0.0,0.0,0.0,0.0,0.0,0.0,0.0,0.0,0.0,0.0,0.0,0.0,0.0,0.0,0.0,0.0,0.0,0.0,0.0,0.0,0.0,0.0,0.0,0.0,0.0,0.0,0.0,0.0,0.0,0.0,0.0,0.0,0.0,0.0,0.0,0.0,0.0,0.0,0.0,0.0,0.0,0.0,0.0,0.0,0.0,0.0,0.0,0.0,0.0,0.0,0.0,0.0,0.0,0.0,0.0,0.0,0.0,0.0,0.0,0.0,0.0,0.0,0.0,0.0,0.0,0.0,0.0,0.0,0.0,0.0,0.0,0.0,0.0,0.0,0.0,0.0,0.0,0.0,0.0,0.0,0.0,0.0,0.0,0.0,0.0,0.0,0.0,0.0,0.0,0.0,0.0,0.0,0.0,0.0,0.0,0.0,0.0,0.0,0.0,0.0,0.0,0.0,0.0,0.0,0.0,0.0,0.0,0.0,0.0,0.0,0.0,0.0,0.0,0.0,0.0,0.0,0.0,0.0,0.0,0.0,0.0,0.0,0.0,0.0,0.0,0.0,0.0,0.0,0.0,0.0,0.0,0.0,0.0,0.0,0.0,0.0,0.0,0.0,0.0,0.0,0.0,0.0,0.0,0.0,0.0,0.0,0.0,0.0,0.0,0.0,0.0,0.0,0.0,0.0,0.0,0.0,0.0,0.0,0.0,0.0,0.0,0.0,0.0,0.0,0.0,0.0,0.0,0.0,0.0,0.0,0.0,0.0,0.0,0.0,0.0,0.0,0.0,0.0,0.0,0.0,0.0,0.0,0.0,0.0,0.0,0.0,0.0,0.0,0.0,0.0,0.0,0.0,0.0,0.0,0.0,0.0,0.0,0.0,0.0,0.0,0.0,0.0,0.0,0.0,0.0,0.0,0.0,0.0,0.0,0.0,0.0,0.0,0.0,0.0,0.0,0.0,0.0,0.0,0.0,0.0,0.0,0.0,0.0,0.0,0.0,0.0,0.0,0.0,0.0,0.0,0.0,0.0,0.0,0.0,0.0,0.0,0.0,0.0,0.0,0.0,0.0,0.0,0.0,0.0,0.0,0.0,0.0,0.0,0.0,0.0,0.0,0.0,0.0,0.0,0.0,0.0,0.0,0.0,0.0,0.0,0.0,0.0,0.0,0.0,0.0,0.0,0.0,0.0,0.0,0.0,0.0,0.0,0.0,0.0,0.0,0.0,0.0,0.0,0.0,0.0,0.0,0.0,0.0,0.0,0.0,0.0,0.0,0.0,0.0,0.0,0.0,0.0,0.0,0.0,0.0,0.0,0.0,0.0,0.0,0.0,0.0,0.0,0.0,0.0,0.0,0.0,0.0,0.0,0.0,0.0,0.0,0.0,0.0,0.0,0.0,0.0,0.0,0.0,0.0,0.0,0.0,0.0,0.0,0.0,0.0,0.0,0.0,0.0,0.0,0.0,0.0,0.0,0.0,0.0,0.0,0.0,0.0,0.0,0.0,0.0,0.0,0.0,0.0,0.0,0.0,0.0,0.0,0.0,0.0,0.0,0.0,0.0,0.0,0.0,0.0,0.0,0.0,0.0,0.0,0.0,0.0,0.0,0.0,0.0,0.0,0.0,0.0,0.0,0.0,0.0,0.0,0.0,0.0,0.0,0.0,0.0,0.0,0.0,0.0,0.0,0.0,0.0,0.0,0.0,0.0,0.0,0.0,0.0,0.0,0.0,0.0,0.0,0.0,0.0,0.0,0.0,0.0,0.0,0.0,0.0,0.0,0.0,0.0,0.0,0.0,0.0,0.0,0.0,0.0,0.0,0.0,0.0,0.0,0.0,0.0,0.0,0.0,0.0,0.0,0.0,0.0,0.0,0.0,0.0,0.0,0.0,0.0,0.0,0.0,0.0,0.0,0.0,0.0,0.0,0.0,0.0,0.0,0.0,0.0,0.0,0.0,0.0,0.0,0.0,0.0,0.0,0.0,0.0,0.0,0.0,0.0,0.0,0.0,0.0,0.0,0.0,0.0,0.0,0.0,0.0,0.0,0.0,0.0,0.0,0.0,0.0,0.0,0.0,0.0,0.0,0.0,0.0,0.0,0.0,0.0,0.0,0.0,0.0,0.0,0.0,0.0,0.0,0.0,0.0,0.0,0.0,0.0,0.0,0.0,0.0,0.0,0.0,0.0,0.0,0.0,0.0,0.0,0.0,0.0,0.0,0.0,0.0,0.0,0.0,0.0,0.0,0.0,0.0,0.0,0.0,0.0,0.0,0.0,0.0,0.0,0.0,0.0,0.0,0.0,0.0,0.0,0.0,0.0,0.0,0.0,0.0,0.0,0.0,0.0,0.0,0.0,0.0,0.0,0.0,0.0,0.0,0.0,0.0,0.0,0.0,0.0,0.0,0.0,0.0,0.0,0.0,0.0,0.0,0.0,0.0,0.0,0.0,0.0,0.0,0.0,0.0,0.0,0.0,0.0,0.0,0.0,0.0,0.0,0.0,0.0,0.0,0.0,0.0,0.0,0.0,0.0,0.0,0.0,0.0,0.0,0.0,0.0,0.0,0.0,0.0,0.0,0.0,0.0,0.0,0.0,0.0,0.0,0.0,0.0,0.0,0.0,0.0,0.0,0.0,0.0,0.0,0.0,0.0,0.0,0.0,0.0,0.0,0.0,0.0,0.0,0.0,0.0,0.0,0.0,0.0,0.0,0.0,0.0,0.0,0.0,0.0,0.0,0.0,0.0,0.0,0.0,0.0,0.0,0.0,0.0,0.0,0.0,0.0,0.0,0.0,0.0,0.0,0.0,0.0,0.0,0.0,0.0,0.0,0.0,0.0,0.0,0.0,0.0,0.0,0.0,0.0,0.0,0.0,0.0,0.0,0.0,0.0,0.0,0.0,0.0,0.0,0.0,0.0,0.0,0.0,0.0,0.0,0.0,0.0,0.0,0.0,0.0,0.0,0.0,0.0,0.0,0.0,0.0,0.0,0.0,0.0,0.0,0.0,0.0,0.0,0.0,0.0,0.0,0.0,0.0,0.0,0.0,0.0,0.0,0.0,0.0,0.0,0.0,0.0,0.0,0.0,0.0,0.0,0.0,0.0,0.0,0.0,0.0,0.0,0.0,0.0,0.0,0.0,0.0,0.0,0.0,0.0,0.0,0.0,0.0,0.0,0.0,0.0,0.0,0.0,0.0,0.0,0.0,0.0,0.0,0.0,0.0,0.0,0.0,0.0,0.0,0.0,0.0,0.0,0.0,0.0,0.0,0.0,0.0,0.0,0.0,0.0,0.0,0.0,0.0,0.0,0.0,0.0,0.0,0.0,0.0,0.0,0.0,0.0,0.0,0.0,0.0,0.0,0.0,0.0,0.0,0.0,0.0,1.3387,0.0,0.0,0.0,0.0,0.0,0.0,0.0,0.0,0.0,0.0,0.0,0.0,0.0,0.0,0.0,0.0,0.0,0.0,0.0,0.0,0.0,0.0,0.0,0.0,0.0,0.0,0.0,0.0,0.0,0.0,0.0,0.0,0.0,0.0,0.0,0.0,0.0,0.0,0.0,0.0,0.0,0.0,0.0,0.0,0.0,0.0,0.0,0.0,0.0,0.0,0.0,0.0,0.0,0.0,0.0,0.0,0.0,0.0,0.0,0.0,0.0,0.0,0.0,0.0,0.0,0.0,0.0,0.0,0.0,0.0,0.0,0.0,0.0,0.0,0.0,0.0,0.0,0.0,0.0,0.0,0.0,0.0,0.0,0.0,0.0,0.0,0.0,0.0,0.0,0.0,0.0,0.0,0.0,0.0,0.0,0.0,0.0,0.0,0.0,0.0,0.0,0.0,0.0,0.0,0.0,0.0,0.0,0.0,0.0,0.0,0.0,0.0,0.0,0.0,0.0,0.0,1.3162,0.0,0.0,0.0,0.0,0.0,0.0,0.0,0.0,0.0,0.0,0.0,0.0,0.0,0.0,0.0,0.0,0.0,0.0,0.0,0.0,0.0,0.0,0.0,0.0,0.0,0.0,0.0,0.0,0.0,0.0,0.0,0.0,0.0,0.0,0.0,0.0,0.0,0.0,0.0,0.0,0.0,0.0,0.0,0.0,0.0,0.0,0.0,0.0,0.0,0.0,0.0,0.0,0.0,0.0,0.0,0.0,0.0,0.0,0.0,0.0,0.0,0.0,0.0,0.0,0.0,0.0,0.0,0.0,0.0,0.0,0.0,0.0,0.0,0.0,0.0,0.0,0.0,0.0,0.0,0.0,0.0,0.0,0.0,0.0,0.0,0.0,0.0,0.0,0.0,0.0,0.0,0.0,0.0,0.0,0.0,0.0,0.0,0.0,0.0,0.0,0.0,0.0,0.0,0.0,0.0,0.0,0.0,0.0,-0.2705,-0.2314,-0.1986,-0.3246,-0.5366,-0.787,-0.3827,0.1263,0.7126,0.0,0.0,0.0,0.0,0.0,0.0,0.0,0.0,0.0,0.0,0.0,0.0,0.0,0.0,0.0,0.0,0.0,0.0,0.0,0.0,0.0,0.0,0.0,0.0,0.0,0.0,0.0,0.0,0.0,0.0,0.0,0.0,0.0,0.0,0.0,0.0,0.0,0.0,0.0,-0.5024,-0.4217,-0.3747,-0.3613,-0.2878,0.0,0.0,0.0,0.0,0.0,0.0,0.0,0.0,0.0,0.0,0.0,0.0,0.0,0.0,0.0,0.0,0.0,0.0,0.0,0.0,0.0,0.0,0.0,0.0,0.0,0.0,0.0,0.0,0.0,0.0,0.0,0.0,0.0,0.0,0.0,0.0,0.0,0.0,0.0,0.0,0.0,0.0,0.0,-1.0632,-1.0632,0.0,0.0,0.0,0.0,0.0,0.0,0.0,0.0,0.0,0.0,0.0,0.0,0.0,-0.6795,-0.714,-1.0244,-1.1841,-1.1945,-1.5214,-1.7396,-1.8493,-1.9146,-2.0053,-2.1114,-2.0941,0.0,-0.3834,-0.3149,0.0,0.0,0.0,0.0,0.0,0.0,0.0,0.0,0.0,0.0,0.0,0.0,0.0,0.0,0.0,0.0,0.0,0.0,0.0,0.0,0.0,0.0,0.0,0.0,0.0,0.0,0.0,0.0,0.0,0.0,0.0,0.0,0.0,0.0,0.0,0.0,-0.2344,-0.3078,-0.3882,-0.3949,-0.4015,-0.4015,-0.4148,-0.3949,-0.348,-0.4015,0.0,0.0,0.0,0.0,0.0,0.0,0.0,0.0,0.0,0.0,0.0,0.0,0.0,0.0,0.0,0.0,0.0,0.0,0.0,0.0,0.0,0.0,0.0,0.0,0.0,0.0,0.0,0.0,0.0,0.0,0.0,0.0,0.0,0.0,0.0,0.0,0.0,0.0,0.0,-1.385,-1.5087,-1.4147,-1.3738,-1.2547,0.0,0.0,0.0,0.0,0.0,0.0,0.0,0.0,0.0,-1.4026,-1.38,-1.3866,-1.4326,-1.5275,-1.5811,-1.5811,-1.7557,-1.867,-1.9343,-2.1125,-2.2144,-2.2534,-2.3846,-2.1538,-1.6468,-1.0615,-0.19,0.7715,0.0,0.0,0.0,0.0,1.3748,1.4655,0.0,0.0,0.0,0.0,0.0,0.0,0.0,0.0,0.0,0.0,0.0,0.0,0.0,0.0,0.0,0.0,0.0,0.0,0.0,0.0,0.0,0.0,0.0,0.0,0.0,0.0,0.0,0.0,-0.2344,-0.2477,-0.2744,-0.3613,-0.4015,-0.4015,-0.4957,-0.5024,-0.4417,-0.509,-0.5557,0.0,0.0,0.0,0.0,0.0,0.0,0.0,0.0,0.0,0.0,0.0,0.0,0.0,0.0,0.0,0.0,0.0,0.0,0.0,0.0,0.0,0.0,0.0,0.0,0.0,0.0,0.0,0.0,0.0,0.0,0.0,0.0,0.0,0.0,0.0,0.0,0.0,0.0,-1.7147,-1.8577,-1.7702,-1.7379,-1.6407,0.0,0.0,0.0,0.0,0.0,0.0,-1.5619,-1.6358,-1.7246,-1.8143,-1.8282,-1.8821,-1.9701,-1.909,-1.867,-1.8452,-1.8809,-1.8767,-1.8441,-2.1017,-2.2041,-2.1868,-2.3801,-2.4885,-2.4625,-1.7212,-0.9404,-0.2184,-0.2685,-0.22,-0.1334,-0.2327,-0.0098,0.3041,0.0,0.0,0.0,0.0,0.0,0.0,0.0,0.0,0.0,0.0,0.0,0.0,0.0,0.0,0.0,0.0,0.0,0.0,0.0,0.0,0.0,0.0,0.0,0.0,0.0,0.0,0.0,-0.134,-0.134,-0.1809,-0.2744,-0.3613,-0.4015,-0.4015,-0.4957,-0.5362,-0.5359,-0.5362,-0.5881,-0.6588,0.0,0.0,0.0,0.0,0.0,0.0,0.0,0.0,0.0,0.0,0.0,0.0,0.0,0.0,0.0,0.0,0.0,0.0,0.0,0.0,0.0,0.0,0.0,0.0,0.0,0.0,0.0,0.0,0.0,0.0,0.0,0.0,0.0,0.0,0.0,0.0,0.0,0.0,0.0,-2.126,-2.0806,0.0,0.0,0.0,0.0,-1.6919,-1.8327,-1.956,-2.0213,-1.9111,-1.9035,-2.0291,-1.9151,-1.9079,-2.0318,-2.1604,-2.1861,-2.1037,-2.2286,-2.2115,-2.0736,-2.2903,-2.3252,-2.2317,-2.4403,-2.4994,-2.4476,-2.5129,-2.0424,-1.2832,-1.2858,-0.8326,-0.241,-0.7798,-0.7628,-0.5163,0.0,0.0,0.0,0.0,0.0,0.0,0.0,0.0,0.0,0.0,0.0,0.0,0.0,0.0,0.0,0.0,0.0,0.0,0.0,0.0,0.0,0.0,0.0,0.0,0.0,0.0,-0.0135,-0.0471,-0.0479,-0.0622,-0.0967,-0.2592,-0.3217,-0.3231,-0.4816,-0.5454,-0.5428,-0.5428,-0.5881,-0.6654,-0.633,-0.6789,0.0,0.0,0.0,0.0,0.0,0.0,0.0,0.0,0.0,0.0,0.0,0.0,0.0,0.0,0.0,0.0,0.0,0.0,0.0,0.0,0.0,0.0,0.0,0.0,0.0,0.0,0.0,0.0,0.0,0.0,0.0,0.0,0.0,0.0,0.0,0.0,0.0,-2.1697,-2.1838,0.0,0.0,-2.109,-2.1117,-2.0119,-2.0994,-2.1664,-2.1942,-2.1929,-2.2079,-2.2483,-2.239,-2.1916,-2.1002,-2.1458,-2.1126,-2.0028,-2.1856,-2.2445,-2.1938,-2.2992,-2.3252,-2.2908,-2.3544,-2.3533,-2.3086,-2.4453,-2.394,-2.217,-2.1501,-2.0665,-1.9882,-2.0404,-2.1094,-2.1601,0.0,0.0,0.0,0.0,0.0,0.0,0.0,0.0,0.0,0.0,0.0,0.0,0.0,0.0,0.0,0.0,0.0,0.0,0.0,0.0,0.0,0.0,0.0,0.0,0.0,0.0,0.0,0.0,0.0,0.0,0.0,-0.1587,-0.2506,-0.279,-0.4325,-0.5157,-0.5428,-0.5428,-0.5881,-0.6654,-0.6396,-0.6985,-0.7962,0.0,0.0,0.0,0.0,0.0,0.0,0.0,0.0,0.0,0.0,0.0,0.0,0.0,0.0,0.0,0.0,0.0,0.0,0.0,0.0,0.0,0.0,0.0,0.0,0.0,0.0,0.0,0.0,0.0,0.0,0.0,0.0,0.0,0.0,0.0,-2.2072,-2.2317,-2.2711,-2.2815,-2.2363,-2.2973,-2.3149,-2.269,-2.3291,-2.3609,-2.3385,-2.356,-2.361,-2.3564,-2.3656,-2.3286,-2.2304,-2.2304,-2.1736,-2.0546,-2.1983,-2.2352,-2.1901,-2.3029,-2.3098,-2.2376,-2.3096,-2.3042,-2.2519,-2.3346,-2.4728,-2.6333,-2.5725,-2.7025,-2.8991,-2.7268,-2.7783,-2.897,0.0,0.0,0.0,0.0,0.0,0.0,0.0,0.0,0.0,0.0,0.0,0.0,0.0,0.0,0.0,0.0,0.0,0.0,0.0,0.0,0.0,0.0,0.0,0.0,0.0,0.0,0.0,0.0,0.0,0.0,0.0,-0.0875,-0.1795,-0.2727,-0.3633,-0.454,-0.5435,-0.5428,-0.5881,-0.6588,-0.5752,-0.647,-0.7962,0.0,0.0,0.0,0.0,0.0,0.0,0.0,0.0,0.0,0.0,0.0,0.0,0.0,0.0,0.0,0.0,0.0,0.0,0.0,0.0,0.0,0.0,0.0,0.0,0.0,0.0,0.0,0.0,0.0,0.0,0.0,0.0,0.0,-2.0526,-2.066,-2.1411,-2.3377,-2.3625,-2.364,-2.3655,-2.4268,-2.4612,-2.4612,-2.5255,-2.5364,-2.4805,-2.4075,-2.363,-2.3451,-2.277,-2.2981,-2.4221,-2.4234,-2.3774,-2.3,-2.3,-2.2152,-2.0771,-2.3056,-2.289,-2.0914,-2.3144,-2.3673,-2.2923,-2.2366,-2.333,-2.5125,-2.5343,-2.647,-2.7881,-2.7429,-2.689,-2.6311,0.0,0.0,0.0,0.0,0.0,0.0,0.0,0.0,0.0,0.0,0.0,0.0,0.0,0.0,0.0,0.0,0.0,0.0,0.0,0.0,0.0,0.0,0.0,0.0,0.0,0.0,0.0,0.0,0.0,0.0,0.0,-0.1067,-0.197,-0.2878,-0.3765,-0.4672,-0.5518,-0.541,-0.5557,-0.5815,-0.6203,-0.7377,-0.8941,0.0,0.0,0.0,0.0,0.0,0.0,0.0,0.0,0.0,0.0,0.0,0.0,0.0,0.0,0.0,0.0,0.0,0.0,0.0,0.0,0.0,0.0,0.0,0.0,0.0,0.0,0.0,0.0,0.0,0.0,0.0,0.0,-2.049,-2.1299,-2.1824,-2.2672,-2.4149,-2.4343,-2.4537,-2.5001,-2.5226,-2.5345,-2.5345,-2.551,-2.5762,-2.6079,-2.5914,-2.5509,-2.4846,-2.4637,-2.4165,-2.3424,-2.2859,-2.2408,-2.2212,-2.2712,-2.276,-2.2335,-2.3034,-2.3275,-2.3116,-2.2118,-2.1662,-2.1681,-2.1042,-2.1697,-2.3253,-2.3851,-2.5188,-2.6649,-2.6167,-2.6982,-2.8118,0.0,0.0,0.0,0.0,0.0,0.0,0.0,0.0,0.0,0.0,0.0,0.0,0.0,0.0,0.0,0.0,0.0,0.0,0.0,0.0,0.0,0.0,0.0,0.0,0.0,0.0,0.0,0.0,0.0,0.0,0.0,-0.0623,-0.1624,-0.2941,-0.3417,-0.4411,-0.5586,-0.5494,-0.542,-0.5428,-0.5943,-0.6985,-0.8221,-0.8221,-0.9,-1.0047,-1.0047,-1.0301,-1.0624,-1.0624,0.0,0.0,0.0,0.0,0.0,0.0,0.0,0.0,0.0,0.0,0.0,0.0,0.0,0.0,0.0,0.0,0.0,0.0,0.0,0.0,0.0,0.0,0.0,0.0,-2.0836,-2.1259,-2.2333,-2.2853,-2.344,-2.4447,-2.4832,-2.5196,-2.557,-2.5854,-2.6019,-2.6019,-2.6273,-2.6602,-2.6976,-2.6742,-2.6211,-2.5439,-2.5398,-2.4667,-2.3138,-2.298,-2.2738,-2.2384,-2.2834,-2.287,-2.2555,-2.3217,-2.3238,0.0,-2.229,-2.1913,-2.1508,-2.0882,-2.1193,0.0,0.0,0.0,0.0,0.0,-2.6392,-2.7513,0.0,0.0,0.0,0.0,0.0,0.0,0.0,0.0,0.0,0.0,0.0,0.0,0.0,0.0,0.0,0.0,0.0,0.0,0.0,0.0,0.0,0.0,0.0,0.0,0.0,0.0,0.0,0.0,0.0,0.0,0.0,0.0,-0.1007,-0.2728,-0.2871,-0.3825,-0.5494,-0.5534,-0.5511,-0.5452,-0.5435,-0.5947,-0.6719,-0.6719,-0.7697,-0.9139,-0.9274,-0.9786,-1.0498,-1.0561,0.0,0.0,0.0,0.0,0.0,0.0,0.0,0.0,0.0,0.0,0.0,0.0,0.0,0.0,0.0,0.0,0.0,0.0,0.0,0.0,0.0,0.0,0.0,0.0,-2.1681,-2.2103,-2.3377,-2.3639,-2.3923,-2.4646,-2.5309,-2.5749,-2.5824,-2.6363,-2.6692,-2.6692,-2.7245,-2.7625,-2.7625,0.0,0.0,0.0,0.0,-2.4667,-2.3138,-2.3636,-2.3577,-2.2944,-2.2884,-2.2433,-2.1815,-2.3327,-2.287,-2.0951,-2.2877,-2.3098,-2.1964,-2.1149,-2.0963,-2.1131,-2.1288,-2.2462,-2.4143,-2.4644,-2.4995,-2.5423,0.0,0.0,0.0,0.0,0.0,0.0,0.0,0.0,0.0,0.0,0.0,0.0,0.0,0.0,0.0,0.0,0.0,0.0,0.0,0.0,0.0,0.0,0.0,0.0,0.0,0.0,0.0,0.0,0.0,0.0,0.0,0.0,-0.0626,-0.1865,-0.2589,-0.3599,-0.4738,-0.5332,-0.5572,-0.5535,-0.541,-0.5947,-0.6719,-0.6719,-0.7372,-0.8355,-0.9075,-0.9402,-0.9658,-1.0364,-1.0681,-1.1052,-1.2328,0.0,0.0,0.0,0.0,0.0,0.0,0.0,0.0,0.0,0.0,0.0,0.0,0.0,0.0,0.0,0.0,0.0,0.0,0.0,0.0,-2.2501,-2.2811,-2.2871,-2.3153,-2.3778,-2.4641,-2.6032,-2.6344,-2.6617,-2.7141,-2.7355,-2.738,-2.738,-2.755,-2.7625,-2.7625,-2.7458,0.0,-2.5453,-2.5398,-2.4667,-2.3138,-2.1904,-2.1604,-2.2125,0.0,0.0,-2.091,-2.1916,-2.2445,-2.2518,-2.167,-2.1416,-2.1483,-1.9446,-1.8486,-1.8431,-1.9484,-2.085,-2.2024,-2.1049,-2.1999,-2.3929,0.0,0.0,0.0,0.0,0.0,0.0,0.0,0.0,0.0,0.0,0.0,0.0,0.0,0.0,0.0,0.0,0.0,0.0,0.0,0.0,0.0,0.0,0.0,0.0,0.0,0.0,0.0,0.0,0.0,0.0,0.0,0.0,-0.0549,-0.1645,-0.2549,-0.3581,-0.4579,-0.5353,-0.5654,-0.5576,-0.5423,-0.5686,-0.6075,-0.6075,-0.6593,-0.7437,-0.835,-0.8947,-0.9402,-1.0301,-1.0624,-1.0807,-1.2027,-1.2389,-1.2637,0.0,0.0,0.0,0.0,0.0,0.0,0.0,0.0,0.0,0.0,0.0,0.0,0.0,0.0,-1.9683,0.0,0.0,-2.1678,-2.2884,-2.3078,-2.3245,-2.3649,-2.4394,-2.5121,-2.5893,-2.6345,-2.6849,-2.753,-2.7625,-2.7625,-2.7625,-2.7625,-2.7458,-2.7086,-2.7034,-2.6549,-2.5453,-2.5398,-2.4838,-2.3708,-2.2882,-2.2274,-2.1877,-2.1428,-2.1037,-2.059,-2.1037,-2.1467,-2.1794,-2.1346,-2.1379,-2.1581,-1.9552,-1.843,-1.8009,-1.7334,-1.8282,-1.9937,-1.9875,-2.0411,-2.1332,0.0,0.0,0.0,0.0,0.0,0.0,0.0,0.0,0.0,0.0,0.0,0.0,0.0,0.0,0.0,0.0,0.0,0.0,0.0,0.0,0.0,0.0,0.0,0.0,0.0,0.0,0.0,0.0,0.0,0.0,0.0,0.0,-0.0549,-0.1645,-0.2657,-0.3629,-0.4616,-0.5434,-0.5735,-0.5613,-0.5433,-0.5428,-0.5428,-0.5428,-0.5815,-0.6593,-0.7442,-0.8291,-0.9204,-1.004,-1.0428,-1.0744,-1.1531,-1.2189,-1.2749,-1.3474,-1.4418,0.0,0.0,0.0,0.0,0.0,0.0,0.0,0.0,0.0,-1.9562,-1.9562,-2.0139,-2.0846,-2.1753,-2.1877,-2.2125,-2.2944,-2.3078,-2.3305,-2.4002,-2.4724,-2.5231,-2.5398,-2.6176,-2.693,-2.756,-2.7625,-2.7625,-2.7625,-2.7694,-2.755,-2.691,-2.6866,-2.6475,-2.5633,-2.5409,-2.4902,-2.406,-2.393,-2.3267,-2.2137,-2.1815,-2.1302,-2.059,-2.059,-2.059,-2.0643,-2.1187,-2.138,-2.11,-1.9604,-1.8638,-1.7931,-1.5877,-1.6078,-1.7611,-1.8585,-1.8834,-1.8723,0.0,0.0,0.0,0.0,0.0,0.0,0.0,0.0,0.0,0.0,0.0,0.0,0.0,0.0,0.0,0.0,0.0,0.0,0.0,0.0,0.0,0.0,0.0,0.0,0.0,0.0,0.0,0.0,0.0,0.0,0.0,0.0,-0.0549,-0.1645,-0.2657,-0.3665,-0.4732,-0.5478,-0.5793,-0.5752,-0.5474,-0.5428,-0.5428,-0.5428,-0.5491,-0.5686,-0.6527,-0.7437,-0.8285,-0.9139,-0.9983,-1.0744,-1.1531,-1.1538,-1.1579,-1.3459,0.0,-1.484,-1.5076,-1.5834,-1.6853,-1.7794,-1.8596,-1.9177,0.0,0.0,-2.0462,-2.0462,-2.0526,-2.0846,-2.1753,-2.1877,-2.2125,-2.2944,-2.3078,-2.3138,-2.3185,-2.3943,-2.4681,-2.5342,-2.6654,-2.7524,-2.7575,-2.7625,-2.7625,-2.7625,-2.8143,-2.8435,-2.8383,-2.8225,-2.757,-2.6341,-2.5517,-2.451,-2.3258,-2.2494,-2.2433,-2.2944,-2.1479,-2.0719,-2.059,-2.059,-2.059,-2.061,-2.0569,-1.9771,-1.8373,-1.7728,-1.7012,-1.6367,-1.6475,-1.5679,-1.4556,-1.4599,-1.5855,-1.7184,0.0,0.0,0.0,0.0,0.0,0.0,0.0,0.0,0.0,0.0,0.0,0.0,0.0,0.0,0.0,0.0,0.0,0.0,0.0,0.0,0.0,0.0,0.0,0.0,0.0,0.0,0.0,0.0,0.0,0.0,0.0,0.0,-0.0549,-0.1645,-0.2657,-0.3641,-0.4652,-0.5447,-0.5752,-0.5661,-0.5447,-0.5428,-0.5428,-0.5428,-0.5428,-0.5557,-0.6985,-0.7697,0.0,0.0,-1.0301,-1.0744,-1.1531,-1.1743,-1.2007,-1.3647,-1.4338,0.0,-1.5756,-1.628,0.0,0.0,-1.8269,-1.8519,-1.8519,-1.9243,-1.9814,-1.9814,-2.0655,-2.1491,-2.1815,-2.2249,-2.2689,0.0,-2.3078,-2.3078,-2.3078,-2.3767,-2.4567,-2.5287,-2.6322,-2.7137,-2.7575,-2.7625,-2.7625,-2.7625,-2.7727,-2.765,-2.7226,-2.7023,-2.6489,-2.5684,-2.4862,-2.424,-2.378,-2.2992,-2.2506,-2.2384,-2.1678,-2.1101,-2.059,-2.0074,-1.9562,-1.909,-1.9585,-1.9195,-1.8249,-1.751,-1.7163,-1.695,-1.5835,-1.4639,-1.3596,-1.4639,-1.5005,-1.4763,0.0,0.0,0.0,0.0,0.0,0.0,0.0,0.0,0.0,0.0,0.0,0.0,0.0,0.0,0.0,0.0,0.0,0.0,0.0,0.0,0.0,0.0,0.0,0.0,0.0,0.0,0.0,0.0,0.0,0.0,0.0,0.0,-0.0692,-0.1996,-0.2682,-0.3714,-0.4907,-0.5512,-0.5684,-0.5576,-0.5423,-0.5428,-0.5428,-0.5428,-0.5428,-0.5557,-0.6859,-0.7572,0.0,0.0,-1.0219,-1.0803,-1.1417,-1.1811,-1.238,-1.3557,-1.4283,-1.4963,-1.6278,0.0,0.0,-1.7794,-1.8202,-1.8327,-1.8327,-1.9044,-1.9748,-1.9944,-2.1037,-2.1939,-2.2187,-2.2689,0.0,-2.3078,-2.3078,-2.3078,-2.3078,-2.3767,-2.4509,-2.5007,-2.5728,-2.639,-2.6916,-2.7188,-2.7188,-2.7019,-2.7161,-2.7046,-2.6486,-2.6417,-2.6064,-2.5414,-2.463,-2.4113,-2.3956,-2.3365,-2.2702,-2.1877,-2.1877,-2.1302,-2.0204,-1.9562,-1.8977,-1.8395,-1.8909,-1.8736,-1.8114,-1.7256,-1.6996,-1.7046,-1.5053,-1.3669,-1.2938,-1.4063,-1.3669,-1.2372,0.0,0.0,0.0,0.0,0.0,0.0,0.0,0.0,0.0,0.0,0.0,0.0,0.0,0.0,0.0,0.0,0.0,0.0,0.0,0.0,0.0,0.0,0.0,0.0,0.0,0.0,0.0,0.0,0.0,0.0,0.0,0.0,-0.1021,-0.2838,-0.2911,-0.3996,-0.5728,-0.5657,-0.5593,-0.5576,-0.5423,-0.5428,-0.5428,-0.5428,-0.5428,-0.5428,-0.5491,0.0,0.0,0.0,-0.9355,-1.0982,-1.1048,-1.1444,0.0,-1.3035,-1.4167,0.0,0.0,0.0,-1.6853,-1.7794,-1.8664,-1.9243,-1.9243,-1.9944,-2.0782,-2.1628,-2.1877,-2.2125,-2.2944,-2.3065,-2.3078,-2.3078,-2.3078,-2.3078,-2.3078,-2.3767,-2.4292,-2.435,-2.4951,-2.5453,0.0,-2.6122,-2.6229,-2.5508,-2.656,-2.7166,-2.7166,-2.7498,-2.7155,-2.6083,-2.5218,-2.4255,-2.315,-2.3138,-2.2702,-2.1877,-2.1877,-2.0974,-1.9365,-1.9299,-1.9299,-1.9212,-1.8816,-1.8189,-1.7383,-1.6315,-1.5954,-1.5771,-1.4206,-1.3057,-1.2131,-1.123,-1.0855,-1.0176,0.0,0.0,0.0,0.0,0.0,0.0,0.0,0.0,0.0,0.0,0.0,0.0,0.0,0.0,0.0,0.0,0.0,0.0,0.0,0.0,0.0,0.0,0.0,0.0,0.0,0.0,0.0,0.0,0.0,0.0,0.0,-0.0582,-0.1599,-0.2904,-0.3485,-0.4456,-0.5657,-0.561,-0.5532,-0.5433,-0.5449,-0.5428,-0.5428,-0.5428,-0.5428,-0.5428,0.0,0.0,0.0,-0.8484,-0.9438,-1.0255,-1.0791,-1.1396,-1.2118,-1.3236,-1.3871,-1.4593,0.0,0.0,-1.6853,-1.7794,-1.8202,-1.8462,-1.8462,-1.8654,-1.911,-2.0009,-2.0655,-2.1302,-2.2125,-2.2763,-2.3078,-2.3078,-2.3078,-2.3078,-2.3078,-2.3305,-2.3708,-2.4234,-2.4509,0.0,0.0,0.0,0.0,-2.5907,-2.6194,-2.6511,-2.6836,-2.6868,-2.6394,-2.5269,-2.4936,-2.428,-2.3078,-2.3078,-2.2944,-2.2702,-2.2137,-2.0974,-1.9299,-1.9299,-1.8613,-1.7512,-1.8014,-1.7687,-1.6797,-1.5817,-1.5809,-1.6085,-1.3618,-1.2058,-1.1015,-0.925,-0.7836,-0.6503,0.0,0.0,0.0,0.0,0.0,0.0,0.0,0.0,0.0,0.0,0.0,0.0,0.0,0.0,0.0,0.0,0.0,0.0,0.0,0.0,0.0,0.0,0.0,0.0,0.0,0.0,0.0,0.0,0.0,-0.0142,-0.0495,-0.106,-0.2047,-0.3317,-0.3881,-0.4682,-0.5508,-0.5508,-0.545,-0.5428,-0.5428,-0.5428,-0.5428,-0.5428,-0.5428,0.0,0.0,0.0,0.0,-0.8355,-0.93,-0.9994,-1.0875,-1.155,-1.2274,-1.3397,-1.3673,-1.4099,-1.607,-1.6636,-1.6853,-1.7794,-1.8008,-1.8008,-1.8008,-1.8008,-1.8337,-1.9497,-1.9944,-2.0526,-2.169,-2.2322,-2.2689,-2.2689,-2.2884,-2.3078,-2.3078,-2.3078,-2.3305,-2.3826,-2.3884,0.0,0.0,0.0,0.0,-2.5408,-2.5494,-2.5754,-2.6311,-2.6193,-2.5737,-2.4845,-2.4632,-2.4079,-2.3078,-2.2823,-2.2506,-2.2187,-2.1353,-2.0398,-1.9299,-1.8977,-1.823,-1.7139,-1.7354,-1.7139,-1.6498,-1.5234,-1.5013,-1.528,-1.2298,-1.0754,-0.9916,-0.7462,-0.5499,-0.4059,0.0,0.0,0.0,0.0,0.0,0.0,0.0,0.0,0.0,0.0,0.0,0.0,0.0,0.0,0.0,0.0,0.0,0.0,0.0,0.0,0.0,-0.0067,0.0,0.0,0.0,0.0,0.0,0.0,-0.0067,-0.0471,-0.1273,-0.1407,-0.2342,-0.4015,-0.4082,-0.4553,-0.5428,-0.5428,-0.5428,-0.5428,-0.5428,-0.5428,-0.5428,-0.5428,0.0,0.0,0.0,0.0,0.0,0.0,0.0,0.0,0.0,-1.185,-1.2519,-1.3528,-1.3818,-1.4171,-1.614,-1.6636,-1.6922,-1.7794,-1.8008,-1.8008,-1.8008,-1.8008,-1.8462,-2.0204,-1.9879,-1.9814,0.0,0.0,-2.1877,-2.1939,-2.2628,-2.3078,-2.3078,-2.3078,-2.3078,0.0,0.0,0.0,0.0,0.0,0.0,-2.4079,0.0,-2.5006,-2.5494,-2.5519,-2.5269,-2.4666,-2.4129,-2.3592,-2.2957,-2.2187,-2.1428,-2.0526,-1.9759,-1.9299,-1.9233,-1.8395,-1.8008,-1.7862,-1.6991,-1.6558,-1.6349,-1.445,-1.3673,-1.3375,-1.0409,-0.9221,-0.8761,-0.5764,-0.3904,-0.281,0.0,0.0,0.0,0.0,0.0,0.0,0.0,0.0,0.0,0.0,0.0,0.0,0.0,0.0,0.0,0.0,0.0,0.0,0.0,0.0,0.0,0.0,0.0,0.0,0.0,0.0,0.0,0.0,-0.0672,-0.1073,-0.134,-0.2678,-0.3547,-0.4015,-0.4755,-0.516,-0.5428,-0.5428,-0.5428,-0.5428,0.0,-0.5428,-0.5428,0.0,0.0,0.0,0.0,0.0,0.0,0.0,0.0,0.0,0.0,-1.2753,-1.2799,-1.5147,-1.5367,-1.5234,-1.7148,-1.7647,-1.7716,-1.794,-1.8008,-1.8008,-1.8008,-1.8008,-1.8337,-1.9431,-1.9431,-1.9814,0.0,0.0,0.0,-2.2702,-2.2944,0.0,-2.3078,-2.3078,0.0,0.0,0.0,-2.3778,-2.3778,-2.428,0.0,0.0,-2.5322,-2.517,-2.4662,-2.4662,-2.3903,-2.2352,-2.2124,-2.1811,-2.1227,-2.1037,-2.0462,-1.9628,-2.0074,-1.9562,-1.8337,-1.8787,-1.823,-1.6922,-1.6706,-1.621,-1.5446,-1.4243,-1.3288,-1.2384,-1.0185,-0.8367,-0.667,-0.4363,-0.2339,-0.0623,0.0,0.0,0.0,0.0,0.0,0.0,0.0,0.0,0.0,0.0,0.0,0.0,0.0,0.0,0.0,0.0,0.0,0.0,0.0,0.0,0.0,0.0,0.0,0.0,0.0,0.0,0.0,0.0,0.0,0.0,0.0,-0.3547,-0.4215,-0.4619,-0.516,-0.5428,-0.5428,-0.5428,0.0,0.0,0.0,0.0,0.0,0.0,0.0,0.0,0.0,0.0,0.0,0.0,0.0,-1.1661,-1.3179,-1.3025,-1.2806,-1.5296,0.0,-1.495,-1.6862,-1.7354,-1.7501,-1.7862,-1.8008,-1.8008,-1.8008,-1.8008,-1.8269,-1.911,-1.8977,0.0,0.0,0.0,0.0,0.0,0.0,0.0,-2.3078,-2.3078,-2.3226,0.0,-2.3803,0.0,-2.4343,-2.4845,-2.5087,0.0,-2.5386,-2.5386,-2.4878,-2.4242,-2.3349,-2.2012,-2.1379,-2.074,-2.002,-2.0398,-1.9944,-1.8721,-1.9191,-1.8936,-1.8008,-1.8094,-1.759,-1.6567,0.0,-1.5209,-1.3845,-1.2844,-1.181,-1.0765,-0.921,-0.7604,-0.5976,-0.3895,-0.1793,0.0234,0.0,0.0,0.0,0.0,0.0,0.0,0.0,0.0,0.0,0.0,0.0,0.0,0.0,0.0,0.0,0.0,0.0,0.0,0.0,0.0,0.0,0.0,0.0,0.0,0.0,0.0,0.0,0.0,0.0,0.0,0.0,0.0,0.0,0.0,0.0,0.0,0.0,0.0,0.0,0.0,0.0,0.0,0.0,0.0,0.0,0.0,0.0,0.0,0.0,0.0,-1.1491,-1.1868,-1.325,-1.3171,-1.2806,-1.4665,-1.4522,-1.4099,-1.593,-1.6419,-1.6636,-1.7432,-1.7725,-1.7794,-1.7794,-1.794,-1.8202,-1.8977,0.0,0.0,-1.911,0.0,-2.0526,-2.0719,0.0,-2.3005,-2.3065,-2.3078,-2.3265,-2.3828,-2.4017,-2.423,-2.4564,-2.5149,-2.5148,-2.4188,-2.4864,-2.5222,-2.5006,-2.3807,-2.2831,-2.2104,-2.0879,-1.9879,-1.91,-1.9879,-1.9497,-1.8008,-1.7842,-1.7775,-1.7794,-1.6853,-1.6419,-1.6349,0.0,0.0,-1.2151,-1.1218,-1.0115,-0.8993,-0.8003,-0.6839,-0.5511,-0.3428,-0.1402,0.0701,0.0,0.0,0.0,0.0,0.0,0.0,0.0,0.0,0.0,0.0,0.0,0.0,0.0,0.0,0.0,0.0,0.0,0.0,0.0,0.0,0.0,0.0,0.0,0.0,0.0,0.0,0.0,0.0,0.0,0.0,0.0,0.0,0.0,0.0,0.0,0.0,0.0,0.0,0.0,0.0,0.0,0.0,0.0,0.0,0.0,0.0,0.0,0.0,0.0,0.0,-1.1969,-1.275,-1.3465,-1.36,-1.3673,-1.4879,-1.4522,-1.3954,-1.5163,-1.5446,-1.5517,-1.5658,-1.6289,-1.6853,-1.6811,-1.7451,0.0,0.0,0.0,-1.8269,-1.911,-1.9431,0.0,-2.1428,0.0,0.0,0.0,0.0,-2.3115,0.0,0.0,0.0,0.0,0.0,0.0,0.0,0.0,-2.3176,-2.175,-2.142,-2.0504,-1.8863,-1.8569,-1.8405,-1.8202,-1.8405,-1.8269,-1.8008,-1.7198,-1.6835,-1.6784,-1.5869,-1.5446,-1.5376,-1.4378,0.0,-1.2151,-1.1218,-0.9739,-0.7931,-0.6908,-0.5286,-0.3352,-0.1324,0.0779,0.2731,0.0,0.0,0.0,0.0,0.0,0.0,0.0,0.0,0.0,0.0,0.0,0.0,0.0,0.0,0.0,0.0,0.0,0.0,0.0,0.0,0.0,0.0,0.0,0.0,0.0,0.0,0.0,0.0,0.0,0.0,0.0,0.0,0.0,0.0,0.0,0.0,0.0,0.0,0.0,0.0,0.0,0.0,0.0,0.0,0.0,0.0,0.0,0.0,0.0,0.0,-1.197,-1.3097,-1.4175,-1.4099,-1.389,-1.4879,-1.4163,-1.3164,-1.4171,-1.445,-1.453,-1.5092,-1.5939,-1.6498,-1.5948,0.0,0.0,0.0,0.0,-1.8144,-1.8529,0.0,0.0,0.0,0.0,0.0,0.0,0.0,0.0,0.0,0.0,0.0,0.0,0.0,0.0,0.0,0.0,-2.2103,-2.1468,-2.0557,-1.9431,-1.8018,-1.7501,-1.7285,-1.7285,-1.7285,-1.7001,-1.6515,-1.6079,-1.586,-1.586,-1.4879,-1.4148,-1.3613,-1.3121,0.0,-0.9863,-0.9432,-0.838,-0.6942,-0.5841,-0.4124,-0.2103,-0.0545,0.1636,0.3982,0.0,0.0,0.0,0.0,0.0,0.0,0.0,0.0,0.0,0.0,0.0,0.0,0.0,0.0,0.0,0.0,0.0,0.0,0.0,0.0,0.0,0.0,0.0,0.0,0.0,0.0,0.0,0.0,0.0,0.0,0.0,0.0,0.0,0.0,0.0,0.0,0.0,0.0,0.0,0.0,0.0,0.0,0.0,0.0,0.0,0.0,0.0,0.0,0.0,0.0,-1.19,-1.3164,-1.4449,-1.4314,-1.381,-1.4378,-1.352,-1.2445,-1.3164,-1.3382,-1.36,-1.4378,-1.5296,-1.579,-1.5021,-1.6158,0.0,0.0,-1.7217,-1.7794,-1.794,0.0,0.0,0.0,0.0,0.0,0.0,0.0,0.0,0.0,0.0,0.0,0.0,0.0,0.0,0.0,0.0,0.0,-2.1214,-1.9807,-1.8721,-1.8008,-1.707,-1.6636,-1.6636,-1.6419,-1.5939,-1.5234,-1.495,-1.4879,-1.4879,-1.3882,-1.2851,-1.1864,-1.1864,0.0,0.0,-0.7783,-0.7096,-0.5864,-0.4525,-0.288,-0.1089,0.0467,0.2571,0.4766,0.0,0.0,0.0,0.0,0.0,0.0,0.0,0.0,0.0,0.0,0.0,0.0,0.0,0.0,0.0,0.0,0.0,0.0,0.0,0.0,0.0,0.0,0.0,0.0,0.0,0.0,0.0,0.0,0.0,0.0,0.0,0.0,0.0,0.0,0.0,0.0,0.0,0.0,0.0,0.0,0.0,0.0,0.0,0.0,0.0,0.0,0.0,0.0,0.0,0.0,0.0,-1.3029,-1.3607,-1.3745,-1.3528,-1.2806,0.0,0.0,-1.2445,-1.2445,-1.2445,-1.2519,-1.3237,-1.3954,-1.389,0.0,0.0,-1.6428,-1.6636,-1.6991,-1.7862,-1.8076,0.0,0.0,0.0,0.0,0.0,0.0,0.0,0.0,0.0,0.0,0.0,0.0,0.0,0.0,0.0,0.0,-1.8893,-1.839,-1.8076,-1.8008,-1.707,-1.6636,-1.6636,-1.572,-1.5305,-1.5163,-1.4243,-1.3818,-1.3818,-1.2879,-1.1916,-1.0926,-1.0926,0.0,0.0,-0.7783,-0.6619,-0.4686,-0.2646,-0.1167,0.0234,0.3195,0.445,0.4844,0.0,0.0,0.0,0.0,0.0,0.0,0.0,0.0,0.0,0.0,0.0,0.0,0.0,0.0,0.0,0.0,0.0,0.0,0.0,0.0,0.0,0.0,0.0,0.0,0.0,0.0,0.0,-0.6203,-0.6203,0.0,0.0,0.0,0.0,0.0,0.0,0.0,0.0,0.0,0.0,0.0,0.0,0.0,0.0,0.0,0.0,0.0,0.0,0.0,0.0,0.0,0.0,0.0,-1.2529,-1.2732,0.0,0.0,-1.2732,-1.2305,-1.2305,-1.2305,-1.2305,-1.2305,-1.3025,-1.3528,-1.3025,0.0,0.0,-1.5649,-1.6219,-1.6922,-1.7862,-1.8008,-1.8144,0.0,0.0,0.0,0.0,0.0,0.0,0.0,0.0,0.0,0.0,0.0,0.0,0.0,0.0,0.0,-1.739,-1.7222,-1.7432,-1.8008,-1.5939,-1.5155,-1.572,-1.4807,-1.4019,-1.3448,-1.36,-1.3382,-1.2806,-1.1835,-1.087,-0.9895,-0.9286,0.0,0.0,-0.6237,-0.5461,-0.445,-0.1712,0.0,0.1245,0.3742,0.5079,0.5783,0.0,0.0,0.0,0.0,0.0,0.0,0.0,0.0,0.0,0.0,0.0,0.0,0.0,0.0,0.0,0.0,0.0,0.0,0.0,0.0,0.0,0.0,0.0,0.0,0.0,0.0,0.0,-0.7111,-0.7111,-0.7372,0.0,0.0,-0.8027,-0.8027,0.0,0.0,0.0,0.0,0.0,0.0,0.0,0.0,0.0,0.0,0.0,0.0,0.0,0.0,0.0,0.0,0.0,0.0,0.0,0.0,0.0,0.0,-1.2806,-1.2305,-1.2305,-1.2305,-1.2305,-1.2305,-1.2806,-1.3091,0.0,0.0,-1.445,-1.4665,-1.5508,-1.6498,-1.7432,-1.7794,-1.8008,-1.8008,0.0,-1.791,0.0,0.0,0.0,0.0,0.0,0.0,0.0,0.0,0.0,0.0,0.0,0.0,0.0,-1.593,-1.6149,-1.7157,-1.4879,-1.4027,-1.4736,-1.381,-1.2799,-1.1842,-1.2492,-1.2345,-1.1397,-1.0714,-0.9814,-0.8846,0.0,0.0,0.0,-0.5002,-0.4137,-0.3039,-0.0545,0.1322,0.2724,0.4525,0.586,0.6872,0.0,0.0,0.0,0.0,0.0,0.0,0.0,0.0,0.0,0.0,0.0,0.0,0.0,0.0,0.0,0.0,0.0,0.0,0.0,0.0,0.0,0.0,0.0,0.0,0.0,0.0,0.0,-0.7962,-0.7962,-0.7962,-0.8027,-0.8027,-0.8027,-0.8027,0.0,0.0,0.0,0.0,0.0,0.0,0.0,0.0,0.0,0.0,0.0,0.0,0.0,0.0,0.0,0.0,0.0,0.0,0.0,-1.2298,-1.2305,0.0,-1.2305,-1.2305,-1.2305,-1.2305,-1.2305,-1.2305,-1.2305,-1.2298,0.0,0.0,-1.2586,-1.3528,-1.4522,-1.5517,-1.6428,-1.7354,-1.8008,-1.8008,-1.7207,0.0,0.0,0.0,0.0,0.0,0.0,0.0,0.0,0.0,0.0,0.0,0.0,0.0,0.0,-1.4243,-1.4171,-1.5234,-1.4243,-1.3745,-1.3745,-1.2806,-1.1842,-1.0789,-1.0858,-1.0265,-0.9296,-0.9296,-0.8765,0.0,0.0,0.0,0.0,-0.4688,-0.2884,0.0078,0.1166,0.288,0.4766,0.5867,0.6945,0.7783,0.0,0.0,0.0,0.0,0.0,0.0,0.0,0.0,0.0,0.0,0.0,0.0,0.0,0.0,0.0,0.0,0.0,0.0,0.0,0.0,0.0,0.0,0.0,0.0,0.0,0.0,-0.8285,-0.8877,-0.9424,-0.9742,-0.9773,-1.0878,-1.0815,-0.9843,-1.0647,0.0,0.0,0.0,0.0,0.0,0.0,0.0,0.0,0.0,0.0,0.0,0.0,0.0,0.0,0.0,0.0,0.0,0.0,0.0,0.0,-1.2305,-1.2305,0.0,-1.2305,-1.2305,-1.2305,-1.2305,-1.2305,-1.2305,-1.2305,0.0,-1.2592,-1.3528,-1.3954,-1.4458,-1.5438,-1.5869,-1.6088,-1.6088,-1.5869,0.0,0.0,0.0,0.0,0.0,0.0,0.0,0.0,0.0,0.0,0.0,0.0,0.0,0.0,-1.3237,-1.352,-1.5163,-1.3593,-1.3025,-1.3673,-1.2124,-1.1087,-1.0783,-1.0115,-0.9599,-0.9221,-0.7825,0.0,0.0,0.0,0.0,0.0,-0.2414,-0.0934,0.0234,0.2727,0.4135,0.4919,0.6703,0.7553,0.8008,0.0,0.0,0.0,0.0,0.0,0.0,0.0,0.0,0.0,0.0,0.0,0.0,0.0,0.0,0.0,0.0,0.0,0.0,0.0,0.0,0.0,0.0,0.0,0.0,0.0,-0.9857,-1.0179,-1.0703,-1.119,-1.1447,-1.1538,-1.252,-1.2458,-1.1538,-1.202,0.0,0.0,0.0,0.0,0.0,0.0,0.0,-1.0624,0.0,0.0,0.0,0.0,0.0,0.0,0.0,0.0,0.0,0.0,0.0,0.0,0.0,-1.1694,-1.1848,0.0,-1.1996,-1.1848,-1.2224,-1.2305,0.0,0.0,0.0,-1.2445,-1.3025,-1.3455,-1.3882,-1.4522,-1.495,-1.5234,-1.5234,-1.4879,0.0,0.0,0.0,0.0,0.0,0.0,0.0,0.0,0.0,0.0,0.0,0.0,0.0,0.0,-1.2057,-1.2124,-1.2961,-1.2572,-1.2365,-1.2631,-1.1378,-1.0409,-0.9658,-0.9064,-0.8304,-0.7528,-0.6217,0.0,0.0,0.0,0.0,0.0,-0.1013,0.0467,0.1402,0.3744,0.5151,0.6002,0.7318,0.8309,0.9135,0.0,0.0,0.0,0.0,0.0,0.0,0.0,0.0,0.0,0.0,0.0,0.0,0.0,0.0,0.0,0.0,0.0,0.0,0.0,0.0,0.0,0.0,0.0,0.0,0.0,-1.3009,-1.3009,-1.3009,-1.307,-1.307,-1.3009,-1.313,-1.313,-1.3009,-1.307,-1.307,-1.2948,-1.2205,-1.1469,-1.0744,-1.0681,-1.0688,0.0,0.0,0.0,0.0,0.0,0.0,0.0,0.0,0.0,0.0,0.0,0.0,0.0,0.0,0.0,0.0,0.0,0.0,0.0,0.0,0.0,0.0,0.0,0.0,0.0,0.0,-1.3025,-1.36,-1.36,-1.4378,-1.5021,-1.5021,-1.4243,0.0,0.0,0.0,0.0,0.0,0.0,0.0,0.0,0.0,0.0,0.0,0.0,0.0,0.0,-1.0708,-1.0265,-0.9296,-1.1099,-1.162,-1.0708,-1.0634,-0.9664,-0.7783,-0.7625,-0.6542,-0.4688,-0.453,0.0,0.0,0.0,0.0,0.0,-0.039,0.1325,0.3202,0.4373,0.6002,0.7783,0.7931,0.921,1.0783,0.0,0.0,0.0,0.0,0.0,0.0,0.0,0.0,0.0,0.0,0.0,0.0,0.0,0.0,0.0,0.0,0.0,0.0,0.0,0.0,0.0,0.0,0.0,0.0,0.0,-1.3009,-1.3009,-1.3009,-1.3606,-1.3606,-1.3009,-1.4273,-1.4213,-1.3009,-1.3666,-1.3606,-1.3009,-1.2818,-1.2642,-1.2397,-1.1779,-1.1531,0.0,0.0,0.0,0.0,-1.1503,-1.175,0.0,0.0,0.0,0.0,0.0,0.0,0.0,0.0,-1.087,-0.9895,-1.0864,0.0,-0.9669,-0.997,-1.0571,0.0,0.0,0.0,0.0,0.0,0.0,0.0,0.0,0.0,0.0,0.0,0.0,0.0,0.0,0.0,0.0,0.0,0.0,0.0,0.0,0.0,0.0,0.0,0.0,0.0,0.0,-1.004,-0.9523,-0.9296,-0.975,-0.99,-0.9669,-0.8912,-0.8232,-0.7783,-0.6157,-0.5151,-0.4611,-0.3051,0.0,0.0,0.0,0.0,-0.1489,0.047,0.1954,0.3278,0.5132,0.6685,0.8008,0.9508,1.0409,1.0938,0.0,0.0,0.0,0.0,0.0,0.0,0.0,0.0,0.0,0.0,0.0,0.0,0.0,0.0,0.0,0.0,0.0,0.0,0.0,0.0,0.0,0.0,0.0,0.0,-1.4085,-1.4085,-1.4085,-1.4085,-1.4569,-1.451,-1.4145,-1.4991,-1.4932,-1.4145,-1.4569,-1.4332,-1.3545,-1.3545,-1.3373,-1.2948,-1.2143,0.0,0.0,0.0,0.0,0.0,-1.1757,-1.1957,0.0,-1.2245,-1.2305,-1.2305,0.0,0.0,0.0,0.0,-0.982,-0.8613,-0.868,-0.8685,-0.8689,-0.9221,-0.9744,-1.0115,0.0,0.0,0.0,0.0,0.0,0.0,0.0,0.0,0.0,0.0,0.0,0.0,0.0,0.0,0.0,0.0,0.0,0.0,0.0,0.0,0.0,0.0,0.0,0.0,0.0,-0.8912,-0.8389,-0.7936,-0.7936,-0.8161,-0.8613,-0.8089,-0.7318,-0.6388,-0.5229,-0.4219,-0.3205,-0.2115,-0.1645,0.0,0.0,0.0,-0.0706,0.1409,0.2579,0.3279,0.5452,0.685,0.8012,0.9518,1.0415,1.0932,0.0,0.0,0.0,0.0,0.0,0.0,0.0,0.0,0.0,0.0,0.0,0.0,0.0,0.0,0.0,0.0,0.0,0.0,0.0,0.0,0.0,0.0,0.0,-1.541,-1.541,-1.541,-1.541,-1.541,-1.541,-1.541,-1.541,-1.541,-1.541,-1.541,-1.541,-1.4991,-1.4392,-1.4392,-1.3974,-1.3312,-1.2375,0.0,0.0,0.0,0.0,0.0,0.0,0.0,0.0,-1.2305,-1.2305,-1.2305,-1.215,0.0,0.0,0.0,0.0,0.0,-0.6795,-0.7176,-0.7936,-0.8694,-0.8993,-0.9145,0.0,0.0,0.0,0.0,0.0,0.0,0.0,0.0,0.0,0.0,0.0,0.0,0.0,0.0,0.0,0.0,0.0,0.0,0.0,0.0,0.0,0.0,0.0,0.0,0.0,-0.7629,-0.7176,-0.6338,-0.6103,-0.6483,-0.7318,-0.7318,-0.6465,-0.4688,-0.4375,-0.3285,-0.1568,-0.1411,-0.0863,0.0,0.0,0.0,0.0392,0.2111,0.3046,0.3513,0.5544,0.7019,0.8161,0.9145,1.0196,1.1162,0.0,0.0,0.0,0.0,0.0,0.0,0.0,0.0,0.0,0.0,0.0,0.0,0.0,0.0,0.0,0.0,0.0,0.0,0.0,0.0,0.0,0.0,-1.541,-1.541,-1.541,-1.541,-1.541,-1.541,-1.541,-1.541,-1.541,-1.541,-1.541,-1.541,-1.541,-1.5352,-1.5235,-1.5235,-1.5108,-1.4902,-1.3633,0.0,0.0,0.0,0.0,0.0,0.0,0.0,0.0,-1.2305,-1.2305,-1.215,-1.1316,0.0,0.0,0.0,0.0,0.0,-0.7629,-0.7706,-0.7629,-0.6945,-0.7403,-0.8237,0.0,0.0,0.0,0.0,0.0,0.0,0.0,0.0,0.0,0.0,0.0,0.0,0.0,0.0,0.0,0.0,0.0,0.0,0.0,0.0,0.0,0.0,0.0,0.0,0.0,0.0,-0.649,-0.6338,-0.5395,-0.4999,-0.5151,-0.5151,-0.4996,-0.4686,-0.2895,-0.188,-0.1568,-0.0628,-0.0157,0.0,0.0,0.0549,0.1411,0.1723,0.2893,0.4606,0.5755,0.7371,0.9221,1.019,1.1242,1.2218,0.0,0.0,0.0,0.0,0.0,0.0,0.0,0.0,0.0,0.0,0.0,0.0,0.0,0.0,0.0,0.0,0.0,0.0,0.0,0.0,0.0,0.0,-1.541,-1.541,-1.541,-1.541,-1.541,-1.541,-1.541,-1.541,-1.541,-1.541,-1.541,-1.541,-1.541,-1.541,-1.541,-1.541,-1.5243,-1.4921,0.0,0.0,0.0,0.0,0.0,0.0,0.0,0.0,0.0,0.0,-1.1922,-1.1391,-1.0938,0.0,0.0,0.0,0.0,0.0,-0.7022,-0.7022,-0.6872,-0.6416,-0.7022,-0.7783,0.0,0.0,0.0,0.0,0.0,0.0,0.0,0.0,0.0,0.0,0.0,0.0,0.0,0.0,0.0,0.0,0.0,0.0,0.0,0.0,0.0,0.0,0.0,0.0,0.0,0.0,-0.6338,-0.6338,-0.5237,-0.4688,-0.4688,-0.3597,-0.3049,-0.3049,-0.2036,-0.1333,-0.0706,-0.0236,0.0314,0.0863,0.0,0.1488,0.2425,0.3049,0.3828,0.4841,0.6454,0.7613,0.8689,1.0265,1.1755,1.3098,0.0,0.0,0.0,0.0,0.0,0.0,0.0,0.0,0.0,0.0,0.0,0.0,0.0,0.0,0.0,0.0,0.0,0.0,0.0,0.0,-1.6539,-1.5968,-1.5748,-1.5584,-1.541,-1.541,-1.541,-1.541,-1.541,-1.541,-1.541,-1.541,-1.541,-1.541,-1.541,-1.5469,-1.5566,-1.5321,-1.507,-1.4764,0.0,0.0,0.0,0.0,0.0,0.0,0.0,0.0,0.0,0.0,0.0,0.0,0.0,0.0,0.0,-0.7557,-0.6872,-0.6338,-0.6338,-0.649,-0.6567,-0.6338,-0.6872,0.0,0.0,0.0,0.0,0.0,0.0,0.0,0.0,0.0,0.0,0.0,0.0,0.0,0.0,0.0,0.0,0.0,0.0,0.0,0.0,0.0,0.0,0.0,0.0,0.0,0.0,0.0,-0.5944,-0.5944,-0.4688,-0.3986,-0.3986,-0.2113,-0.1333,-0.1568,-0.1333,-0.0784,0.0,0.0235,0.0784,0.1646,0.188,0.2503,0.3591,0.46,0.5226,0.5616,0.7468,0.8313,0.8685,1.049,1.2198,1.3745,0.0,0.0,0.0,0.0,0.0,0.0,0.0,0.0,0.0,0.0,0.0,0.0,0.0,0.0,0.0,0.0,0.0,0.0,0.0,0.0,-1.7523,-1.7468,-1.681,-1.6093,-1.541,-1.541,-1.541,-1.541,-1.541,-1.541,-1.541,-1.541,-1.541,-1.541,-1.541,-1.5635,-1.6016,-1.5142,-1.4926,-1.5118,-1.3674,0.0,0.0,0.0,0.0,0.0,0.0,0.0,0.0,0.0,0.0,0.0,0.0,0.0,-0.7629,-0.6718,-0.6338,-0.6338,-0.6338,-0.6945,-0.748,-0.6567,-0.6338,0.0,-0.748,-0.7783,0.0,0.0,0.0,0.0,0.0,0.0,0.0,0.0,0.0,0.0,0.0,0.0,0.0,0.0,0.0,0.0,0.0,0.0,0.0,0.0,0.0,0.0,0.0,0.0,0.0,-0.4844,-0.2895,-0.1802,-0.1802,-0.0706,-0.0628,-0.1568,-0.0628,-0.0079,0.0,0.102,0.1489,0.1646,0.2579,0.3593,0.4686,0.5674,0.6681,0.7702,0.8765,0.9744,1.0708,1.1774,1.2806,1.3818,0.0,0.0,0.0,0.0,0.0,0.0,0.0,0.0,0.0,0.0,0.0,0.0,0.0,0.0,0.0,0.0,0.0,0.0,0.0,0.0,-1.8058,-1.7633,-1.7357,-1.6866,-1.6093,-1.5633,-1.541,-1.541,-1.541,-1.541,-1.541,-1.541,-1.5557,-1.582,-1.582,-1.5741,-1.5549,-1.5233,-1.4615,-1.3894,-1.3346,-1.2891,0.0,0.0,0.0,0.0,0.0,0.0,0.0,0.0,-1.0714,-0.9669,-0.8689,-0.7706,-0.6795,-0.6412,-0.6338,-0.6338,-0.6338,-0.6567,-0.6795,-0.6412,-0.6338,0.0,0.0,0.0,0.0,0.0,0.0,0.0,0.0,0.0,0.0,0.0,0.0,0.0,0.0,0.0,0.0,0.0,0.0,0.0,0.0,0.0,0.0,0.0,0.0,0.0,0.0,0.0,0.0,-0.3748,-0.2348,-0.1568,-0.1568,-0.0549,-0.0236,-0.0628,-0.0157,0.0314,0.102,0.1411,0.227,0.3517,0.3906,0.4688,0.5783,0.6773,0.7464,0.7931,0.9588,1.087,1.1768,1.215,1.331,1.4665,0.0,0.0,0.0,0.0,0.0,0.0,0.0,0.0,0.0,0.0,0.0,0.0,0.0,0.0,0.0,0.0,0.0,0.0,0.0,-1.9352,-1.9156,-1.8873,-1.8608,-1.8103,-1.7316,-1.6629,-1.5979,-1.541,-1.5547,-1.5615,-1.5615,-1.5762,-1.5986,-1.6269,-1.6004,-1.5722,-1.5435,-1.4844,-1.413,-1.3275,-1.2998,-1.2625,0.0,0.0,0.0,0.0,0.0,0.0,0.0,0.0,-0.989,-0.8694,-0.8008,-0.7099,-0.6338,-0.6338,-0.6338,-0.6338,-0.6338,-0.6338,-0.6338,0.0,0.0,0.0,-0.6338,0.0,0.0,0.0,0.0,0.0,0.0,0.0,0.0,0.0,0.0,0.0,0.0,0.0,0.0,0.0,0.0,0.0,0.0,0.0,0.0,0.0,0.0,0.0,0.0,0.0,0.0,0.0,-0.1644,-0.1097,-0.1097,-0.0392,0.0157,0.0471,0.0471,0.0863,0.1646,0.227,0.3361,0.4688,0.5079,0.5628,0.6412,0.7706,0.8613,0.9367,1.0714,1.1694,1.2372,1.2666,1.381,1.5234,0.0,0.0,0.0,0.0,0.0,0.0,0.0,0.0,0.0,0.0,0.0,0.0,0.0,0.0,0.0,0.0,0.0,0.0,0.0,-2.0731,-2.0916,-2.1468,-2.0779,-2.0006,-1.9112,-1.8341,-1.7122,-1.542,-1.5859,-1.6135,-1.6135,-1.6523,-1.6675,-1.6665,-1.5725,-1.5546,-1.5771,-1.3877,-1.3312,-1.36,-1.2659,-1.2305,-1.2305,0.0,0.0,0.0,0.0,0.0,0.0,0.0,-0.9432,-0.7783,-0.7783,-0.7099,-0.6338,-0.6338,-0.6338,-0.6338,-0.6338,-0.6338,-0.6338,0.0,0.0,0.0,0.0,0.0,0.0,0.0,0.0,0.0,0.0,0.0,0.0,0.0,0.0,0.0,0.0,0.0,0.0,0.0,0.0,0.0,0.0,0.0,0.0,0.0,0.0,0.0,0.0,0.0,0.0,0.0,-0.0549,0.0,0.0,0.0,0.0549,0.1568,0.1646,0.1646,0.1724,0.375,0.4688,0.4766,0.5867,0.6338,0.649,0.8466,1.0496,1.2305,1.2305,1.2305,1.2445,1.3382,1.4314,1.5376,0.0,0.0,0.0,0.0,0.0,0.0,0.0,0.0,0.0,0.0,0.0,0.0,0.0,0.0,0.0,0.0,0.0,0.0,0.0,-2.1242,-2.107,-2.0583,-2.0354,-1.9585,-1.8219,-1.7451,-1.6842,-1.6338,-1.6475,-1.6533,-1.6533,-1.667,-1.6481,-1.614,-1.5867,-1.5197,-1.4293,-1.3739,-1.323,-1.2659,-1.2445,-1.2305,-1.2305,0.0,0.0,0.0,0.0,0.0,0.0,0.0,0.0,0.0,-0.6945,-0.6567,-0.6338,-0.6338,-0.6338,-0.6338,-0.6338,-0.6338,0.0,0.0,0.0,0.0,0.0,0.0,0.0,0.0,0.0,0.0,0.0,0.0,0.0,0.0,0.0,0.0,0.0,0.0,0.0,0.0,0.0,0.0,0.0,0.0,0.0,0.0,0.0,0.0,0.0,0.0,0.0,0.0,-0.0162,0.0,0.0,0.0712,0.1254,0.1646,0.3051,0.3752,0.383,0.4453,0.5079,0.5867,0.618,0.6718,0.7476,0.9513,1.1093,1.2305,1.2305,1.2739,1.331,1.36,1.4728,1.621,0.0,0.0,0.0,0.0,0.0,0.0,0.0,0.0,0.0,0.0,-2.128,-2.1493,0.0,0.0,0.0,0.0,0.0,0.0,0.0,0.0,-2.118,-2.0914,-2.0544,-1.9756,-1.8396,-1.7606,-1.7236,-1.7236,-1.707,-1.6992,-1.6992,-1.6749,-1.6466,-1.6129,-1.5377,-1.4528,-1.3673,-1.331,-1.2806,-1.2305,-1.2305,-1.2305,-1.2305,0.0,0.0,0.0,0.0,0.0,0.0,0.0,0.0,0.0,-0.649,0.0,-0.6338,-0.6338,-0.6338,-0.6338,-0.6338,0.0,0.0,0.0,0.0,0.0,0.0,0.0,0.0,0.0,0.0,0.0,0.0,0.0,0.0,0.0,0.0,0.0,0.0,0.0,0.0,0.0,0.0,0.0,0.0,0.0,0.0,0.0,0.0,0.0,0.0,0.0,0.0,0.0,0.0,0.0247,0.0741,0.1287,0.2066,0.2936,0.416,0.4924,0.5315,0.5315,0.5709,0.6338,0.6718,0.748,0.8537,1.011,1.1391,1.2305,1.2305,1.2879,1.3745,1.4171,1.5296,1.6636,0.0,0.0,0.0,0.0,0.0,0.0,0.0,0.0,0.0,0.0,-2.1606,-2.1644,0.0,0.0,0.0,0.0,0.0,0.0,0.0,0.0,-2.1233,-2.1667,-2.0846,-2.0009,-1.9177,-1.8395,-1.8008,-1.8008,-1.7627,-1.7441,-1.7309,-1.6825,-1.6498,-1.628,-1.4522,-1.3673,-1.3528,-1.2659,-1.2305,-1.2298,-1.2224,-1.215,-1.215,-1.2077,0.0,0.0,0.0,0.0,0.0,0.0,0.0,0.0,-0.6338,-0.6338,-0.6338,-0.6338,-0.6338,-0.6338,-0.6338,0.0,0.0,0.0,0.0,0.0,0.0,0.0,0.0,0.0,0.0,0.0,0.0,0.0,0.0,0.0,0.0,0.0,0.0,0.0,0.0,0.0,0.0,0.0,0.0,0.0,0.0,0.0,0.0,0.0,0.0,0.0,0.0,0.0,0.0085,0.0675,0.1766,0.1894,0.2927,0.0,0.4915,0.541,0.6281,0.6345,0.6338,0.649,0.7629,0.8613,0.9523,1.049,1.1465,1.2305,1.2372,1.3025,1.3954,1.495,1.593,1.6853,0.0,0.0,0.0,0.0,0.0,0.0,0.0,0.0,0.0,0.0,0.0,0.0,0.0,0.0,0.0,0.0,0.0,0.0,0.0,0.0,-2.1174,-1.9879,-1.9044,-1.8462,-1.8269,-1.8076,-1.8008,-1.8008,-1.792,-1.7513,-1.6793,-1.6669,-1.579,-1.4307,-1.3882,-1.3317,-1.2592,-1.2372,-1.2305,-1.2224,-1.1465,-1.1087,-1.1013,-1.0271,-0.982,0.0,0.0,0.0,0.0,0.0,0.0,0.0,-0.6338,-0.6338,-0.6338,-0.6338,-0.6338,-0.6338,0.0,-0.6338,0.0,0.0,0.0,0.0,0.0,0.0,0.0,0.0,0.0,0.0,0.0,0.0,0.0,0.0,0.0,0.0,0.0,0.0,0.0,0.0,0.0,0.0,0.0,0.0,0.0,0.0,0.0,0.0,0.0,0.0,0.0,0.0,0.0957,0.155,0.1807,0.353,0.4568,0.0,0.5764,0.6265,0.6424,0.6312,0.6718,0.7557,0.9357,1.026,1.0565,1.1545,1.2077,1.2372,1.3091,1.4027,1.5021,1.593,1.6862,1.7725,0.0,0.0,0.0,0.0,0.0,0.0,0.0,0.0,0.0,0.0,0.0,0.0,0.0,0.0,0.0,0.0,0.0,0.0,0.0,0.0,0.0,-1.8721,-1.8269,-1.8008,-1.8008,-1.8008,-1.8008,-1.8008,-1.8008,0.0,0.0,0.0,0.0,-1.4378,0.0,-1.2732,-1.2305,-1.2305,-1.2305,-1.2224,-1.1236,-1.0783,-1.0714,-0.9669,-0.8993,-0.8618,-0.8618,0.0,0.0,0.0,0.0,0.0,0.0,0.0,-0.6338,-0.6338,-0.6338,-0.6338,0.0,0.0,0.0,0.0,0.0,0.0,0.0,0.0,0.0,0.0,0.0,0.0,0.0,0.0,0.0,0.0,0.0,0.0,0.0,0.0,0.0,0.0,0.0,0.0,0.0,0.0,0.0,0.0,0.0,0.0,0.0,0.0539,0.0897,0.0897,0.2036,0.29,0.3515,0.4554,0.5355,0.5951,0.6404,0.6781,0.7175,0.7095,0.7326,0.7936,0.9959,1.0783,1.0864,1.1922,1.2305,1.2378,1.2806,1.3954,1.5234,1.5728,1.6793,1.8008,0.0,0.0,0.0,0.0,0.0,0.0,0.0,0.0,0.0,0.0,0.0,0.0,0.0,0.0,0.0,0.0,0.0,0.0,0.0,0.0,0.0,0.0,-1.8115,-1.8086,-1.8008,-1.8008,-1.8008,-1.8008,-1.8008,0.0,0.0,0.0,0.0,-1.4665,0.0,-1.2305,-1.2305,-1.2305,-1.2305,-1.2224,-1.1019,-1.0565,-1.0415,-0.9216,-0.8237,-0.7557,-0.7557,-0.7022,-0.6338,-0.6338,0.0,0.0,0.0,0.0,-0.6338,-0.6338,-0.6338,-0.6345,0.0,0.0,0.0,0.0,0.0,0.0,0.0,0.0,0.0,0.0,0.0,0.0,0.0,0.0,0.0,0.0,0.0,0.0,0.0,0.0,0.0,0.0,0.0,0.0,0.0,0.0,0.0,0.0,0.0,0.0,0.0269,0.1254,0.1879,0.2147,0.3304,0.4374,0.5359,0.5439,0.5912,0.6963,0.6814,0.7065,0.7772,0.8021,0.8223,0.8385,1.026,1.1087,1.1087,1.1996,1.2305,1.2305,1.2659,1.3803,1.5234,1.5587,1.6655,1.8008,0.0,0.0,0.0,0.0,0.0,0.0,0.0,0.0,0.0,0.0,-2.3078,0.0,0.0,0.0,0.0,0.0,0.0,0.0,0.0,0.0,0.0,-1.8564,-1.8555,-1.8379,-1.8018,-1.8008,-1.8008,-1.8008,0.0,0.0,0.0,0.0,0.0,-1.2659,0.0,-1.2305,-1.2305,-1.2305,-1.2305,-1.215,-1.0271,-0.9523,-0.9296,-0.7403,-0.6644,-0.649,-0.649,-0.6416,-0.6338,-0.6338,-0.6338,0.0,0.0,0.0,-0.6338,-0.6338,-0.6338,-0.6288,0.0,0.0,0.0,0.0,0.0,0.0,0.0,0.0,0.0,0.0,0.0,0.0,0.0,0.0,0.0,0.0,0.0,0.0,0.0,0.0,0.0,0.0,0.0,0.0,0.0,0.0,0.0,0.0,0.0,0.0,0.1522,0.1701,0.2236,0.3303,0.4552,0.527,0.5359,0.6319,0.6933,0.7109,0.6966,0.6901,0.6912,0.8743,0.9875,1.0484,1.162,1.2077,1.2077,1.2224,1.2305,1.2445,1.4163,1.495,1.5376,1.701,1.7794,1.8008,0.0,0.0,0.0,0.0,0.0,0.0,0.0,0.0,0.0,0.0,0.0,-2.2493,0.0,0.0,0.0,0.0,0.0,0.0,0.0,0.0,0.0,-1.9014,-1.9004,-1.8916,-1.873,-1.8721,-1.8721,-1.8721,0.0,0.0,0.0,-1.5322,-1.4237,0.0,0.0,0.0,0.0,-1.2305,-1.1996,-1.1316,-0.9895,-0.8993,-0.8327,-0.6969,-0.638,-0.639,-0.6478,-0.6508,-0.6508,-0.6508,-0.6508,-0.6508,-0.6508,0.0,0.0,0.0,0.0,0.0,0.0,0.0,0.0,0.0,0.0,0.0,0.0,0.0,0.0,0.0,0.0,0.0,0.0,0.0,0.0,0.0,0.0,0.0,0.0,0.0,0.0,0.0,0.0,0.0,0.0,0.0,0.0,0.0,0.0,0.1254,0.179,0.304,0.4018,0.4554,0.5711,0.634,0.634,0.6874,0.7139,0.7139,0.7683,0.8243,0.8735,1.029,1.0685,1.016,1.1853,1.2458,1.2305,1.2305,1.2592,1.3171,1.4027,1.5021,1.607,1.6932,1.7569,1.8008,0.0,0.0,0.0,0.0,0.0,0.0,0.0,0.0,0.0,0.0,0.0,0.0,0.0,0.0,0.0,0.0,0.0,0.0,0.0,0.0,0.0,-1.9453,-1.9443,-1.9394,-1.9287,-1.9287,-1.9287,0.0,0.0,0.0,-1.6144,-1.5096,-1.4234,0.0,-1.2825,-1.2532,0.0,0.0,0.0,0.0,-0.9535,-0.854,-0.7778,-0.6885,-0.6529,-0.6546,-0.6661,-0.6702,-0.6702,-0.6702,-0.6702,-0.6702,-0.6702,-0.6702,0.0,0.0,0.0,0.0,0.0,0.0,0.0,0.0,0.0,0.0,0.0,0.0,0.0,0.0,0.0,0.0,0.0,0.0,0.0,0.0,0.0,0.0,0.0,0.0,0.0,0.0,0.0,0.0,0.0,0.0,0.0,0.0,0.0,0.1612,0.2236,0.3929,0.5179,0.5802,0.6694,0.7139,0.7139,0.7139,0.7139,0.7139,0.8364,0.9243,0.9945,1.1372,1.1303,1.0174,1.2023,1.2694,1.2412,1.2331,1.2732,1.3382,1.36,1.4728,1.628,1.6489,1.7217,1.8008,0.0,0.0,0.0,0.0,0.0,0.0,0.0,0.0,0.0,0.0,0.0,0.0,0.0,0.0,-2.0642,-2.0603,-1.9909,-1.96,-1.9928,-2.034,-2.0312,-1.9902,-1.9883,0.0,-1.9297,-1.9287,0.0,0.0,0.0,0.0,-1.6144,-1.5096,-1.4102,-1.3239,-1.316,-1.316,-1.3081,0.0,0.0,0.0,0.0,0.0,0.0,-0.7091,0.0,0.0,0.0,0.0,-0.6702,-0.6702,-0.6702,-0.6702,-0.6702,-0.6702,0.0,0.0,0.0,0.0,0.0,0.0,0.0,0.0,0.0,0.0,0.0,0.0,0.0,0.0,0.0,0.0,0.0,0.0,0.0,0.0,0.0,0.0,0.0,0.0,0.0,0.0,0.0,0.0,0.0,0.0,0.0,0.0,0.0,0.1076,0.3392,0.3659,0.4727,0.6962,0.7051,0.7139,0.7139,0.7139,0.7139,0.7139,0.8364,0.8886,0.9048,1.1278,1.2073,1.1793,1.2505,1.2815,1.2775,1.2418,1.2305,1.2445,1.3382,1.4314,1.5376,1.628,1.7217,1.8008,0.0,0.0,0.0,0.0,0.0,0.0,0.0,0.0,0.0,0.0,0.0,0.0,0.0,-2.0679,-2.0296,-2.0587,-2.0325,-2.0166,-2.0322,-2.0478,-2.0498,-2.0342,-2.0332,-2.0264,-2.0117,-1.9478,0.0,0.0,0.0,-1.6221,-1.5901,-1.4799,-1.409,-1.3761,-1.338,-1.3213,-1.3127,-1.1976,0.0,0.0,0.0,0.0,0.0,0.0,0.0,0.0,0.0,0.0,0.0,-0.6983,-0.6983,-0.6983,-0.6983,0.0,0.0,0.0,0.0,0.0,0.0,0.0,0.0,0.0,0.0,0.0,0.0,0.0,0.0,0.0,0.0,0.0,0.0,0.0,0.0,0.0,0.0,0.0,0.0,0.0,0.0,0.0,0.0,0.0,0.0,0.0,0.0,0.0,0.0,0.0,0.3481,0.4374,0.5445,0.7051,0.7139,0.7139,0.7139,0.7139,0.7489,0.8277,0.9405,1.0351,1.1123,1.2772,1.3412,1.3297,1.3332,1.3213,1.3019,1.2712,1.2955,1.3599,1.4328,1.5226,1.6219,1.7139,1.7716,1.8008,0.0,0.0,0.0,0.0,0.0,0.0,0.0,0.0,0.0,0.0,0.0,0.0,0.0,0.0,-2.0254,-2.0537,-2.0566,-2.0566,-2.0566,-2.0245,-2.0079,-2.0079,-1.9678,-1.9511,-1.9511,-1.8789,-1.839,0.0,0.0,0.0,0.0,-1.4573,-1.4088,-1.4068,-1.3681,-1.3507,0.0,0.0,0.0,-1.0,0.0,0.0,-0.6858,0.0,0.0,0.0,0.0,0.0,0.0,0.0,0.0,0.0,0.0,0.0,0.0,0.0,0.0,0.0,0.0,0.0,0.0,0.0,0.0,0.0,0.0,0.0,0.0,0.0,0.0,0.0,0.0,0.0,0.0,0.0,0.0,0.0,0.0,0.0,0.0,0.0,0.0,0.0,0.0,0.0,0.0,0.0,0.0,0.0,0.357,0.4732,0.5894,0.7051,0.7139,0.7139,0.7139,0.7489,0.8105,0.889,1.0438,1.1558,1.2328,1.3555,1.4088,1.4075,1.3874,1.3627,1.3333,1.3026,1.3446,1.4216,1.4718,1.5547,1.6706,1.7285,1.7725,1.8008,0.0,0.0,0.0,0.0,0.0,0.0,0.0,0.0,0.0,0.0,0.0,0.0,0.0,0.0,0.0,-2.0566,-2.0566,-2.0489,-2.0557,-1.952,-1.8957,-1.8957,-1.7908,-1.7342,-1.7342,-1.7253,-1.7253,0.0,0.0,0.0,0.0,0.0,-1.4088,-1.4088,-1.4088,-1.4082,-1.3913,0.0,-1.0611,-1.0351,0.0,-0.7139,-0.7139,0.0,0.0,0.0,-0.7139,-0.7139,0.0,0.0,0.0,0.0,0.0,0.0,0.0,0.0,0.0,0.0,0.0,0.0,0.0,0.0,0.0,0.0,0.0,0.0,0.0,0.0,0.0,0.0,0.0,0.0,0.0,0.0,0.0,0.0,0.0,0.0,0.0,0.0,0.0,0.0,0.0,0.0,0.0,0.0,0.0,0.2415,0.357,0.4821,0.598,0.7051,0.7139,0.7139,0.7139,0.8277,0.8978,0.9065,1.1209,1.2328,1.2413,1.3561,1.4088,1.4088,1.4088,1.3928,1.3552,1.3347,1.3585,1.4268,1.4246,1.5195,1.6645,1.6645,1.7217,1.8008,0.0,0.0,0.0,0.0,0.0,0.0,0.0,0.0,0.0,0.0,0.0,0.0,-2.0557,-1.9923,-1.9766,-2.0557,-1.9116,-1.855,-1.9362,-1.839,-1.7747,-1.7747,-1.7504,-1.7342,-1.7342,-1.6519,-1.6108,0.0,0.0,0.0,0.0,0.0,0.0,0.0,-1.3203,-1.2766,-1.2681,-1.1214,0.0,0.0,-0.7749,-0.7139,0.0,0.0,0.0,0.0,0.0,-0.7139,0.0,0.0,-0.7139,-0.6962,0.0,0.0,0.0,0.0,0.0,0.0,-0.009,0.0,0.0,0.0,0.0,0.0,0.0,0.0,0.0,0.0,0.0,0.0,0.0,0.0,0.0,0.0,0.0,0.0,0.0,0.0,0.0,0.0,0.0,0.0,0.0,0.0,0.0,0.0,0.2413,0.366,0.4821,0.598,0.6782,0.7051,0.7139,0.7492,0.8364,0.8715,0.9753,1.1381,1.198,1.2766,1.3646,1.3913,1.4088,1.4088,1.4088,1.4041,1.3941,1.3647,1.4097,1.4975,1.5166,1.5934,1.7053,1.7477,1.7794,1.8008,0.0,0.0,0.0,0.0,0.0,0.0,0.0,0.0,0.0,0.0,0.0,0.0,0.0,-1.8957,-1.855,-1.9186,-1.806,-1.7585,-1.823,-1.7253,-1.6601,-1.6601,-1.6198,-1.5959,-1.5959,-1.5387,-1.5054,0.0,0.0,0.0,0.0,0.0,0.0,0.0,0.0,0.0,0.0,0.0,0.0,0.0,-0.7577,0.0,0.0,-0.7139,-0.7139,0.0,0.0,0.0,-0.7139,-0.7139,-0.7139,0.0,0.0,0.0,0.0,0.0,0.0,0.0,0.0,0.0,0.0,0.0,0.0,0.0,0.0,0.0,0.0,0.0,0.0,0.0,0.0,0.0,0.0,0.0,0.0,0.0,0.0,0.0,0.0,0.0,0.0,0.0,0.0,0.0,0.0,0.2592,0.366,0.491,0.6071,0.6782,0.7139,0.7139,0.7139,0.7665,0.889,0.9405,1.0524,1.2328,1.2851,1.3379,1.4088,1.4088,1.4088,1.4088,1.4088,1.4088,1.4075,1.3901,1.4629,1.5881,1.6005,1.6789,1.7806,1.8151,1.8154,1.8008,0.0,0.0,0.0,0.0,0.0,0.0,0.0,0.0,0.0,0.0,0.0,0.0,0.0,0.0,0.0,0.0,-1.709,-1.7017,-1.709,-1.6108,-1.5538,-1.5538,-1.4573,-1.3997,-1.3906,-1.3906,-1.3822,0.0,0.0,0.0,0.0,0.0,0.0,0.0,0.0,0.0,0.0,0.0,0.0,-0.8627,-0.7489,-0.7139,0.0,0.0,-0.7139,0.0,-0.7139,-0.7051,-0.6871,-0.6782,-0.6691,0.0,0.0,0.0,0.0,0.0,-0.0807,0.0,0.0,0.0,0.0,0.0,0.0,0.0,0.018,0.009,0.0,0.0,0.0,0.0,0.0,0.0,0.0,0.0,0.0,0.0,0.0,0.0,0.0,0.0,0.0,0.0,0.0,0.3126,0.3837,0.3837,0.491,0.6071,0.7051,0.7139,0.7139,0.7139,0.7139,0.7753,0.9065,1.0096,1.1214,1.2498,1.3555,1.4088,1.4088,1.4088,1.4088,1.4088,1.4088,1.4088,1.4088,1.425,1.5293,1.6752,1.6711,1.7526,1.876,1.8672,1.8398,1.8076,-1.9707,0.0,0.0,0.0,0.0,0.0,0.0,0.0,0.0,0.0,0.0,0.0,0.0,0.0,0.0,0.0,-1.5718,-1.5061,-1.5944,-1.4977,-1.4412,-1.4412,-1.425,-1.3646,-1.2681,-1.2674,0.0,0.0,0.0,0.0,0.0,0.0,0.0,0.0,0.0,0.0,0.0,0.0,0.0,-0.7404,-0.7228,0.0,-0.7139,-0.7139,-0.7139,-0.7139,-0.7139,-0.6517,-0.5625,0.0,-0.4281,-0.4103,0.0,0.0,0.0,0.0,0.0,0.0,0.0,0.0,0.0,0.0,0.0,0.0,0.1254,0.0718,0.0269,0.0,0.0,0.0,0.0,0.0,0.0,0.0,0.0,0.0,0.0,0.0,0.0,0.0,0.0,0.0,0.0,0.4374,0.509,0.509,0.616,0.6874,0.7051,0.7139,0.7139,0.7139,0.7139,0.8097,1.0265,1.0524,1.1649,1.3737,1.3997,1.4088,1.4088,1.4088,1.4088,1.4088,1.4088,1.4088,1.4173,1.5054,1.6078,1.7113,1.6809,1.7938,1.958,1.8896,1.8584,1.8467,-2.0156,0.0,0.0,0.0,0.0,0.0,0.0,0.0,0.0,0.0,0.0,0.0,0.0,0.0,0.0,0.0,0.0,0.0,0.0,0.0,0.0,-1.3203,-1.2687,-1.2083,-1.1472,-1.1466,0.0,0.0,0.0,0.0,0.0,0.0,0.0,0.0,0.0,0.0,0.0,0.0,-0.7139,-0.7139,-0.7139,0.0,-0.7139,-0.7139,-0.7139,-0.7051,-0.6428,-0.5534,-0.4374,-0.3838,-0.357,0.0,0.0,-0.179,-0.1522,0.0,0.0,0.0,0.0,0.0,0.0,0.0718,0.0,0.0,0.0,0.179,0.1969,0.2592,0.0,0.0,0.0,0.0,0.0,0.0,0.0,0.0,0.0,0.0,0.0,0.0,0.0,0.0,0.0,0.5534,0.6248,0.6248,0.6782,0.7139,0.7139,0.7139,0.7139,0.7139,0.7139,0.8269,1.0611,1.0611,1.174,1.4088,1.4088,1.4088,1.4088,1.4088,1.4088,1.4088,1.4088,1.4412,1.4977,1.5455,1.6683,1.8132,1.7933,1.8679,1.9863,1.9434,1.9141,1.8896,-1.9925,0.0,0.0,0.0,0.0,0.0,0.0,0.0,0.0,0.0,0.0,0.0,0.0,0.0,0.0,0.0,0.0,0.0,0.0,0.0,0.0,0.0,-1.1147,-1.0542,-1.0328,-1.0367,-1.0211,0.0,0.0,0.0,0.0,0.0,0.0,0.0,0.0,0.0,0.0,0.0,0.0,-0.7051,0.0,-0.6874,-0.7051,-0.6874,-0.6782,-0.6605,-0.5179,-0.4107,-0.3213,-0.2948,0.0,-0.2771,-0.179,-0.1433,0.0,0.0,0.0,0.0,0.0,0.0,0.0,0.0,0.0,0.1879,0.0,0.0,0.0,0.3926,0.0,0.0,0.0,0.0,0.0,0.0,0.0,0.0,0.0,0.0,0.0,0.0,0.0,0.0,0.0,0.6517,0.7139,0.7139,0.7139,0.7139,0.7139,0.7139,0.7139,0.7139,0.7316,0.8444,1.0611,1.0783,1.1992,1.4088,1.4088,1.4088,1.4088,1.4088,1.4088,1.4088,1.4088,1.4573,1.5379,1.5621,1.6838,1.8709,1.8877,1.9394,2.0029,1.9941,1.9697,1.9346,-1.7649,-1.7658,0.0,0.0,0.0,0.0,0.0,0.0,0.0,0.0,0.0,0.0,0.0,0.0,0.0,0.0,0.0,0.0,-1.285,0.0,0.0,0.0,0.0,0.0,-0.9302,-0.9375,-0.8918,0.0,0.0,0.0,0.0,0.0,0.0,0.0,-0.7437,0.0,0.0,0.0,-0.7139,0.0,-0.5983,-0.616,0.0,-0.5983,-0.5625,-0.5267,-0.304,-0.2147,-0.1879,0.0,-0.0449,-0.0359,0.0,-0.018,0.0,0.0,0.0,0.0,0.0,0.0,0.0,0.0,0.2503,0.0,0.0,0.0,0.3926,0.4999,0.0,0.0,0.0,0.0,0.0,0.0,0.0,0.0,0.0,0.0,0.0,0.0,0.0,0.0,0.0,0.0,0.7139,0.7139,0.7139,0.7139,0.7139,0.7139,0.7139,0.7139,0.8105,0.9318,1.0611,1.1638,1.2766,1.4088,1.4088,1.4088,1.4088,1.4088,1.4088,1.4088,1.4088,1.4173,1.4328,1.5296,1.6437,1.7577,1.8638,1.965,2.0449,2.0059,1.9883,1.9785,-1.709,-1.7342,0.0,0.0,0.0,0.0,0.0,0.0,0.0,0.0,0.0,0.0,0.0,0.0,0.0,0.0,0.0,-1.2294,0.0,0.0,0.0,0.0,0.0,0.0,0.0,-0.8299,-0.8059,-0.76,-0.76,0.0,0.0,0.0,0.0,0.0,-0.667,0.0,-0.6268,0.0,0.0,0.0,0.0,0.0,0.0,-0.4819,-0.3929,-0.3218,-0.2148,-0.1344,-0.0718,0.0,0.0,0.0,0.0,0.0,0.0,0.0,0.0,0.0,0.0,0.0,0.0,0.0,0.0,0.0,0.0,0.0,0.58,0.0,0.0,0.0,0.0,0.0,0.0,0.0,0.0,0.0,0.0,0.0,0.0,0.0,0.0,0.0,0.0,0.0,0.0,0.0,0.0,0.7139,0.7139,0.7139,0.7404,0.8101,0.8627,0.9753,1.1558,1.2066,1.2942,1.4088,1.4088,1.4088,1.4088,1.4088,1.4088,1.4088,1.4088,1.4489,1.5137,1.6198,1.7253,1.839,1.952,2.0167,2.0547,2.0361,2.0293,2.0225,-1.6124,0.0,0.0,0.0,0.0,0.0,0.0,0.0,0.0,0.0,0.0,0.0,-1.4047,-1.3314,0.0,0.0,0.0,-1.112,0.0,0.0,-0.9235,0.0,0.0,0.0,0.0,0.0,0.0,-0.7723,0.0,0.0,0.0,0.0,0.0,0.0,0.0,-0.54,-0.5062,0.0,0.0,-0.491,-0.4554,-0.4198,-0.3842,-0.3304,-0.2325,-0.1344,-0.1344,-0.0718,0.0,0.0,0.0,0.0,0.0,0.0,0.0,0.0,0.0,0.0,0.0,0.0,0.0,0.0,0.0,0.0,0.0,0.0,0.0,0.0,0.0,0.0,0.0,0.0,0.0,0.0,0.0,0.0,0.0,0.0,0.0,0.0,0.0,0.0,0.0,0.0,0.0,0.7577,0.7925,0.7921,0.7577,0.7925,0.8444,0.9323,0.9666,1.0611,1.2237,1.2589,1.3203,1.4088,1.4088,1.4088,1.4088,1.4088,1.4088,1.4088,1.4088,1.4734,1.5779,1.6519,1.7738,1.9116,1.9844,2.0323,2.0566,2.0566,2.0566,2.0518,-1.4173,-1.4166,0.0,0.0,0.0,0.0,0.0,0.0,0.0,0.0,0.0,0.0,0.0,0.0,0.0,0.0,0.0,-1.0627,-0.9594,0.0,-0.9044,0.0,0.0,-0.7957,0.0,0.0,0.0,0.0,0.0,0.0,0.0,0.0,0.0,0.0,0.0,-0.4961,-0.3776,-0.5064,-0.4822,-0.357,-0.2415,-0.1255,-0.0269,0.0,-0.1076,-0.009,-0.009,0.0,0.0,0.0,0.0,0.0,0.0,0.0,0.0,0.0,0.0,0.0,0.0,0.0,0.0,0.3215,0.0,0.0,0.0,0.0,0.7139,0.0,0.0,0.0,0.0,0.0,0.0,0.6959,0.0,0.0,0.0,0.0,0.0,0.0,0.0,0.0,0.0,0.0,0.0,0.889,0.9836,1.0009,0.889,0.9923,1.0524,1.0524,1.1638,1.2242,1.2328,1.347,1.4088,1.4088,1.4088,1.4088,1.4088,1.4088,1.4088,1.4088,1.4088,1.4734,1.5696,1.5779,1.7001,1.9036,1.9036,1.9687,2.0566,2.0566,2.0566,2.0566,0.0,0.0,0.0,0.0,0.0,0.0,0.0,-1.28,0.0,0.0,0.0,0.0,0.0,0.0,-1.0327,0.0,0.0,-0.8821,-0.839,-0.8485,0.0,0.0,0.0,-0.7515,0.0,0.0,0.0,0.0,0.0,0.0,0.0,0.0,0.0,0.0,0.0,-0.3007,0.0,0.0,0.0,0.0,0.0,-0.1076,0.0,0.0,0.0,0.0,0.0,0.0,0.0,0.0,0.0,0.0,0.0,0.0,0.0,0.0,0.0,0.0,0.0,0.0,0.2236,0.4285,0.0,0.0,0.0,0.0,0.0,0.0,0.0,0.0,0.0,0.0,0.7386,0.8119,0.8591,0.0,0.0,0.0,0.0,0.0,0.0,0.0,0.0,0.0,0.0,1.0009,1.0351,1.0438,0.0,1.0351,1.0956,1.1724,1.2072,1.2674,1.347,1.3913,1.4088,1.4088,1.4088,1.4088,1.4088,1.4088,1.4088,1.4088,1.4088,1.4734,1.5786,1.6437,1.7658,1.9036,1.9766,2.0245,2.0566,2.0566,2.0566,2.0566,-1.0624,0.0,0.0,0.0,0.0,0.0,0.0,0.0,0.0,0.0,-1.0779,0.0,-1.0485,0.0,-0.9268,0.0,-0.847,-0.7997,-0.7899,-0.7984,0.0,-0.8038,-0.7537,0.0,0.0,0.0,0.0,0.0,0.0,-0.3316,0.0,0.0,0.0,0.0,0.0,0.0,0.0,0.0,-0.159,0.0,0.0,-0.0718,0.0,0.0,0.0,0.0,0.0,0.0,0.0,0.0,0.0,0.0,0.0,0.0,0.0,0.0,0.0269,0.0807,0.1612,0.2415,0.0,0.5001,0.5714,0.0,0.6962,0.0,0.0,0.0,0.0,0.0,0.0,0.0,0.0,0.8715,0.9235,1.0009,0.0,1.1826,0.0,0.0,0.0,0.0,0.0,0.0,1.1649,1.1214,1.1558,1.1649,0.0,0.0,1.2169,1.2942,1.2942,1.3294,1.4088,1.4088,1.4088,1.4088,1.4088,1.4088,1.4088,1.4088,1.4088,1.4088,1.4489,1.5304,1.6355,1.7415,1.855,1.9599,2.0323,2.0566,2.0566,2.0566,2.0566,2.0566,0.0,0.0,0.0,0.0,-1.1061,0.0,0.0,0.0,-0.9899,0.0,-0.8825,-0.8038,-0.8038,-0.8038,-0.8038,-0.8038,-0.8038,0.0,-0.8038,-0.7939,0.0,0.0,-0.6631,-0.5829,-0.5827,0.0,0.0,0.0,0.0,0.0,0.0,0.0,0.0,0.0,-0.131,0.0,-0.0098,-0.1371,-0.1149,0.0,0.0,0.0,0.0,0.0,0.0,0.0,0.0,0.0,0.0,0.0,0.0,0.0,0.0,0.0,0.009,0.009,0.0987,0.1879,0.1969,0.3664,0.5447,0.5447,0.0,0.0,0.0,0.0,0.7139,0.0,0.0,0.0,0.0,0.0,0.0,0.8803,1.0009,1.1563,0.0,0.0,0.0,0.0,0.0,0.0,0.0,1.4088,1.3646,1.2498,1.3464,0.0,0.0,0.0,1.4088,1.4088,1.4088,1.4088,1.4088,1.4088,1.4088,1.4088,1.4088,1.4088,1.4088,1.4088,1.4088,1.4166,1.522,1.6273,1.7415,1.847,1.9599,2.0566,2.0566,2.0566,2.0566,2.0566,2.0566,2.0566,-0.8234,-0.8467,-0.8581,0.0,-0.9668,-1.0422,0.0,0.0,0.0,0.0,-0.8237,-0.8038,-0.8038,-0.8038,-0.8038,-0.8038,-0.8038,0.0,0.0,0.0,0.0,-0.6531,-0.5222,-0.4017,-0.3016,-0.2715,0.0,-0.1008,0.0,0.0,-0.0504,0.0,0.0,0.0,0.0,0.0,0.0,-0.0395,-0.0288,0.0,0.0,0.0,0.0,0.0,0.0,0.0,0.0,0.0,0.0,0.0,0.0,0.0,0.0,0.0628,0.1344,0.1344,0.2236,0.3304,0.4198,0.4912,0.5625,0.6428,0.6874,0.7139,0.0,0.0,0.0,0.0,0.0,0.0,0.0,0.0,0.0,0.0,1.1912,0.0,0.0,0.0,0.0,0.0,0.0,0.0,0.0,1.4088,1.3997,1.3646,1.3913,0.0,0.0,0.0,0.0,1.4088,1.4088,1.4088,1.4088,1.4088,1.4088,1.4088,1.4088,1.4088,1.4088,1.4088,1.4088,1.4088,1.4412,1.5553,1.7334,1.7585,1.8868,2.0566,2.0566,2.0566,2.0566,2.0566,2.0566,2.0566,-0.7441,0.0,0.0,-0.8024,0.0,0.0,-0.9118,0.0,0.0,-0.8038,-0.8038,0.0,-0.8038,-0.8038,-0.8038,-0.8038,-0.7434,0.0,0.0,0.0,0.0,-0.5122,-0.3817,-0.2814,-0.2013,-0.1411,0.0,0.0,0.0,0.0,0.0,0.0,0.0,0.0,0.0,0.0,0.0,0.0,0.0,0.0,0.0,0.0,0.0,0.0,0.0,0.0,0.0,0.0,0.0,0.0,0.0,0.009,0.0628,0.1254,0.1879,0.2413,0.3482,0.4552,0.5179,0.5805,0.6337,0.6962,0.7139,0.7139,0.7139,0.7139,0.7139,0.0,0.0,0.0,0.0,0.0,0.0,0.0,0.0,0.0,0.0,0.0,0.0,0.0,0.0,0.0,0.0,1.4088,1.4088,1.4088,0.0,0.0,0.0,0.0,0.0,1.4088,1.4088,1.4088,1.4088,1.4088,1.4088,1.4088,1.4088,1.4088,1.4088,1.4088,1.4088,1.4173,1.4573,1.5711,1.7334,1.7827,1.9036,2.0566,2.0566,2.0566,2.0566,2.0566,2.0566,2.0566,0.0,0.0,0.0,0.0,0.0,0.0,0.0,-0.8038,0.0,-0.8038,0.0,-0.8038,-0.8038,-0.7839,-0.7739,-0.7739,0.0,-0.5727,-0.5727,-0.4518,-0.3715,-0.3715,-0.2413,-0.1712,-0.1712,-0.0605,0.0,0.0,0.0,0.0,0.0,0.0,0.0,0.0,0.0,0.0,0.0,0.0,0.0,0.0,0.0,0.0,0.0,0.0,0.009,0.0269,0.0269,0.0269,0.0269,0.0269,0.0359,0.0628,0.1701,0.2148,0.2504,0.3571,0.4641,0.5625,0.5625,0.6337,0.7139,0.7139,0.7139,0.7139,0.7139,0.7139,0.7139,0.7139,0.7139,0.7139,0.0,0.0,0.0,0.0,0.0,0.0,0.0,0.0,0.0,0.0,0.0,0.0,0.0,0.0,0.0,0.0,0.0,0.0,0.0,0.0,0.0,1.4088,1.4088,1.4088,1.4088,0.0,1.4088,1.4088,1.4088,1.4088,1.4088,1.4088,1.4088,1.4166,1.5213,1.6273,1.7423,1.855,1.9599,2.0566,2.0566,2.0566,2.0566,2.0566,2.0566,2.0566,0.0,0.0,0.0,0.0,0.0,-0.8038,-0.8038,-0.8038,-0.8038,-0.8038,-0.8038,-0.8038,-0.8038,-0.7033,-0.6329,-0.6329,-0.5122,0.0,0.0,0.0,0.0,-0.2313,-0.1109,-0.0303,-0.0303,-0.0101,0.0,0.0,0.0,0.0,0.0,0.0,0.0,0.0,0.0,0.0,0.0,0.0,0.0,0.0,0.0,0.0,0.0,0.0,0.0628,0.1523,0.1523,0.1523,0.1523,0.1523,0.2147,0.3037,0.3213,0.3929,0.4823,0.5001,0.5891,0.6786,0.6786,0.6962,0.7139,0.7139,0.7139,0.7139,0.7139,0.7139,0.7139,0.7139,0.7139,0.7139,0.7139,0.0,0.0,0.0,0.0,0.0,0.0,0.0,0.0,0.0,0.0,0.0,0.0,0.0,0.0,0.0,0.0,0.0,0.0,0.0,0.0,0.0,1.4088,0.0,0.0,0.0,1.4088,1.4088,1.4088,1.4088,1.4088,1.4088,1.4088,1.4166,1.5213,1.6273,1.7423,1.855,1.9599,2.0566,2.0566,2.0566,2.0566,2.0566,2.0566,2.0566,0.0,0.0,0.0,0.0,0.0,0.0,0.0,-0.6286,0.0,-0.7836,-0.7434,-0.6933,-0.6933,-0.5724,-0.492,-0.492,-0.3717,-0.2914,-0.2914,-0.1711,-0.1008,-0.1008,-0.0303,0.0,0.0,0.0,0.0,0.0,0.0,0.0,0.0,0.0,0.0,0.0,0.0,0.0,0.0,0.0,0.0,0.0099,0.0675,0.0947,0.1029,0.1631,0.2236,0.2771,0.2771,0.3127,0.3575,0.2948,0.3126,0.3748,0.4374,0.4912,0.5536,0.6071,0.6694,0.7139,0.7139,0.7139,0.7139,0.7139,0.7139,0.7139,0.7139,0.7139,0.7139,0.7139,0.7139,0.7316,0.7929,0.8969,0.0,0.0,0.0,0.0,0.0,0.0,0.0,0.0,0.0,0.0,0.0,0.0,0.0,0.0,0.0,0.0,0.0,0.0,0.0,0.0,0.0,0.0,0.0,0.0,0.0,1.4088,1.4088,1.4088,1.4088,1.4088,1.4412,1.4977,1.5455,1.6683,1.831,1.9362,2.0157,2.0566,2.0566,2.0566,2.0566,2.0566,2.0566,2.0566,0.0,-0.7466,0.0,0.0,-0.641,0.0,-0.5482,-0.4563,-0.4718,-0.6828,-0.6229,-0.5525,-0.5525,-0.4418,-0.3615,-0.3615,-0.2314,-0.1611,-0.1611,-0.0605,0.0,0.0,0.0,0.0,0.0,0.0,0.0,0.0,0.0,0.0,0.0,0.0,0.0,0.0,0.0,0.0,0.0,0.0,0.0806,0.0905,0.1836,0.2188,0.2367,0.3266,0.3748,0.4016,0.4016,0.4732,0.5625,0.4639,0.4372,0.455,0.5445,0.5805,0.5983,0.6871,0.7139,0.7139,0.7139,0.7139,0.7139,0.7139,0.7139,0.7139,0.7139,0.7139,0.7139,0.7139,0.7139,0.7577,0.8973,0.984,0.0,0.0,0.0,0.0,0.0,0.0,0.0,0.0,0.0,0.0,0.0,0.0,0.0,0.0,0.0,0.0,0.0,0.0,0.0,0.0,0.0,1.4088,1.4088,0.0,1.4088,1.4088,1.4088,1.4088,1.4088,1.4328,1.4894,1.5703,1.6183,1.7488,1.9441,2.0245,2.0566,2.0566,2.0566,2.0566,2.0566,2.0566,2.0566,2.0566,0.0,0.0,0.0,0.0,0.0,0.0,0.0,-0.4069,-0.4116,-0.4316,-0.4216,-0.4216,-0.4216,-0.3015,-0.2213,-0.2213,-0.1008,-0.0202,-0.0202,-0.0101,0.0,0.0,0.0,0.0,0.0,0.0,0.0,0.0,0.0,0.0,0.0,0.0,0.0,0.0,0.0,0.0,0.0,0.3115,0.3615,0.3604,0.3663,0.3608,0.3592,0.3628,0.4283,0.5267,0.5267,0.5983,0.6962,0.6782,0.6782,0.6782,0.6874,0.6962,0.6962,0.7051,0.7139,0.7139,0.7139,0.7139,0.7139,0.7139,0.7139,0.7139,0.7139,0.7139,0.7139,0.7139,0.7139,0.7749,1.0005,0.9666,0.9749,0.0,0.0,0.0,0.0,0.0,0.0,0.0,0.0,0.0,0.0,1.4088,0.0,0.0,0.0,0.0,0.0,0.0,0.0,1.4088,0.0,1.4088,1.4088,1.4088,1.4088,1.4088,1.4088,1.4088,1.4166,1.5137,1.5621,1.5779,1.7819,1.9353,2.0479,2.0566,2.0566,2.0566,2.0566,2.0566,2.0566,2.0566,2.0566,2.0566,0.0,0.0,0.0,0.0,0.0,0.0,0.0,-0.2054,-0.1591,-0.1609,-0.2314,-0.2815,-0.2815,-0.1611,-0.0807,-0.0807,-0.0303,0.0,0.0,0.0,0.0,0.0,0.0,0.0,0.0,0.0,0.0,0.0,0.0,0.0,0.0,0.0,0.0,0.0,0.0,0.3215,0.3215,0.3815,0.4016,0.4004,0.4624,0.4836,0.4911,0.5528,0.5977,0.6428,0.6428,0.6694,0.7139,0.7139,0.7139,0.7139,0.7139,0.7139,0.7139,0.7139,0.7139,0.7139,0.7139,0.7139,0.7139,0.7139,0.7139,0.7139,0.7139,0.7139,0.7139,0.7139,0.7665,0.8452,0.9405,1.0351,1.1209,0.0,0.0,0.0,0.0,0.0,0.0,0.0,0.0,0.0,0.0,0.0,1.4088,0.0,0.0,0.0,0.0,0.0,0.0,1.4088,0.0,1.4088,1.4088,1.4088,1.4088,1.4088,1.4734,1.4734,1.4166,1.5876,1.7001,1.7738,1.9274,2.0167,2.0566,2.0566,2.0566,2.0566,2.0566,2.0566,2.0566,2.0566,2.0566,2.0566,-0.4567,0.0,-0.3345,0.0,-0.2232,-0.1416,-0.1321,-0.0579,0.0,0.0,-0.0804,-0.141,-0.141,-0.0605,0.0,0.0,0.0,0.0,0.0,0.0,0.0,0.0,0.0,0.0,0.0,0.0,0.0,0.0,0.0,0.0,0.0,0.0,0.0,0.0,0.4017,0.4618,0.4618,0.5018,0.5218,0.5202,0.5875,0.6164,0.6233,0.6892,0.7139,0.7139,0.7139,0.7139,0.7139,0.7139,0.7139,0.7139,0.7139,0.7139,0.7139,0.7139,0.7139,0.7139,0.7139,0.7139,0.7139,0.7139,0.7139,0.7139,0.7139,0.7139,0.7228,0.7577,0.8536,0.9492,0.9836,1.1209,1.2413,1.2766,0.0,0.0,0.0,0.0,0.0,0.0,0.0,1.4088,1.4088,1.4088,0.0,0.0,0.0,0.0,0.0,0.0,0.0,0.0,0.0,0.0,0.0,1.4088,1.4088,1.4088,1.4901,1.481,1.4173,1.6281,1.7908,1.9036,2.0157,2.0566,2.0566,2.0566,2.0566,2.0566,2.0566,2.0566,2.0566,2.0566,2.0566,2.0566,-0.2058,-0.188,-0.1792,-0.1791,-0.0821,0.0,0.0,0.0,0.0,0.0,0.0,0.0,0.0,0.0,0.0,0.0,0.0,0.0,0.0,0.0,0.0,0.0,0.0,0.0,0.0,0.0,0.0,0.0,0.0,0.0,0.1957,0.0,0.3949,0.4016,0.5425,0.5929,0.6029,0.7434,0.7939,0.7915,0.7719,0.76,0.7567,0.7258,0.7139,0.7139,0.7139,0.7139,0.7139,0.7139,0.7139,0.7139,0.7139,0.7139,0.7139,0.7139,0.7139,0.7139,0.7139,0.7139,0.7139,0.7139,0.7139,0.7139,0.7139,0.7139,0.7401,0.8627,0.9749,1.095,1.2066,1.2242,1.2674,1.3906,0.0,0.0,0.0,0.0,0.0,0.0,1.4088,1.4088,1.4088,0.0,0.0,0.0,0.0,0.0,0.0,0.0,0.0,1.4088,1.4088,0.0,1.4088,1.4088,1.4088,1.4088,1.4088,1.4088,1.4173,1.6281,1.7908,1.9036,2.0157,2.0566,2.0566,2.0566,2.0566,2.0566,2.0566,2.0566,2.0566,2.0566,2.0566,2.0566,-0.1879,-0.1165,-0.0539,-0.0539,-0.0271,0.0,0.0,0.0,0.0,0.0,0.0,0.0,0.0,0.0,0.0,0.0,0.0,0.0,0.0,0.0,0.0,0.0,0.0,0.0,0.0,0.0,0.0404,0.141,0.0,0.0,0.0,0.4779,0.5395,0.5425,0.6731,0.7335,0.7434,0.7839,0.798,0.7868,0.7678,0.7536,0.7421,0.7217,0.7139,0.7139,0.7139,0.7139,0.7139,0.7139,0.7139,0.7139,0.7139,0.7139,0.7139,0.7139,0.7139,0.7139,0.7139,0.7139,0.7139,0.7139,0.7139,0.7139,0.7139,0.7753,0.8452,0.8803,1.0438,1.1901,1.2242,1.2942,1.3646,1.3997,1.4088,0.0,0.0,0.0,0.0,0.0,0.0,1.4088,0.0,1.4088,0.0,0.0,0.0,0.0,0.0,0.0,0.0,0.0,1.4088,0.0,1.4088,1.4088,1.4088,1.4088,1.481,1.5951,1.7415,1.7334,1.831,2.0089,2.0479,2.0566,2.0566,2.0566,2.0566,2.0566,2.0566,2.0566,2.0566,2.0566,2.0566,2.0566,-0.1165,-0.0539,0.0,0.0,0.0,0.0,0.0,0.0,0.0,0.0,0.0,0.0,0.0,0.0,0.0,0.0,0.0,0.0,0.0,0.0,0.0,0.0,0.0,0.0202,0.0706,0.0,0.0,0.2714,0.3217,0.3919,0.482,0.6126,0.6731,0.6833,0.7637,0.8038,0.8035,0.7977,0.7899,0.7794,0.7594,0.7458,0.7353,0.72,0.7139,0.7139,0.7139,0.7139,0.7139,0.7139,0.7139,0.7139,0.7139,0.7139,0.7139,0.7139,0.7139,0.7139,0.7139,0.7139,0.7139,0.7139,0.7139,0.7228,0.7665,0.9056,1.0178,1.0178,1.1643,1.2942,1.2942,1.3555,1.4088,1.4088,1.4088,1.4088,1.4088,0.0,0.0,0.0,0.0,0.0,0.0,1.4088,1.4088,0.0,0.0,0.0,0.0,0.0,0.0,1.4088,1.4088,0.0,1.4088,1.4088,1.4088,1.4088,1.522,1.6429,1.773,1.79,1.8709,2.0001,2.0411,2.0566,2.0566,2.0566,2.0566,2.0566,2.0566,2.0566,2.0566,2.0566,2.0566,2.0566,0.0,0.0,0.0,0.0,0.0,0.0,0.0,0.0,0.0,0.0,0.0,0.0,0.0,0.0,0.0,0.0,0.0,0.0,0.0,0.0,0.0,0.0101,0.0101,0.0807,0.2113,0.2113,0.2815,0.4116,0.5525,0.6129,0.6129,0.7434,0.8038,0.8038,0.8038,0.8035,0.8014,0.7872,0.7797,0.7756,0.7482,0.7363,0.7339,0.7193,0.7139,0.7139,0.7139,0.7139,0.7139,0.7139,0.7139,0.7139,0.7139,0.7139,0.7139,0.7139,0.7139,0.7139,0.7139,0.7139,0.7139,0.7139,0.7139,0.7492,0.8627,1.0697,1.2328,1.2328,1.3294,1.4088,1.4088,1.4088,1.4088,1.4088,1.4088,1.4088,1.4088,0.0,0.0,0.0,0.0,0.0,0.0,1.4088,1.4088,0.0,0.0,0.0,0.0,0.0,1.4088,1.4088,1.4088,1.4088,1.4088,1.4088,1.4173,1.425,1.522,1.5779,1.6026,1.806,1.9036,1.9204,2.0167,2.0566,2.0566,2.0566,2.0566,2.0566,2.0566,2.0566,2.0566,2.0566,2.0566,2.0566,0.0,0.0,0.0,0.0,0.0,0.0,0.0,0.0,0.0,0.0,0.0,0.0,0.0,0.0,0.0,0.0,0.0,0.0,0.0,0.0,0.0504,0.1511,0.1511,0.2113,0.3515,0.3516,0.4218,0.5525,0.6833,0.7537,0.7537,0.7839,0.8038,0.8038,0.8038,0.7974,0.7862,0.7828,0.7682,0.7468,0.74,0.7299,0.719,0.7153,0.7139,0.7139,0.7139,0.7139,0.7139,0.7139,0.7139,0.7139,0.7139,0.7139,0.7139,0.7139,0.7139,0.7139,0.7139,0.7139,0.7139,0.7139,0.7753,0.854,0.8803,1.0697,1.2328,1.2328,1.3294,1.4088,1.4088,1.4088,1.4088,1.4088,1.4088,1.4088,1.4088,1.4088,0.0,0.0,1.4088,1.4088,1.4088,1.4088,1.4088,0.0,0.0,0.0,0.0,1.4088,1.4088,1.4088,1.4088,1.4088,1.4088,1.4088,1.4489,1.5296,1.5621,1.6593,1.823,1.8798,1.9441,2.0245,2.0489,2.0566,2.0566,2.0566,2.0566,2.0566,2.0566,2.0566,2.0566,2.0566,2.0566,2.0566,0.0,0.0,0.0,0.0,0.0,0.0,0.0,0.0,0.0,0.0,0.0,0.0187,0.0762,0.0873,0.1181,0.169,0.1204,0.0907,0.0907,0.1511,0.2113,0.2914,0.2914,0.3516,0.492,0.492,0.5525,0.6933,0.7637,0.8038,0.8038,0.8038,0.8001,0.7936,0.7936,0.7851,0.7709,0.7641,0.7516,0.7366,0.7295,0.7214,0.7139,0.7139,0.7139,0.7139,0.7139,0.7139,0.7139,0.7139,0.7139,0.7139,0.7139,0.7139,0.7139,0.7139,0.7139,0.7139,0.7139,0.7139,0.7139,0.7139,0.8017,0.9065,0.9579,1.1037,1.2504,1.3027,1.3646,1.4088,1.4088,1.4088,1.4088,1.4088,1.4088,1.4088,1.4088,1.4088,0.0,1.4088,1.4088,1.4088,1.4088,1.4088,1.4088,1.4088,1.4088,0.0,1.4088,1.4088,1.4088,1.4088,1.4573,1.481,1.481,1.5304,1.5876,1.6437,1.6919,1.7819,1.9036,1.952,2.0079,2.0566,2.0566,2.0566,2.0566,2.0566,2.0566,2.0566,2.0566,2.0566,2.0566,2.0566,2.0566,2.0566,0.0,0.0,0.0,0.0,0.0,0.0,0.0,0.0,0.009,0.0269,0.0273,0.0737,0.1938,0.2187,0.2623,0.3712,0.3075,0.2507,0.2313,0.3414,0.4116,0.4318,0.4316,0.492,0.6229,0.6331,0.6833,0.8038,0.8038,0.8028,0.8004,0.8004,0.7923,0.778,0.778,0.7699,0.7556,0.7424,0.7356,0.7326,0.7193,0.7139,0.7139,0.7139,0.7139,0.7139,0.7139,0.7139,0.7139,0.7139,0.7139,0.7139,0.7139,0.7139,0.7139,0.7139,0.7139,0.7139,0.7139,0.7139,0.7139,0.7316,0.8277,0.9492,1.0611,1.1729,1.2857,1.3913,1.4088,1.4088,1.4088,1.4088,1.4088,1.4088,1.4088,1.4088,1.4088,0.0,1.4088,1.4088,1.4088,1.4088,1.4088,1.4088,1.4088,1.4088,1.4088,1.4088,1.4088,1.4088,1.4088,1.4088,1.4977,1.5538,1.5696,1.6601,1.7253,1.7577,1.8559,1.9116,1.9274,2.0167,2.0566,2.0566,2.0566,2.0566,2.0566,2.0566,2.0566,2.0566,2.0566,2.0566,2.0566,2.0566,2.0566,2.0566,0.0,0.0,0.0,0.0,0.0,0.0,0.0,0.0,0.0359,0.1344,0.1527,0.1991,0.3218,0.3335,0.3487,0.3801,0.4702,0.4738,0.3712,0.3915,0.4518,0.5627,0.5727,0.6329,0.7637,0.7736,0.7839,0.8038,0.8038,0.7974,0.7845,0.7845,0.777,0.7634,0.7634,0.755,0.7404,0.7383,0.7295,0.7173,0.7149,0.7139,0.7139,0.7139,0.7139,0.7139,0.7139,0.7139,0.7139,0.7139,0.7139,0.7139,0.7139,0.7139,0.7139,0.7139,0.7139,0.7139,0.7139,0.7139,0.7316,0.8364,0.9492,1.0611,1.1809,1.2942,1.3906,1.4088,1.4088,1.4088,1.4088,1.4088,1.4088,1.4088,1.4088,1.4088,1.4088,0.0,1.4088,1.4088,1.4088,1.4088,1.4088,1.4088,1.4088,1.4088,1.4088,1.4088,1.4088,1.4088,1.4088,1.4088,1.425,1.4817,1.5696,1.5861,1.6919,1.8718,1.8957,1.9441,2.0323,2.0489,2.0566,2.0566,2.0566,2.0566,2.0566,2.0566,2.0566,2.0566,2.0566,2.0566,2.0566,2.0566,2.0566,2.0566,0.0,0.0,0.0,0.0,0.0,0.018,0.0897,0.0986,0.1433,0.2592,0.2769,0.3227,0.4433,0.4665,0.4919,0.567,0.6404,0.6565,0.594,0.6057,0.6426,0.7033,0.7033,0.7335,0.7939,0.8038,0.7997,0.7916,0.7916,0.7841,0.7695,0.7695,0.7617,0.7478,0.7478,0.739,0.7248,0.7248,0.7207,0.7139,0.7139,0.7139,0.7139,0.7139,0.7139,0.7139,0.7139,0.7139,0.7139,0.7139,0.7139,0.7139,0.7139,0.7139,0.7139,0.7139,0.7139,0.7228,0.7929,0.8101,0.8364,0.9492,1.0178,1.0864,1.2072,1.276,1.3294,1.3997,1.4088,1.4088,1.4088,1.4088,1.4088,1.4088,1.4088,0.0,0.0,1.4088,1.4088,1.4088,1.4088,1.4088,1.4088,1.4088,1.4088,1.4088,1.4088,1.4088,1.4088,1.4088,1.4088,1.4088,1.465,1.5462,1.6519,1.6601,1.7415,1.9036,1.9036,1.952,2.0566,2.0566,2.0566,2.0566,2.0566,2.0566,2.0566,2.0566,2.0566,2.0566,2.0566,2.0566,2.0566,2.0566,2.0566,2.0566,0.0,0.0,0.009,0.0359,0.0449,0.0807,0.2057,0.2236,0.2681,0.3838,0.4016,0.4463,0.5625,0.5888,0.6324,0.7275,0.7478,0.756,0.7597,0.7811,0.795,0.7984,0.7987,0.797,0.7936,0.7936,0.7879,0.7763,0.7763,0.7689,0.7546,0.7546,0.7465,0.7319,0.7319,0.7251,0.7139,0.7139,0.7139,0.7139,0.7139,0.7139,0.7139,0.7139,0.7139,0.7139,0.7139,0.7139,0.7139,0.7139,0.7139,0.7139,0.7139,0.7139,0.7139,0.7139,0.7316,0.7753,0.8973,0.9323,0.9579,1.0697,1.1037,1.13,1.2419,1.2681,1.2942,1.3906,1.4088,1.4088,1.4088,1.4088,1.4088,1.4088,0.0,0.0,0.0,1.4088,1.4088,1.4088,1.4088,1.4088,1.4088,1.4088,1.4088,1.4088,1.4088,1.4088,1.4088,1.4088,1.4088,1.4088,1.4894,1.5869,1.6927,1.6927,1.7496,1.863,1.8877,1.9441,2.0245,2.0489,2.0566,2.0566,2.0566,2.0566,2.0566,2.0566,2.0566,2.0566,2.0566,2.0566,2.0566,2.0566,2.0566,2.0566,0.0,0.0,0.0359,0.1433,0.17,0.2057,0.3304,0.3481,0.3927,0.509,0.527,0.5714,0.6874,0.6972,0.7125,0.736,0.7383,0.7448,0.759,0.7621,0.7692,0.7821,0.7828,0.7767,0.7634,0.7631,0.7628,0.7614,0.7614,0.7536,0.739,0.739,0.7305,0.7156,0.7156,0.7149,0.7139,0.7139,0.7139,0.7139,0.7139,0.7139,0.7139,0.7139,0.7139,0.7139,0.7139,0.7139,0.7139,0.7139,0.7139,0.7139,0.7139,0.7139,0.7139,0.7139,0.7929,0.8973,1.0183,1.0438,1.0783,1.1895,1.2157,1.2504,1.373,1.3997,1.3997,1.4088,1.4088,1.4088,1.4088,1.4088,1.4088,1.4088,0.0,0.0,1.4088,1.4088,1.4088,1.4088,1.4088,1.4088,1.4088,1.4088,1.4088,1.4088,1.4088,1.4088,1.4088,1.4088,1.4088,1.4088,1.4166,1.4734,1.5779,1.5779,1.6355,1.7423,1.8479,1.9036,1.9116,2.0167,2.0566,2.0566,2.0566,2.0566,2.0566,2.0566,2.0566,2.0566,2.0566,2.0566,2.0566,2.0566,2.0566,2.0566,0.0986,0.1076,0.1522,0.2681,0.2948,0.3304,0.4552,0.4732,0.5176,0.6337,0.6428,0.6605,0.7051,0.7139,0.7163,0.7221,0.7227,0.7251,0.7312,0.7404,0.7526,0.7675,0.7682,0.7655,0.76,0.76,0.7553,0.7458,0.7458,0.738,0.7227,0.7227,0.7197,0.7139,0.7139,0.7139,0.7139,0.7139,0.7139,0.7139,0.7139,0.7139,0.7139,0.7139,0.7139,0.7139,0.7139,0.7139,0.7139,0.7139,0.7139,0.7139,0.7139,0.7139,0.7401,0.8877,1.0086,1.13,1.2431,1.2248,1.1901,1.3118,1.3379,1.3555,1.3997,1.4088,1.4088,1.4088,1.4088,1.4088,1.4088,1.4088,1.4088,1.4088,0.0,1.4088,1.4088,1.4088,1.4088,1.4088,1.4088,1.4088,1.4088,1.4088,1.4088,1.4088,1.4088,1.4088,1.4088,1.4088,1.4088,1.4088,1.4088,1.4334,1.4734,1.4734,1.5545,1.7342,1.7738,1.863,2.0001,2.0401,2.0566,2.0566,2.0566,2.0566,2.0566,2.0566,2.0566,2.0566,2.0566,2.0566,2.0566,2.0566,2.0566,2.0566,0.2147,0.2325,0.2771,0.3927,0.4194,0.4552,0.5714,0.5894,0.6248,0.6962,0.7139,0.7139,0.7139,0.7139,0.7139,0.7139,0.7139,0.7139,0.7139,0.7241,0.7366,0.7519,0.7529,0.7506,0.7458,0.7455,0.7404,0.7299,0.7299,0.7244,0.7139,0.7139,0.7139,0.7139,0.7139,0.7139,0.7139,0.7139,0.7139,0.7139,0.7139,0.7139,0.7139,0.7139,0.7139,0.7139,0.7139,0.7139,0.7139,0.7139,0.7139,0.7139,0.7577,0.7925,0.8619,1.0519,1.1724,1.2589,1.3737,1.347,1.3027,1.3913,1.4088,1.4088,1.4088,1.4088,1.4088,1.4088,1.4088,1.4088,1.4088,1.4088,1.4088,1.4088,1.4088,1.4088,1.4088,1.4088,1.4088,1.4088,1.4088,1.4088,1.4088,1.4088,1.4088,1.4088,1.4088,1.4088,1.4088,1.4088,1.4088,1.4088,1.4088,1.4088,1.4088,1.4088,1.4985,1.6764,1.7172,1.831,2.0089,2.0489,2.0566,2.0566,2.0566,2.0566,2.0566,2.0566,2.0566,2.0566,2.0566,2.0566,2.0566,2.0566,2.0566,2.0566,0.3393,0.357,0.4016,0.5181,0.545,0.5805,0.6966,0.7143,0.7143,0.7143,0.7139,0.7139,0.7139,0.7139,0.7139,0.7139,0.7139,0.7139,0.7139,0.7139,0.721,0.7363,0.737,0.7299,0.7143,0.7139,0.7139,0.7139,0.7139,0.7139,0.7139,0.7139,0.7139,0.7139,0.7139,0.7139,0.7139,0.7139,0.7139,0.7139,0.7139,0.7139,0.7139,0.7139,0.7139,0.7139,0.7139,0.7139,0.7139,0.7139,0.7139,0.7316,0.854,0.9666,1.0869,1.1986,1.2328,1.2589,1.3737,1.4088,1.4088,1.4088,1.4088,1.4088,1.4088,1.4088,1.4088,1.4088,1.4088,1.4088,1.4088,1.4088,1.4088,1.4088,1.4088,1.4088,1.4088,1.4088,1.4088,1.4088,1.4088,1.4088,1.4088,1.4088,1.4088,1.4088,1.4088,1.4088,1.4088,1.4088,1.4088,1.4088,1.4088,1.4088,1.4088,1.4088,1.465,1.5703,1.6764,1.7908,1.9045,2.0079,2.0566,2.0566,2.0566,2.0566,2.0566,2.0566,2.0566,2.0566,2.0566,2.0566,2.0566,2.0566,2.0566,2.0566,0.4643,0.4821,0.5292,0.6557,0.6847,0.6969,0.7352,0.7373,0.7302,0.7302,0.7207,0.7139,0.7139,0.7139,0.7139,0.7139,0.7139,0.7139,0.7139,0.7139,0.7163,0.7207,0.721,0.7187,0.7143,0.7139,0.7139,0.7139,0.7139,0.7139,0.7139,0.7139,0.7139,0.7139,0.7139,0.7139,0.7139,0.7139,0.7139,0.7139,0.7139,0.7139,0.7139,0.7139,0.7139,0.7139,0.7139,0.7139,0.7139,0.7139,0.7665,0.8536,0.9749,1.0869,1.1895,1.2242,1.2942,1.3646,1.3997,1.4088,1.4088,1.4088,1.4088,1.4088,1.4088,1.4088,1.4088,1.4088,1.4088,1.4088,1.4088,1.4088,1.4088,1.4088,1.4088,1.4088,1.4088,1.4088,1.4088,1.4088,1.4088,1.4088,1.4088,1.4088,1.4088,1.4088,1.4088,1.4088,1.4088,1.4088,1.4088,1.4088,1.4088,1.4088,1.4088,1.4817,1.5786,1.6846,1.7989,1.9036,2.0157,2.0479,2.0566,2.0566,2.0566,2.0566,2.0566,2.0566,2.0566,2.0566,2.0566,2.0566,2.0566,2.0566,2.0566,2.0566,0.5802,0.6114,0.6445,0.7262,0.7421,0.7492,0.7587,0.7519,0.7461,0.7461,0.7329,0.7231,0.7231,0.7177,0.7139,0.7139,0.7139,0.7139,0.7139,0.7139,0.7139,0.7139,0.7139,0.7139,0.7139,0.7139,0.7139,0.7139,0.7139,0.7139,0.7139,0.7139,0.7139,0.7139,0.7139,0.7139,0.7139,0.7139,0.7139,0.7139,0.7139,0.7139,0.7139,0.7139,0.7139,0.7139,0.7139,0.7139,0.7139,0.7665,0.8882,1.0351,1.1042,1.2077,1.3027,1.3027,1.3555,1.4088,1.4088,1.4088,1.4088,1.4088,1.4088,1.4088,1.4088,1.4088,1.4088,1.4088,1.4088,1.4088,1.4088,1.4088,1.4088,1.4088,1.4088,1.4088,1.4088,1.4088,1.4088,1.4088,1.4088,1.4088,1.4088,1.4088,1.4088,1.4088,1.4088,1.4088,1.4088,1.4088,1.4088,1.4088,1.4489,1.4734,1.4734,1.6273,1.7082,1.7334,1.8479,1.952,2.0566,2.0566,2.0566,2.0566,2.0566,2.0566,2.0566,2.0566,2.0566,2.0566,2.0566,2.0566,2.0566,2.0566,2.0566,2.0566,0.689,0.7275,0.738,0.7407,0.7526,0.7624,0.7638,0.7628,0.7617,0.7617,0.7485,0.7387,0.7373,0.7244,0.7153,0.7143,0.7139,0.7139,0.7139,0.7139,0.7139,0.7139,0.7139,0.7139,0.7139,0.7139,0.7139,0.7139,0.7139,0.7139,0.7139,0.7139,0.7139,0.7139,0.7139,0.7139,0.7139,0.7139,0.7139,0.7139,0.7139,0.7139,0.7139,0.7139,0.7139,0.7228,0.7228,0.7312,0.7577,0.8798,1.0611,1.2328,1.2413,1.3209,1.4088,1.4088,1.4088,1.4088,1.4088,1.4088,1.4088,1.4088,1.4088,1.4088,1.4088,1.4088,1.4088,1.4088,1.4088,1.4088,1.4088,1.4088,1.4088,1.4088,1.4088,1.4088,1.4088,1.4088,1.4088,1.4088,1.4088,1.4088,1.4088,1.4088,1.4088,1.4088,1.4088,1.4088,1.4088,1.4088,1.4173,1.425,1.5213,1.5779,1.5861,1.798,1.8479,1.7504,1.863,1.9678,2.0566,2.0566,2.0566,2.0566,2.0566,2.0566,2.0566,2.0566,2.0566,2.0566,2.0566,2.0566,2.0566,2.0566,2.0566,2.0566,0.7295,0.735,0.7444,0.7675,0.7743,0.7804,0.7926,0.7841,0.7767,0.7767,0.7641,0.7506,0.7383,0.7343,0.7272,0.7149,0.7139,0.7139,0.7139,0.7139,0.7139,0.7139,0.7139,0.7139,0.7139,0.7139,0.7139,0.7139,0.7139,0.7139,0.7139,0.7139,0.7139,0.7139,0.7139,0.7139,0.7139,0.7139,0.7139,0.7139,0.7139,0.7139,0.7139,0.7139,0.7665,0.854,0.854,0.9056,1.0005,1.1209,1.1895,1.2498,1.3379,1.3913,1.4088,1.4088,1.4088,1.4088,1.4088,1.4088,1.4088,1.4088,1.4088,1.4088,1.4088,1.4088,1.4088,1.4088,1.4088,1.4088,1.4088,1.4088,1.4088,1.4088,1.4088,1.4088,1.4088,1.4088,1.4088,1.4088,1.4088,1.4088,1.4088,1.4088,1.4088,1.4088,1.4088,1.4088,1.4088,1.4088,1.4496,1.5296,1.5621,1.6108,1.6927,1.831,1.8877,1.8638,1.9756,2.0401,2.0566,2.0566,2.0566,2.0566,2.0566,2.0566,2.0566,2.0566,2.0566,2.0566,2.0566,2.0566,2.0566,2.0566,2.0566,2.0566,0.7343,0.7431,0.755,0.7773,0.7872,0.7946,0.8028,0.797,0.7919,0.7919,0.779,0.7672,0.759,0.7519,0.7417,0.7265,0.7183,0.7139,0.7139,0.7139,0.7139,0.7139,0.7139,0.7139,0.7139,0.7139,0.7139,0.7139,0.7139,0.7139,0.7139,0.7139,0.7139,0.7139,0.7139,0.7139,0.7139,0.7139,0.7139,0.7139,0.7753,0.7577,0.7139,0.7753,0.8364,0.889,0.889,1.0009,1.1466,1.2072,1.2674,1.3288,1.3906,1.4088,1.4088,1.4088,1.4088,1.4088,1.4088,1.4088,1.4088,1.4088,1.4088,1.4088,1.4088,1.4088,1.4088,1.4088,1.4088,1.4088,1.4088,1.4088,1.4088,1.4088,1.4088,1.4088,1.4088,1.4088,1.4088,1.4088,1.4088,1.4088,1.4088,1.4088,1.4088,1.4088,1.4088,1.4088,1.4088,1.4573,1.5137,1.5696,1.6756,1.7577,1.8149,1.9195,1.9766,1.9756,2.0323,2.0566,2.0566,2.0566,2.0566,2.0566,2.0566,2.0566,2.0566,2.0566,2.0566,2.0566,2.0566,2.0566,2.0566,2.0566,2.0566,2.0566,0.738,0.7533,0.7682,0.7824,0.7957,0.8038,0.8038,0.8038,0.8038,0.8038,0.7929,0.7841,0.7814,0.7685,0.755,0.7421,0.7268,0.718,0.718,0.7153,0.7139,0.7139,0.7139,0.7139,0.7139,0.7139,0.7139,0.7139,0.7139,0.7139,0.7139,0.7139,0.7139,0.7139,0.7139,0.7139,0.7139,0.7139,0.7228,0.7489,0.854,0.8452,0.7837,0.8798,0.9323,0.9492,0.9492,1.0869,1.2589,1.2589,1.3288,1.4088,1.4088,1.4088,1.4088,1.4088,1.4088,1.4088,1.4088,1.4088,1.4088,1.4088,1.4088,1.4088,1.4088,1.4088,1.4088,1.4088,1.4088,1.4088,1.4088,1.4088,1.4088,1.4088,1.4088,1.4088,1.4088,1.4088,1.4088,1.4088,1.4088,1.4088,1.4088,1.4088,1.4088,1.4088,1.4088,1.4088,1.4088,1.5137,1.5779,1.5944,1.798,1.9125,1.9274,2.0157,2.0566,2.0566,2.0566,2.0566,2.0566,2.0566,2.0566,2.0566,2.0566,2.0566,2.0566,2.0566,2.0566,2.0566,2.0566,2.0566,2.0566,2.0566,2.0566,2.0566,0.7539,0.7685,0.7831,0.798,0.8024,0.8038,0.8038,0.8038,0.8038,0.8038,0.8021,0.796,0.7824,0.7685,0.759,0.757,0.7428,0.7339,0.7339,0.7214,0.7139,0.7139,0.7139,0.7139,0.7139,0.7139,0.7139,0.7139,0.7139,0.7139,0.7139,0.7139,0.7139,0.7139,0.7139,0.7139,0.7139,0.7139,0.7665,0.8627,0.8803,0.9405,1.0178,1.0351,1.0956,1.1815,1.1815,1.2687,1.3822,1.3822,1.3997,1.4088,1.4088,1.4088,1.4088,1.4088,1.4088,1.4088,1.4088,1.4088,1.4088,1.4088,1.4088,1.4088,1.4088,1.4088,1.4088,1.4088,1.4088,1.4088,1.4088,1.4088,1.4088,1.4088,1.4088,1.4088,1.4088,1.4088,1.4088,1.4088,1.4088,1.4088,1.4088,1.4088,1.4088,1.4088,1.4088,1.4088,1.4088,1.5137,1.6108,1.7009,1.831,1.9441,2.0401,2.0566,2.0566,2.0566,2.0566,2.0566,2.0566,2.0566,2.0566,2.0566,2.0566,2.0566,2.0566,2.0566,2.0566,2.0566,2.0566,2.0566,2.0566,2.0566,2.0566,2.0566,0.757,0.7712,0.7858,0.8014,0.8038,0.8038,0.8038,0.8038,0.8038,0.8038,0.8038,0.8014,0.7946,0.7804,0.7719,0.7719,0.7584,0.7499,0.7499,0.7356,0.7272,0.7272,0.7187,0.7139,0.7139,0.7139,0.7139,0.7139,0.7139,0.7139,0.7139,0.7139,0.7139,0.7139,0.7139,0.7139,0.7139,0.7139,0.7401,0.7929,0.8627,0.8798,0.8707,0.9405,0.9923,1.0611,1.1809,1.3118,1.4088,1.4088,1.4088,1.4088,1.4088,1.4088,1.4088,1.4088,1.4088,1.4088,1.4088,1.4088,1.4088,1.4088,1.4088,1.4088,1.4088,1.4088,1.4088,1.4088,1.4088,1.4088,1.4088,1.4088,1.4088,1.4088,1.4088,1.4088,1.4088,1.4088,1.4088,1.4088,1.4088,1.4088,1.4088,1.4088,1.4088,1.4088,1.4088,1.4088,1.4088,1.5137,1.5944,1.6355,1.806,1.9204,1.9678,2.0323,2.0566,2.0566,2.0566,2.0566,2.0566,2.0566,2.0566,2.0566,2.0566,2.0566,2.0566,2.0566,2.0566,2.0566,2.0566,2.0566,2.0566,2.0566,2.0566,2.0566]},{"header":{"parameterUnit":"m.s-1","parameterCategory":1,"la1":30.6,"la2":28.766,"lo1":-90.7593,"lo2":-88.6598,"dy":0.0162,"dx":0.0183,"nx":116,"ny":114,"refTime":"2023-10-18T18:00:00:Z","depth":0,"parameterNumber":3,"parameterNumberName":"V-component_of_WINDS"},"data":[0.0,0.0,0.0,0.0,0.0,0.0,0.0,0.0,0.0,0.0,0.0,0.0,0.0,0.0,0.0,0.0,0.0,0.0,0.0,0.0,0.0,0.0,0.0,0.0,0.0,0.0,0.0,0.0,0.0,0.0,0.0,0.0,0.0,0.0,0.0,0.0,0.0,0.0,0.0,0.0,0.0,0.0,0.0,0.0,0.0,0.0,0.0,0.0,0.0,0.0,0.0,0.0,0.0,0.0,0.0,0.0,0.0,0.0,0.0,0.0,0.0,0.0,0.0,0.0,0.0,0.0,0.0,0.0,0.0,0.0,0.0,0.0,0.0,0.0,0.0,0.0,0.0,0.0,0.0,0.0,0.0,0.0,0.0,0.0,0.0,0.0,0.0,0.0,0.0,0.0,0.0,0.0,0.0,0.0,0.0,0.0,0.0,0.0,0.0,0.0,0.0,0.0,0.0,0.0,0.0,0.0,0.0,0.0,0.0,0.0,0.0,0.0,0.0,0.0,0.0,0.0,0.0,0.0,0.0,0.0,0.0,0.0,0.0,0.0,0.0,0.0,0.0,0.0,0.0,0.0,0.0,0.0,0.0,0.0,0.0,0.0,0.0,0.0,0.0,0.0,0.0,0.0,0.0,0.0,0.0,0.0,0.0,0.0,0.0,0.0,0.0,0.0,0.0,0.0,0.0,0.0,0.0,0.0,0.0,0.0,0.0,0.0,0.0,0.0,0.0,0.0,0.0,0.0,0.0,0.0,0.0,0.0,0.0,0.0,0.0,0.0,0.0,0.0,0.0,0.0,0.0,0.0,0.0,0.0,0.0,0.0,0.0,0.0,0.0,0.0,0.0,0.0,0.0,0.0,0.0,0.0,0.0,0.0,0.0,0.0,0.0,0.0,0.0,0.0,0.0,0.0,0.0,0.0,0.0,0.0,0.0,0.0,0.0,0.0,0.0,0.0,0.0,0.0,0.0,0.0,0.0,0.0,0.0,0.0,0.0,0.0,0.0,0.0,0.0,0.0,0.0,0.0,0.0,0.0,0.0,0.0,0.0,0.0,0.0,0.0,0.0,0.0,0.0,0.0,0.0,0.0,0.0,0.0,0.0,0.0,0.0,0.0,0.0,0.0,0.0,0.0,0.0,0.0,0.0,0.0,0.0,0.0,0.0,0.0,0.0,0.0,0.0,0.0,0.0,0.0,0.0,0.0,0.0,0.0,0.0,0.0,0.0,0.0,0.0,0.0,0.0,0.0,0.0,0.0,0.0,0.0,0.0,0.0,0.0,0.0,0.0,0.0,0.0,0.0,0.0,0.0,0.0,0.0,0.0,0.0,0.0,0.0,0.0,0.0,0.0,0.0,0.0,0.0,0.0,0.0,0.0,0.0,0.0,0.0,0.0,0.0,0.0,0.0,0.0,0.0,0.0,0.0,0.0,0.0,0.0,0.0,0.0,0.0,0.0,0.0,0.0,0.0,0.0,0.0,0.0,0.0,0.0,0.0,0.0,0.0,0.0,0.0,0.0,0.0,0.0,0.0,0.0,0.0,0.0,0.0,0.0,0.0,0.0,0.0,0.0,0.0,0.0,0.0,0.0,0.0,0.0,0.0,0.0,0.0,0.0,0.0,0.0,0.0,0.0,0.0,0.0,0.0,0.0,0.0,0.0,0.0,0.0,0.0,0.0,0.0,0.0,0.0,0.0,0.0,0.0,0.0,0.0,0.0,0.0,0.0,0.0,0.0,0.0,0.0,0.0,0.0,0.0,0.0,0.0,0.0,0.0,0.0,0.0,0.0,0.0,0.0,0.0,0.0,0.0,0.0,0.0,0.0,0.0,0.0,0.0,0.0,0.0,0.0,0.0,0.0,0.0,0.0,0.0,0.0,0.0,0.0,0.0,0.0,0.0,0.0,0.0,0.0,0.0,0.0,0.0,0.0,0.0,0.0,0.0,0.0,0.0,0.0,0.0,0.0,0.0,0.0,0.0,0.0,0.0,0.0,0.0,0.0,0.0,0.0,0.0,0.0,0.0,0.0,0.0,0.0,0.0,0.0,0.0,0.0,0.0,0.0,0.0,0.0,0.0,0.0,0.0,0.0,0.0,0.0,0.0,0.0,0.0,0.0,0.0,0.0,0.0,0.0,0.0,0.0,0.0,0.0,0.0,0.0,0.0,0.0,0.0,0.0,0.0,0.0,0.0,0.0,0.0,0.0,0.0,0.0,0.0,0.0,0.0,0.0,0.0,0.0,0.0,0.0,0.0,0.0,0.0,0.0,0.0,0.0,0.0,0.0,0.0,0.0,0.0,0.0,0.0,0.0,0.0,0.0,0.0,0.0,0.0,0.0,0.0,0.0,0.0,0.0,0.0,0.0,0.0,0.0,0.0,0.0,0.0,0.0,0.0,0.0,0.0,0.0,0.0,0.0,0.0,0.0,0.0,0.0,0.0,0.0,0.0,0.0,0.0,0.0,0.0,0.0,0.0,0.0,0.0,0.0,0.0,0.0,0.0,0.0,0.0,0.0,0.0,0.0,0.0,0.0,0.0,0.0,0.0,0.0,0.0,0.0,0.0,0.0,0.0,0.0,0.0,0.0,0.0,0.0,0.0,0.0,0.0,0.0,0.0,0.0,0.0,0.0,0.0,0.0,0.0,0.0,0.0,0.0,0.0,0.0,0.0,0.0,0.0,0.0,0.0,0.0,0.0,0.0,0.0,0.0,0.0,0.0,0.0,0.0,0.0,0.0,0.0,0.0,0.0,0.0,0.0,0.0,0.0,0.0,0.0,0.0,0.0,0.0,0.0,0.0,0.0,0.0,0.0,0.0,0.0,0.0,0.0,0.0,0.0,0.0,0.0,0.0,0.0,0.0,0.0,0.0,0.0,0.0,0.0,0.0,0.0,0.0,0.0,0.0,0.0,0.0,0.0,0.0,0.0,0.0,0.0,0.0,0.0,0.0,0.0,0.0,0.0,0.0,0.0,0.0,0.0,0.0,0.0,0.0,0.0,0.0,0.0,0.0,0.0,0.0,0.0,0.0,0.0,0.0,0.0,0.0,0.0,0.0,0.0,0.0,0.0,0.0,0.0,0.0,0.0,0.0,0.0,0.0,0.0,0.0,0.0,0.0,0.0,0.0,0.0,0.0,0.0,0.0,0.0,0.0,0.0,0.0,0.0,0.0,0.0,0.0,0.0,0.0,0.0,0.0,0.0,0.0,0.0,0.0,0.0,0.0,0.0,0.0,0.0,0.0,0.0,0.0,0.0,0.0,0.0,0.0,0.0,0.0,0.0,0.0,0.0,0.0,0.0,0.0,0.0,0.0,0.0,0.0,0.0,0.0,0.0,0.0,0.0,0.0,0.0,0.0,0.0,0.0,0.0,0.0,0.0,0.0,0.0,0.0,0.0,0.0,0.0,0.0,0.0,0.0,0.0,0.0,0.0,0.0,0.0,0.0,0.0,0.0,0.0,0.0,0.0,0.0,0.0,0.0,0.0,0.0,0.0,0.0,0.0,0.0,0.0,0.0,0.0,0.0,0.0,0.0,0.0,0.0,0.0,0.0,0.0,0.0,0.0,0.0,0.0,0.0,0.0,0.0,0.0,0.0,0.0,0.0,0.0,0.0,0.0,0.0,0.0,0.0,0.0,0.0,0.0,0.0,0.0,0.0,0.0,0.0,0.0,0.0,0.0,0.0,0.0,0.0,0.0,0.0,0.0,0.0,0.0,0.0,0.0,0.0,0.0,0.0,0.0,0.0,0.0,0.0,0.0,0.0,0.0,0.0,0.0,0.0,0.0,0.0,0.0,0.0,0.0,0.0,0.0,0.0,0.0,0.0,0.0,0.0,0.0,0.0,0.0,0.0,0.0,0.0,0.0,0.0,0.0,0.0,0.0,0.0,0.0,0.0,0.0,0.0,0.0,0.0,0.0,0.0,0.0,0.0,0.0,0.0,0.0,0.0,0.0,0.0,0.0,0.0,0.0,0.0,0.0,0.0,0.0,0.0,0.0,0.0,0.0,0.0,0.0,0.0,0.0,0.0,0.0,0.0,0.0,0.0,0.0,0.0,0.0,0.0,0.0,0.0,0.0,0.0,0.0,0.0,0.0,0.0,0.0,0.0,0.0,0.0,0.0,0.0,0.0,0.0,0.0,0.0,0.0,0.0,0.0,0.0,0.0,0.0,0.0,0.0,0.0,0.0,0.0,0.0,0.0,0.0,0.0,0.0,0.0,0.0,0.0,0.0,0.0,0.0,0.0,0.0,0.0,0.0,0.0,0.0,0.0,0.0,0.0,0.0,0.0,0.0,0.0,0.0,0.0,0.0,0.0,0.0,0.0,0.0,0.0,0.0,0.0,0.0,0.0,0.0,0.0,0.0,0.0,0.0,0.0,0.0,0.0,0.0,0.0,0.0,0.0,0.0,0.0,0.0,0.0,0.0,0.0,0.0,0.0,0.0,0.0,0.0,0.0,0.0,0.0,0.0,0.0,0.0,0.0,0.0,0.0,0.0,0.0,0.0,0.0,0.0,0.0,0.0,0.0,0.0,0.0,0.0,0.0,0.0,0.0,0.0,0.0,0.0,0.0,0.0,0.0,0.0,0.0,0.0,0.0,0.0,0.0,0.0,0.0,0.0,0.0,0.0,0.0,0.0,0.0,0.0,0.0,0.0,0.0,0.0,0.0,0.0,0.0,0.0,0.0,0.0,0.0,0.0,0.0,0.0,0.0,0.0,0.0,0.0,0.0,0.0,0.0,0.0,0.0,0.0,0.0,0.0,0.0,0.0,0.0,0.0,0.0,0.0,0.0,0.0,0.0,0.0,0.0,0.0,0.0,0.0,0.0,0.0,0.0,0.0,0.0,0.0,0.0,0.0,0.0,0.0,0.0,0.0,0.0,0.0,0.0,0.0,0.0,0.0,0.0,0.0,0.0,0.0,0.0,0.0,0.0,0.0,0.0,0.0,0.0,0.0,0.0,0.0,0.0,0.0,0.0,0.0,0.0,0.0,0.0,0.0,0.0,0.0,0.0,0.0,0.0,0.0,0.0,0.0,0.0,0.0,0.0,0.0,0.0,0.0,0.0,0.0,0.0,0.0,0.0,0.0,0.0,0.0,0.0,0.0,0.0,0.0,0.0,0.0,0.0,0.0,0.0,0.0,0.0,0.0,0.0,0.0,0.0,0.0,0.0,0.0,0.0,0.0,0.0,0.0,0.0,0.0,0.0,0.0,0.0,0.0,0.0,0.0,0.0,0.0,0.0,0.0,0.0,0.0,0.0,0.0,0.0,0.0,0.0,0.0,0.0,0.0,0.0,0.0,0.0,0.0,0.0,0.0,0.0,0.0,0.0,0.0,0.0,0.0,0.0,0.0,0.0,0.0,0.0,0.0,0.0,0.0,0.0,0.0,0.0,0.0,0.0,0.0,0.0,0.0,0.0,0.0,0.0,0.0,0.0,0.0,0.0,0.0,0.0,0.0,0.0,0.0,0.0,0.0,0.0,0.0,0.0,0.0,0.0,0.0,0.0,0.0,0.0,0.0,0.0,0.0,0.0,0.0,0.0,0.0,0.0,0.0,0.0,0.0,0.0,0.0,0.0,0.0,0.0,0.0,0.0,0.0,0.0,0.0,0.0,0.0,0.0,0.0,0.0,0.0,0.0,0.0,0.0,0.0,0.0,0.0,0.0,0.0,0.0,0.0,0.0,0.0,0.0,0.0,0.0,0.0,0.0,0.0,0.0,0.0,0.0,0.0,0.0,0.0,0.0,0.0,0.0,0.0,0.0,0.0,0.0,0.0,0.0,0.0,0.0,0.0,0.0,0.0,0.0,0.0,0.0,0.0,0.0,0.0,0.0,0.0,0.0,0.0,0.0,0.0,0.0,0.0,0.0,0.0,0.0,0.0,0.0,0.0,0.0,0.0,0.0,0.0,0.0,0.0,0.0,0.0,0.0,0.0,0.0,0.0,0.0,0.0,0.0,0.0,0.0,0.0,0.0,0.0,0.0,0.0,0.0,0.0,0.0,0.0,0.0,0.0,0.0,0.0,0.0,0.0,0.0,0.0,0.0,0.0,0.0,0.0,0.0,0.0,0.0,0.0,0.0,0.0,0.0,0.0,0.0,0.0,1.957,0.0,0.0,0.0,0.0,0.0,0.0,0.0,0.0,0.0,0.0,0.0,0.0,0.0,0.0,0.0,0.0,0.0,0.0,0.0,0.0,0.0,0.0,0.0,0.0,0.0,0.0,0.0,0.0,0.0,0.0,0.0,0.0,0.0,0.0,0.0,0.0,0.0,0.0,0.0,0.0,0.0,0.0,0.0,0.0,0.0,0.0,0.0,0.0,0.0,0.0,0.0,0.0,0.0,0.0,0.0,0.0,0.0,0.0,0.0,0.0,0.0,0.0,0.0,0.0,0.0,0.0,0.0,0.0,0.0,0.0,0.0,0.0,0.0,0.0,0.0,0.0,0.0,0.0,0.0,0.0,0.0,0.0,0.0,0.0,0.0,0.0,0.0,0.0,0.0,0.0,0.0,0.0,0.0,0.0,0.0,0.0,0.0,0.0,0.0,0.0,0.0,0.0,0.0,0.0,0.0,0.0,0.0,0.0,0.0,0.0,0.0,0.0,0.0,0.0,0.0,0.0,1.9792,0.0,0.0,0.0,0.0,0.0,0.0,0.0,0.0,0.0,0.0,0.0,0.0,0.0,0.0,0.0,0.0,0.0,0.0,0.0,0.0,0.0,0.0,0.0,0.0,0.0,0.0,0.0,0.0,0.0,0.0,0.0,0.0,0.0,0.0,0.0,0.0,0.0,0.0,0.0,0.0,0.0,0.0,0.0,0.0,0.0,0.0,0.0,0.0,0.0,0.0,0.0,0.0,0.0,0.0,0.0,0.0,0.0,0.0,0.0,0.0,0.0,0.0,0.0,0.0,0.0,0.0,0.0,0.0,0.0,0.0,0.0,0.0,0.0,0.0,0.0,0.0,0.0,0.0,0.0,0.0,0.0,0.0,0.0,0.0,0.0,0.0,0.0,0.0,0.0,0.0,0.0,0.0,0.0,0.0,0.0,0.0,0.0,0.0,0.0,0.0,0.0,0.0,0.0,0.0,0.0,0.0,0.0,0.0,2.5207,2.5187,2.4549,2.3468,2.3477,2.4222,2.2271,2.4107,2.7066,0.0,0.0,0.0,0.0,0.0,0.0,0.0,0.0,0.0,0.0,0.0,0.0,0.0,0.0,0.0,0.0,0.0,0.0,0.0,0.0,0.0,0.0,0.0,0.0,0.0,0.0,0.0,0.0,0.0,0.0,0.0,0.0,0.0,0.0,0.0,0.0,0.0,0.0,0.0,3.0428,3.0491,3.0513,3.0529,3.0587,0.0,0.0,0.0,0.0,0.0,0.0,0.0,0.0,0.0,0.0,0.0,0.0,0.0,0.0,0.0,0.0,0.0,0.0,0.0,0.0,0.0,0.0,0.0,0.0,0.0,0.0,0.0,0.0,0.0,0.0,0.0,0.0,0.0,0.0,0.0,0.0,0.0,0.0,0.0,0.0,0.0,0.0,0.0,2.7341,2.7341,0.0,0.0,0.0,0.0,0.0,0.0,0.0,0.0,0.0,0.0,0.0,0.0,0.0,2.8578,2.8373,2.6863,2.5984,2.5764,2.4348,2.3086,2.2039,2.1264,2.0765,2.0479,1.9527,0.0,1.8234,1.1652,0.0,0.0,0.0,0.0,0.0,0.0,0.0,0.0,0.0,0.0,0.0,0.0,0.0,0.0,0.0,0.0,0.0,0.0,0.0,0.0,0.0,0.0,0.0,0.0,0.0,0.0,0.0,0.0,0.0,0.0,0.0,0.0,0.0,0.0,0.0,0.0,3.0633,3.0568,3.0516,3.0507,3.0498,3.0498,3.0481,3.0507,3.0545,3.0498,0.0,0.0,0.0,0.0,0.0,0.0,0.0,0.0,0.0,0.0,0.0,0.0,0.0,0.0,0.0,0.0,0.0,0.0,0.0,0.0,0.0,0.0,0.0,0.0,0.0,0.0,0.0,0.0,0.0,0.0,0.0,0.0,0.0,0.0,0.0,0.0,0.0,0.0,0.0,2.6325,2.5613,2.6055,2.6251,2.6755,0.0,0.0,0.0,0.0,0.0,0.0,0.0,0.0,0.0,2.5832,2.5954,2.5941,2.5712,2.5547,2.5426,2.5426,2.4614,2.4004,2.3465,2.1875,2.1014,2.0739,1.931,1.7597,1.556,1.2992,0.7215,0.005,0.0,0.0,0.0,0.0,-1.8327,-1.859,0.0,0.0,0.0,0.0,0.0,0.0,0.0,0.0,0.0,0.0,0.0,0.0,0.0,0.0,0.0,3.0898,0.0,0.0,0.0,0.0,0.0,0.0,0.0,0.0,0.0,0.0,0.0,0.0,3.0633,3.0623,3.06,3.0529,3.0498,3.0498,3.0439,3.0428,3.0463,3.0417,3.0355,0.0,0.0,0.0,0.0,0.0,0.0,0.0,0.0,0.0,0.0,0.0,0.0,0.0,0.0,0.0,0.0,0.0,0.0,0.0,0.0,0.0,0.0,0.0,0.0,0.0,0.0,0.0,0.0,0.0,0.0,0.0,0.0,0.0,0.0,0.0,0.0,0.0,0.0,2.4949,2.4101,2.4365,2.4477,2.4906,0.0,0.0,0.0,0.0,0.0,0.0,2.5613,2.531,2.4976,2.4745,2.4594,2.4307,2.4006,2.4544,2.4889,2.5051,2.4735,2.4792,2.5035,2.2836,2.1849,2.1773,1.9795,1.775,1.5763,1.4063,0.8731,0.1646,0.1266,-0.1591,-0.6146,-1.1565,-1.5039,-1.7472,0.0,0.0,0.0,0.0,0.0,0.0,0.0,0.0,0.0,0.0,0.0,0.0,0.0,0.0,3.0898,3.0898,3.0898,3.0898,0.0,0.0,0.0,0.0,0.0,0.0,0.0,0.0,0.0,3.0693,3.0693,3.0669,3.06,3.0529,3.0498,3.0498,3.0439,3.041,3.039,3.041,3.0254,3.0028,0.0,0.0,0.0,0.0,0.0,0.0,0.0,0.0,0.0,0.0,0.0,0.0,0.0,0.0,0.0,0.0,0.0,0.0,0.0,0.0,0.0,0.0,0.0,0.0,0.0,0.0,0.0,0.0,0.0,0.0,0.0,0.0,0.0,0.0,0.0,0.0,0.0,0.0,0.0,2.2016,2.2312,0.0,0.0,0.0,0.0,2.4275,2.3776,2.3208,2.2746,2.3705,2.4364,2.4506,2.5529,2.602,2.5889,2.4852,2.4601,2.5182,2.4109,2.424,2.5379,2.3306,2.2454,2.2512,2.0476,1.9178,1.8277,1.5099,1.0803,0.5848,0.1693,-0.2625,-0.6854,-0.9544,-1.3904,-1.8776,0.0,0.0,0.0,0.0,0.0,0.0,0.0,0.0,0.0,0.0,0.0,0.0,0.0,3.0898,3.0898,3.0898,3.0898,3.0898,3.0898,0.0,0.0,0.0,0.0,0.0,0.0,0.0,3.0879,3.0836,3.1383,3.1654,3.1645,3.2044,3.1948,3.1397,3.1292,3.0929,3.0398,3.0398,3.0254,3.0013,3.0103,3.0003,0.0,0.0,0.0,0.0,0.0,0.0,0.0,0.0,0.0,0.0,0.0,0.0,0.0,0.0,0.0,0.0,0.0,0.0,0.0,0.0,0.0,0.0,0.0,0.0,0.0,0.0,0.0,0.0,0.0,0.0,0.0,0.0,0.0,0.0,0.0,0.0,0.0,2.1697,2.1554,0.0,0.0,2.1935,2.1963,2.2542,2.2027,2.1949,2.2524,2.251,2.2963,2.39,2.3906,2.4447,2.5591,2.5235,2.5514,2.6458,2.4813,2.4281,2.4688,2.3602,2.3151,2.3109,2.1574,2.1004,2.1062,1.8177,1.4385,1.0456,0.9855,0.5731,-0.0217,-0.3141,-0.7367,-1.1912,0.0,0.0,0.0,0.0,0.0,0.0,0.0,0.0,0.0,0.0,0.0,3.0898,3.0898,3.0898,3.0898,3.0898,3.0898,3.0898,3.0898,0.0,0.0,0.0,0.0,0.0,0.0,3.0898,3.1035,3.1348,3.1914,3.2344,3.2617,3.3048,3.2756,3.189,3.1777,3.1237,3.0398,3.0398,3.0254,3.0013,3.0089,2.9958,2.9713,0.0,0.0,0.0,0.0,0.0,0.0,0.0,0.0,0.0,0.0,0.0,0.0,0.0,0.0,0.0,0.0,0.0,0.0,0.0,0.0,0.0,0.0,0.0,0.0,0.0,0.0,0.0,0.0,0.0,0.0,0.0,0.0,0.0,0.0,0.0,2.1315,2.1086,2.072,2.0633,2.1037,2.0867,2.0935,2.1345,2.1156,2.1445,2.2485,2.2358,2.2899,2.4189,2.4072,2.4538,2.5771,2.5771,2.6251,2.7266,2.5968,2.56,2.5986,2.4912,2.4554,2.4742,2.3197,2.2446,2.2226,2.0655,1.7801,1.4372,1.4778,1.1056,0.5308,0.3409,-0.0728,-0.6026,0.0,0.0,0.0,0.0,0.0,0.0,0.0,0.0,0.0,0.0,3.0898,3.0898,3.0898,3.0898,3.0898,3.0898,3.0898,3.0898,3.0898,3.0898,0.0,0.0,0.0,0.0,3.0937,3.0937,3.1367,3.2246,3.2266,3.2676,3.3437,3.3406,3.2881,3.1974,3.1883,3.1313,3.0436,3.0398,3.0254,3.0028,3.0299,3.0114,2.9713,0.0,0.0,0.0,0.0,0.0,0.0,0.0,0.0,0.0,0.0,0.0,0.0,0.0,0.0,0.0,0.0,0.0,0.0,0.0,0.0,0.0,0.0,0.0,0.0,0.0,0.0,0.0,0.0,0.0,0.0,0.0,0.0,0.0,2.2597,2.2448,2.1788,2.0055,1.9823,1.9836,1.9849,2.0363,2.0743,2.0743,2.1192,2.1759,2.2335,2.3148,2.4152,2.548,2.6194,2.6553,2.6549,2.6563,2.6872,2.741,2.741,2.81,2.9255,2.7235,2.6683,2.7256,2.5257,2.3365,2.1753,2.2464,2.0732,1.7511,1.5759,1.2555,0.9059,0.9781,0.5471,-0.1724,0.0,0.0,0.0,0.0,0.0,0.0,0.0,0.0,0.0,0.0,3.0898,3.0898,3.0898,3.0898,3.0898,3.0898,3.0898,3.0898,3.0898,0.0,0.0,0.0,0.0,0.0,3.1836,3.1836,3.2246,3.3066,3.3691,3.4121,3.4355,3.4925,3.469,3.3745,3.3048,3.2222,3.1295,3.0679,3.0355,3.0267,3.015,2.9864,2.9474,0.0,0.0,0.0,0.0,0.0,0.0,0.0,0.0,0.0,0.0,0.0,0.0,0.0,0.0,0.0,0.0,0.0,0.0,0.0,0.0,0.0,0.0,0.0,0.0,0.0,0.0,0.0,0.0,0.0,0.0,0.0,0.0,2.4747,2.2249,2.154,2.105,2.0534,2.0426,2.0589,2.0978,2.1167,2.1267,2.1267,2.1405,2.1713,2.2274,2.2526,2.3477,2.5394,2.5624,2.6256,2.7306,2.773,2.8046,2.8176,2.7674,2.761,2.7954,2.733,2.6893,2.6592,2.6594,2.5702,2.4185,2.3994,2.2272,1.9598,1.8803,1.597,1.2497,1.3261,0.9225,0.2646,0.0,0.0,0.0,0.0,0.0,0.0,0.0,0.0,0.0,0.0,3.0898,3.0898,3.0898,3.0898,3.0898,3.0898,3.0898,3.0898,3.0898,0.0,0.0,0.0,0.0,3.168,3.2187,3.2539,3.3105,3.3945,3.4453,3.4883,3.5254,3.5717,3.5431,3.4484,3.393,3.2948,3.1679,3.116,3.0737,3.0398,3.0222,2.9958,2.9643,2.9643,2.9436,2.9178,2.9178,2.9089,2.8994,2.8994,0.0,0.0,0.0,0.0,0.0,0.0,0.0,0.0,0.0,0.0,0.0,0.0,0.0,0.0,0.0,0.0,0.0,0.0,0.0,0.0,0.0,0.0,0.0,0.0,2.6077,2.5224,2.2825,2.2165,2.1859,2.1534,2.1208,2.1142,2.1455,2.1694,2.1832,2.1832,2.2046,2.2322,2.2636,2.2941,2.3809,2.5329,2.5398,2.6108,2.7575,2.763,2.783,2.814,2.77,2.762,2.7853,2.7303,2.7208,0.0,2.7161,2.6231,2.4961,2.4776,2.323,0.0,0.0,0.0,0.0,0.0,1.2447,0.8609,0.0,0.0,0.0,0.0,0.0,0.0,0.0,0.0,0.0,0.0,0.0,3.0898,3.0898,3.0898,3.0898,3.0898,3.0898,3.0898,0.0,0.0,0.0,3.1035,3.1797,3.2285,3.248,3.3184,3.3965,3.4844,3.4844,3.5234,3.5996,3.5996,3.5513,3.4658,3.4549,3.3572,3.1973,3.1788,3.1256,3.0533,3.0436,3.0241,2.9999,2.9999,2.9763,2.9434,2.9412,2.9246,2.904,2.9017,0.0,0.0,0.0,0.0,0.0,0.0,0.0,0.0,0.0,0.0,0.0,0.0,0.0,0.0,0.0,0.0,0.0,0.0,0.0,0.0,0.0,0.0,0.0,0.0,2.5839,2.5427,2.4207,2.3951,2.3612,2.2683,2.2001,2.1606,2.1669,2.2121,2.2397,2.2397,2.2862,2.3078,2.3078,0.0,0.0,0.0,0.0,2.6108,2.7575,2.7071,2.7122,2.771,2.776,2.8076,2.8559,2.7312,2.762,2.9102,2.7385,2.5879,2.4717,2.5317,2.4115,2.1978,2.1853,2.0673,1.8778,1.6623,1.5543,1.4678,0.0,0.0,0.0,0.0,0.0,0.0,0.0,0.0,0.0,3.0898,3.0898,3.0898,3.0898,3.0898,3.0898,3.0898,3.0898,3.0898,0.0,0.0,3.1211,3.1914,3.2109,3.2832,3.4199,3.4375,3.4883,3.5742,3.5742,3.582,3.5996,3.5996,3.5873,3.5596,3.4845,3.4245,3.3712,3.2297,3.1602,3.1391,3.0679,3.0241,2.9999,2.9999,2.9845,2.9626,2.9454,2.9372,2.9289,2.9067,2.8952,2.8791,2.8183,0.0,0.0,0.0,0.0,0.0,0.0,0.0,0.0,0.0,0.0,0.0,0.0,0.0,0.0,0.0,0.0,0.0,0.0,0.0,0.0,2.7418,2.7186,2.7136,2.687,2.6292,2.5075,2.2629,2.2204,2.2334,2.2774,2.2852,2.2975,2.2975,2.3015,2.3078,2.3078,2.3245,0.0,2.5342,2.5398,2.6108,2.7575,2.8417,2.867,2.8319,0.0,0.0,2.918,2.8432,2.7966,2.7807,2.8497,2.7411,2.5265,2.6889,2.6278,2.4238,2.3323,2.2164,2.1083,2.1513,1.9378,1.6216,0.0,0.0,0.0,0.0,0.0,0.0,0.0,0.0,0.0,0.0,3.0898,3.0898,3.0898,3.0898,3.0898,3.0898,3.0898,0.0,0.0,3.1309,3.1738,3.2187,3.3008,3.3848,3.4687,3.5137,3.5566,3.5996,3.5996,3.5996,3.5996,3.5996,3.5953,3.588,3.5338,3.4797,3.4206,3.2868,3.2064,3.1621,3.0756,3.0311,3.0196,3.0196,3.0047,2.9829,2.9607,2.9493,2.9372,2.9089,2.8994,2.8905,2.8334,2.8156,2.8217,0.0,0.0,0.0,0.0,0.0,0.0,0.0,0.0,0.0,0.0,0.0,0.0,0.0,0.0,3.0021,0.0,0.0,2.8638,2.776,2.7625,2.7458,2.7086,2.639,2.5452,2.404,2.3514,2.3237,2.31,2.3078,2.3078,2.3078,2.3078,2.3245,2.3649,2.3708,2.4221,2.5342,2.5398,2.5946,2.7034,2.7635,2.8128,2.8511,2.8826,2.9088,2.9406,2.9088,2.8748,2.8403,2.8716,2.7736,2.5948,2.6424,2.5839,2.4674,2.5578,2.4594,2.2834,2.3581,2.2569,2.0871,0.0,0.0,0.0,0.0,0.0,0.0,0.0,0.0,0.0,0.0,3.0898,3.0898,3.0898,3.0898,3.0898,0.0,0.0,0.0,0.0,3.1562,3.209,3.2422,3.373,3.4609,3.4941,3.5644,3.5996,3.5996,3.5996,3.5996,3.5996,3.5996,3.5953,3.588,3.5761,3.5263,3.4477,3.3369,3.2526,3.1833,3.0814,3.0398,3.0398,3.0398,3.0267,3.0047,2.9848,2.9644,2.9414,2.916,2.9044,2.8929,2.854,2.8371,2.8467,2.906,2.9562,0.0,0.0,0.0,0.0,0.0,0.0,0.0,0.0,0.0,3.0123,3.0123,2.9717,2.9225,2.8606,2.8511,2.8319,2.771,2.7625,2.7408,2.6774,2.6054,2.5563,2.5398,2.4624,2.3826,2.3125,2.3078,2.3078,2.3078,2.3238,2.353,2.423,2.4511,2.4905,2.5521,2.5744,2.6127,2.6721,2.6811,2.7363,2.8334,2.8559,2.8919,2.9406,2.9406,2.9406,2.9345,2.8372,2.7489,2.6765,2.5897,2.5302,2.5139,2.7639,2.716,2.515,2.5462,2.557,2.5652,0.0,0.0,0.0,0.0,0.0,0.0,0.0,0.0,0.0,0.0,0.0,0.0,0.0,0.0,0.0,0.0,0.0,0.0,3.0898,3.0996,3.1719,3.3203,3.3457,3.4277,3.582,3.5957,3.5996,3.5996,3.5996,3.5996,3.5996,3.5996,3.5953,3.588,3.5761,3.5613,3.5349,3.3639,3.2852,3.2622,3.1044,3.0398,3.0398,3.0398,3.0367,3.0311,3.0061,2.9829,2.9625,2.9434,2.92,2.8929,2.854,2.9105,2.997,3.0053,0.0,3.1288,3.2148,3.2109,3.1696,3.1291,3.0797,3.0393,0.0,0.0,2.9496,2.9496,2.9451,2.9225,2.8606,2.8511,2.8319,2.771,2.7625,2.7575,2.7509,2.6826,2.6122,2.5453,2.4105,2.3198,2.3138,2.3078,2.3078,2.3078,2.3615,2.3966,2.4028,2.5192,2.5935,2.6112,2.689,2.7341,2.7473,2.8027,2.8076,2.771,2.8764,2.9316,2.9406,2.9406,2.9406,2.9297,2.742,2.7087,2.7891,2.7169,2.7094,2.7511,2.8535,2.9179,2.9516,2.9604,2.875,2.7769,0.0,0.0,0.0,0.0,0.0,0.0,0.0,0.0,0.0,0.0,0.0,0.0,0.0,0.0,0.0,0.0,0.0,0.0,3.0898,3.1367,3.1973,3.2676,3.3633,3.4492,3.5234,3.5742,3.5996,3.5996,3.5996,3.5996,3.5996,3.5996,3.5953,3.588,3.5761,3.538,3.4749,3.3446,3.2622,3.2102,3.0891,3.0398,3.0398,3.0398,3.0398,3.0355,2.9958,2.9763,0.0,0.0,2.9089,2.8929,2.854,2.9065,2.9906,3.0119,3.0747,0.0,3.1951,3.1951,0.0,0.0,3.1015,3.0821,3.0821,3.0351,2.9935,2.9935,2.9361,2.8779,2.8559,2.8222,2.7894,0.0,2.7625,2.7625,2.7625,2.6982,2.6229,2.5508,2.4439,2.359,2.3138,2.3078,2.3078,2.3078,2.4102,2.4896,2.5388,2.6672,2.7311,2.6947,2.7733,2.7762,2.6997,2.7645,2.8042,2.814,2.8638,2.9042,2.9406,2.9761,3.0123,3.0402,2.9172,2.8728,2.8784,2.8715,2.8423,2.8209,2.9782,3.0691,3.1082,3.0691,3.0427,3.0437,0.0,0.0,0.0,0.0,0.0,0.0,0.0,0.0,0.0,0.0,0.0,0.0,0.0,0.0,0.0,0.0,0.0,0.0,0.0,3.1484,3.1953,3.2187,3.3359,3.4101,3.4336,3.4961,3.5273,3.5273,3.5273,3.5273,3.5273,3.5273,3.5247,3.5158,3.5054,3.4606,3.3845,3.294,3.2237,3.1621,3.0756,3.0398,3.0398,3.0398,3.0398,3.0355,3.0007,2.9815,0.0,0.0,2.9263,2.9282,2.8985,2.9606,3.0451,3.063,3.116,3.1727,3.1776,0.0,0.0,3.1291,3.1055,3.0958,3.0958,3.0477,2.9978,2.9848,2.9088,2.8463,2.8271,2.7894,0.0,2.7625,2.7625,2.7625,2.7625,2.6982,2.6283,2.5783,2.5063,2.4394,2.3813,2.3531,2.3531,2.3695,2.4998,2.6004,2.6602,2.8082,2.8569,2.7734,2.8459,2.8233,2.6841,2.7357,2.791,2.8511,2.8511,2.8919,2.9673,3.0123,3.0518,3.0918,3.0261,2.984,2.9559,2.9888,2.9587,2.9084,3.1034,3.2008,3.2226,3.1773,3.2008,3.2657,0.0,0.0,0.0,0.0,0.0,0.0,0.0,0.0,0.0,0.0,0.0,0.0,0.0,0.0,0.0,0.0,0.0,0.0,0.0,3.0918,3.1328,3.2168,3.2246,3.2637,3.3418,3.3476,3.3476,3.3476,3.3476,3.3476,3.3476,3.3476,3.3402,3.3278,3.3271,3.3139,3.2904,3.2083,3.1718,3.1621,3.0756,3.0398,3.0398,3.0398,3.0398,3.0398,3.0367,0.0,0.0,0.0,2.9899,3.0173,3.0149,3.1231,0.0,3.2061,3.2197,0.0,0.0,0.0,3.1696,3.1291,3.0757,3.0351,3.0351,2.9848,2.9271,2.8701,2.8511,2.8319,2.771,2.761,2.7625,2.7625,2.7625,2.7625,2.7625,2.6982,2.651,2.6457,2.5837,2.5342,0.0,2.4681,2.4567,2.5287,2.6445,2.7166,2.7166,2.9103,2.9635,2.834,2.9138,2.8906,2.759,2.7575,2.791,2.8511,2.8511,2.9134,3.0251,3.0293,3.0293,3.0302,2.9535,2.9536,3.0108,3.0523,3.0647,3.0785,3.2286,3.3146,3.3558,3.3809,3.391,3.408,0.0,0.0,0.0,0.0,0.0,0.0,0.0,0.0,0.0,0.0,0.0,0.0,0.0,0.0,0.0,0.0,0.0,0.0,0.0,3.0898,3.1035,3.1328,3.1894,3.2324,3.2598,3.3125,3.3398,3.3398,3.3398,3.3398,3.3398,3.3354,3.3282,3.3193,3.3157,3.2745,3.2083,3.1814,3.1371,3.0814,3.0513,3.0398,3.0398,3.0398,3.0398,3.0398,0.0,0.0,0.0,2.9589,2.9934,3.0428,3.0262,3.1311,3.2627,3.2759,3.2877,3.2777,0.0,0.0,3.1696,3.1291,3.1055,3.0878,3.0878,3.074,3.0435,2.9805,2.9361,2.8919,2.8319,2.786,2.7625,2.7625,2.7625,2.7625,2.7625,2.7408,2.7034,2.6563,2.6283,0.0,0.0,0.0,0.0,2.6021,2.7243,2.8182,2.8653,3.0236,3.0497,2.9197,2.9456,2.8936,2.7625,2.7625,2.771,2.791,2.8334,2.9134,3.0293,3.0293,3.0673,3.127,3.0735,3.0789,3.1261,3.1725,3.1707,3.1568,3.2877,3.3584,3.39,3.4221,3.4632,3.5086,0.0,0.0,0.0,0.0,0.0,0.0,0.0,0.0,0.0,0.0,0.0,0.0,0.0,0.0,0.0,0.0,0.0,0.0,0.0,0.0,3.0898,3.0898,3.1445,3.1738,3.1738,3.2246,3.2519,3.2519,3.2519,3.248,3.2438,3.2385,3.2318,3.2232,3.2189,3.1806,3.1237,3.1237,3.091,3.0398,3.0398,3.0398,3.0398,3.0398,3.0398,0.0,0.0,0.0,0.0,2.9626,3.0182,3.0987,3.0709,3.1733,3.3048,3.3158,3.3214,3.3014,3.2057,3.1789,3.1696,3.1291,3.119,3.119,3.119,3.119,3.0975,3.0166,2.9848,2.9451,2.8654,2.8189,2.7894,2.7894,2.776,2.7625,2.7625,2.7625,2.7408,2.693,2.6878,0.0,0.0,0.0,0.0,2.7128,2.819,2.911,2.9739,3.0669,3.0672,2.9609,2.9355,2.8697,2.7625,2.781,2.8042,2.8271,2.8857,2.954,3.0293,3.0518,3.0948,3.1565,3.147,3.1565,3.1861,3.2484,3.2565,3.2398,3.356,3.4106,3.4298,3.4735,3.5218,3.5629,0.0,0.0,0.0,0.0,0.0,0.0,0.0,0.0,0.0,0.0,0.0,0.0,0.0,0.0,0.0,0.0,0.0,0.0,0.0,0.0,0.0,3.0898,3.0898,3.0898,3.0898,3.0898,3.0898,3.0898,3.0898,3.0817,3.0696,3.069,3.0614,3.0498,3.049,3.0462,3.0398,3.0398,3.0398,3.0398,3.0398,3.0398,3.0398,3.0398,0.0,0.0,0.0,0.0,0.0,0.0,0.0,0.0,0.0,3.2559,3.3707,3.3273,3.3154,3.2983,3.2022,3.1789,3.166,3.1291,3.119,3.119,3.119,3.119,3.0878,2.9673,2.9892,2.9935,0.0,0.0,2.8511,2.8463,2.7944,2.7625,2.7625,2.7625,2.7625,0.0,0.0,0.0,0.0,0.0,0.0,2.8697,0.0,2.9933,3.0518,3.0548,3.0248,2.9657,2.9012,2.8366,2.7725,2.8271,2.8826,2.9451,2.9995,3.0293,3.0335,3.0918,3.119,3.1252,3.1623,3.1808,3.1915,3.284,3.3214,3.3314,3.4315,3.4714,3.4813,3.5393,3.5646,3.571,0.0,0.0,0.0,0.0,0.0,0.0,0.0,0.0,0.0,0.0,0.0,0.0,0.0,0.0,0.0,0.0,0.0,0.0,0.0,0.0,0.0,0.0,0.0,0.0,0.0,0.0,0.0,0.0,3.0793,3.0723,3.0693,3.0606,3.0537,3.0498,3.0451,3.0425,3.0398,3.0398,3.0398,3.0398,0.0,3.0398,3.0398,0.0,0.0,0.0,0.0,0.0,0.0,0.0,0.0,0.0,0.0,3.3222,3.356,3.2482,3.24,3.2484,3.1582,3.1351,3.1312,3.123,3.119,3.119,3.119,3.119,3.0975,3.0208,3.0208,2.9935,0.0,0.0,0.0,2.791,2.771,0.0,2.7625,2.7625,0.0,0.0,0.0,2.8338,2.8338,2.8936,0.0,0.0,3.0178,3.0533,3.1144,3.1144,3.0871,3.0207,3.0036,2.9611,2.895,2.9088,2.9496,3.0081,2.9761,3.0123,3.0975,3.0658,3.0948,3.166,3.1752,3.1986,3.2384,3.2952,3.3306,3.357,3.4383,3.485,3.5134,3.5534,3.5685,3.5717,0.0,0.0,0.0,0.0,0.0,0.0,0.0,0.0,0.0,0.0,0.0,0.0,0.0,0.0,0.0,0.0,0.0,0.0,0.0,0.0,0.0,0.0,0.0,0.0,0.0,0.0,0.0,0.0,0.0,0.0,0.0,3.0537,3.0472,3.0452,3.0425,3.0398,3.0398,3.0398,0.0,0.0,0.0,0.0,0.0,0.0,0.0,0.0,0.0,0.0,0.0,0.0,0.0,3.1609,3.2824,3.3494,3.3578,3.2433,0.0,3.2616,3.1714,3.147,3.1411,3.1252,3.119,3.119,3.119,3.119,3.1015,3.0435,3.0518,0.0,0.0,0.0,0.0,0.0,0.0,0.0,2.7625,2.7625,2.7679,0.0,2.8368,0.0,2.9011,2.9609,3.0298,0.0,3.0659,3.0659,3.0997,3.1028,3.0705,3.0021,2.9973,2.9897,2.9821,2.954,2.9848,3.0699,3.0269,3.0452,3.119,3.1027,3.1249,3.1825,0.0,3.2431,3.3015,3.3459,3.3817,3.4144,3.4676,3.5024,3.5239,3.5568,3.5697,3.5702,0.0,0.0,0.0,0.0,0.0,0.0,0.0,0.0,0.0,0.0,0.0,0.0,0.0,0.0,0.0,0.0,0.0,0.0,0.0,0.0,0.0,0.0,0.0,0.0,0.0,0.0,0.0,0.0,0.0,0.0,0.0,0.0,0.0,0.0,0.0,0.0,0.0,0.0,0.0,0.0,0.0,0.0,0.0,0.0,0.0,0.0,0.0,0.0,0.0,0.0,3.1359,3.1532,3.2795,3.3437,3.3578,3.2745,3.2809,3.3014,3.2127,3.188,3.1789,3.1449,3.1329,3.1291,3.1291,3.123,3.1055,3.0518,0.0,0.0,3.0435,0.0,2.9451,2.9316,0.0,2.766,2.761,2.7625,2.785,2.8397,2.8622,2.9004,2.9666,3.0373,3.1055,3.1809,3.1258,3.087,3.0743,3.0747,3.0435,2.9735,2.9681,2.9892,3.0418,2.9892,3.0166,3.119,3.106,3.1099,3.1291,3.1696,3.188,3.1915,0.0,0.0,3.3613,3.4018,3.4423,3.4774,3.5015,3.5181,3.5295,3.5597,3.5695,3.5696,0.0,0.0,0.0,0.0,0.0,0.0,0.0,0.0,0.0,0.0,0.0,0.0,0.0,0.0,0.0,0.0,0.0,0.0,0.0,0.0,0.0,0.0,0.0,0.0,0.0,0.0,0.0,0.0,0.0,0.0,0.0,0.0,0.0,0.0,0.0,0.0,0.0,0.0,0.0,0.0,0.0,0.0,0.0,0.0,0.0,0.0,0.0,0.0,0.0,0.0,3.118,3.1165,3.2708,3.3243,3.3214,3.2648,3.2809,3.3075,3.2517,3.2384,3.235,3.2282,3.1968,3.1696,3.1785,3.1483,0.0,0.0,0.0,3.1015,3.0435,3.0208,0.0,2.8826,0.0,0.0,0.0,0.0,2.767,0.0,0.0,0.0,0.0,0.0,0.0,0.0,0.0,3.2793,3.2094,3.2057,3.1724,3.0933,3.0905,3.0935,3.1055,3.0935,3.1015,3.119,3.1511,3.1662,3.1733,3.2179,3.2384,3.2417,3.2872,0.0,3.3613,3.4018,3.4532,3.5051,3.5128,3.5369,3.5624,3.5678,3.5695,3.5696,0.0,0.0,0.0,0.0,0.0,0.0,0.0,0.0,0.0,0.0,0.0,0.0,0.0,0.0,0.0,0.0,0.0,0.0,0.0,0.0,0.0,0.0,0.0,0.0,0.0,0.0,0.0,0.0,0.0,0.0,0.0,0.0,0.0,0.0,0.0,0.0,0.0,0.0,0.0,0.0,0.0,0.0,0.0,0.0,0.0,0.0,0.0,0.0,0.0,0.0,3.0782,3.1042,3.2406,3.3014,3.3124,3.2648,3.2965,3.3419,3.2983,3.284,3.2827,3.255,3.2144,3.1861,3.2162,0.0,0.0,0.0,0.0,3.1112,3.0838,0.0,0.0,0.0,0.0,0.0,0.0,0.0,0.0,0.0,0.0,0.0,0.0,0.0,0.0,0.0,0.0,3.308,3.1978,3.1504,3.1248,3.1207,3.1411,3.1507,3.1507,3.1507,3.164,3.1896,3.2074,3.2161,3.2161,3.2648,3.2929,3.3069,3.331,0.0,3.4395,3.4597,3.4906,3.53,3.538,3.5503,3.5661,3.5699,3.5685,3.5638,0.0,0.0,0.0,0.0,0.0,0.0,0.0,0.0,0.0,0.0,0.0,0.0,0.0,0.0,0.0,0.0,0.0,0.0,0.0,0.0,0.0,0.0,0.0,0.0,0.0,0.0,0.0,0.0,0.0,0.0,0.0,0.0,0.0,0.0,0.0,0.0,0.0,0.0,0.0,0.0,0.0,0.0,0.0,0.0,0.0,0.0,0.0,0.0,0.0,0.0,3.06,3.1013,3.2264,3.2921,3.3136,3.2872,3.3255,3.3734,3.3419,3.3332,3.3243,3.2872,3.2433,3.2196,3.2583,3.2056,0.0,0.0,3.1545,3.1291,3.123,0.0,0.0,0.0,0.0,0.0,0.0,0.0,0.0,0.0,0.0,0.0,0.0,0.0,0.0,0.0,0.0,0.0,3.1748,3.0942,3.0699,3.119,3.1603,3.1789,3.1789,3.188,3.2144,3.2484,3.2616,3.2648,3.2648,3.3105,3.3478,3.3736,3.3736,0.0,0.0,3.5105,3.527,3.5515,3.5573,3.5606,3.5628,3.5661,3.565,3.56,0.0,0.0,0.0,0.0,0.0,0.0,0.0,0.0,0.0,0.0,0.0,0.0,0.0,0.0,0.0,0.0,0.0,0.0,0.0,0.0,0.0,0.0,0.0,0.0,0.0,0.0,0.0,0.0,0.0,0.0,0.0,0.0,0.0,0.0,0.0,0.0,0.0,0.0,0.0,0.0,0.0,0.0,0.0,0.0,0.0,0.0,0.0,0.0,0.0,0.0,0.0,3.107,3.2649,3.3184,3.3273,3.3578,0.0,0.0,3.3734,3.3734,3.3734,3.3707,3.339,3.3075,3.3124,0.0,0.0,3.1897,3.1789,3.1623,3.1252,3.1151,0.0,0.0,0.0,0.0,0.0,0.0,0.0,0.0,0.0,0.0,0.0,0.0,0.0,0.0,0.0,0.0,3.2235,3.1533,3.1151,3.119,3.1603,3.1789,3.1789,3.223,3.2451,3.2517,3.2952,3.3154,3.3154,3.355,3.3884,3.4134,3.4134,0.0,0.0,3.5105,3.5283,3.5591,3.5605,3.5645,3.5683,3.5619,3.5602,3.559,0.0,0.0,0.0,0.0,0.0,0.0,0.0,0.0,0.0,0.0,0.0,0.0,0.0,0.0,0.0,0.0,0.0,0.0,0.0,0.0,0.0,0.0,0.0,0.0,0.0,0.0,0.0,3.015,3.015,0.0,0.0,0.0,0.0,0.0,0.0,0.0,0.0,0.0,0.0,0.0,0.0,0.0,0.0,0.0,0.0,0.0,0.0,0.0,0.0,0.0,0.0,0.0,3.2639,3.3168,0.0,0.0,3.3606,3.3807,3.3807,3.3807,3.3807,3.3807,3.3494,3.3273,3.3494,0.0,0.0,3.2264,3.2004,3.166,3.1252,3.119,3.1112,0.0,0.0,0.0,0.0,0.0,0.0,0.0,0.0,0.0,0.0,0.0,0.0,0.0,0.0,0.0,3.2029,3.172,3.1449,3.119,3.2144,3.25,3.223,3.2681,3.3027,3.3284,3.3243,3.3332,3.3578,3.3891,3.4213,3.4508,3.4656,0.0,0.0,3.5372,3.5481,3.5602,3.5642,3.5644,3.5642,3.5605,3.5577,3.5509,0.0,0.0,0.0,0.0,0.0,0.0,0.0,0.0,0.0,0.0,0.0,0.0,0.0,0.0,0.0,0.0,0.0,0.0,0.0,0.0,0.0,0.0,0.0,0.0,0.0,0.0,0.0,2.9908,2.9908,2.9845,0.0,0.0,2.9696,2.9696,0.0,0.0,0.0,0.0,0.0,0.0,0.0,0.0,0.0,0.0,0.0,0.0,0.0,0.0,0.0,0.0,0.0,0.0,0.0,0.0,0.0,0.0,3.3578,3.3807,3.3807,3.3807,3.3807,3.3807,3.3578,3.3447,0.0,0.0,3.284,3.2745,3.2332,3.1861,3.1449,3.1291,3.119,3.119,0.0,3.1179,0.0,0.0,0.0,0.0,0.0,0.0,0.0,0.0,0.0,0.0,0.0,0.0,0.0,3.2127,3.2039,3.16,3.2648,3.3045,3.2713,3.3136,3.356,3.391,3.3634,3.3688,3.4062,3.4242,3.451,3.4832,0.0,0.0,0.0,3.5588,3.562,3.5632,3.566,3.5639,3.5599,3.5573,3.5496,3.5354,0.0,0.0,0.0,0.0,0.0,0.0,0.0,0.0,0.0,0.0,0.0,0.0,0.0,0.0,0.0,0.0,0.0,0.0,0.0,0.0,0.0,0.0,0.0,0.0,0.0,0.0,0.0,2.9713,2.9713,2.9713,2.9696,2.9696,2.9696,2.9696,0.0,0.0,0.0,0.0,0.0,0.0,0.0,0.0,0.0,0.0,0.0,0.0,0.0,0.0,0.0,0.0,0.0,0.0,0.0,3.3788,3.3807,0.0,3.3807,3.3807,3.3807,3.3807,3.3807,3.3807,3.3807,3.3788,0.0,0.0,3.3662,3.3273,3.2809,3.235,3.1897,3.147,3.119,3.119,3.1528,0.0,0.0,0.0,0.0,0.0,0.0,0.0,0.0,0.0,0.0,0.0,0.0,0.0,0.0,3.2952,3.2983,3.2484,3.2952,3.3184,3.3184,3.3578,3.391,3.4218,3.4176,3.4379,3.4694,3.4694,3.4832,0.0,0.0,0.0,0.0,3.5611,3.5645,3.5683,3.5625,3.5606,3.56,3.5534,3.532,3.5105,0.0,0.0,0.0,0.0,0.0,0.0,0.0,0.0,0.0,0.0,0.0,0.0,0.0,0.0,0.0,0.0,0.0,0.0,0.0,0.0,0.0,0.0,0.0,0.0,0.0,0.0,2.9625,2.9494,2.9221,2.9116,2.9209,2.8712,2.8735,2.9206,2.886,0.0,0.0,0.0,0.0,0.0,0.0,0.0,0.0,0.0,0.0,0.0,0.0,0.0,0.0,0.0,0.0,0.0,0.0,0.0,0.0,3.3807,3.3807,0.0,3.3807,3.3807,3.3807,3.3807,3.3807,3.3807,3.3807,0.0,3.368,3.3273,3.3075,3.2858,3.2366,3.2179,3.2092,3.2092,3.2179,0.0,0.0,0.0,0.0,0.0,0.0,0.0,0.0,0.0,0.0,0.0,0.0,0.0,0.0,3.339,3.3255,3.2517,3.3225,3.3494,3.3214,3.3768,3.4123,3.42,3.4423,3.4612,3.4714,3.4935,0.0,0.0,0.0,0.0,0.0,3.5641,3.5671,3.5683,3.5638,3.56,3.556,3.5307,3.5155,3.5034,0.0,0.0,0.0,0.0,0.0,0.0,0.0,0.0,0.0,0.0,0.0,0.0,0.0,0.0,0.0,0.0,0.0,0.0,0.0,0.0,0.0,0.0,0.0,0.0,0.0,2.9037,2.8946,2.8819,2.8591,2.8511,2.8558,2.812,2.8147,2.8558,2.8316,0.0,0.0,0.0,0.0,0.0,0.0,0.0,2.8994,0.0,0.0,0.0,0.0,0.0,0.0,0.0,0.0,0.0,0.0,0.0,0.0,0.0,3.3961,3.3928,0.0,3.3876,3.3928,3.3815,3.3807,0.0,0.0,0.0,3.3734,3.3494,3.3302,3.3105,3.2809,3.2616,3.2484,3.2484,3.2648,0.0,0.0,0.0,0.0,0.0,0.0,0.0,0.0,0.0,0.0,0.0,0.0,0.0,0.0,3.3813,3.3768,3.333,3.3625,3.3743,3.3561,3.4006,3.4315,3.4534,3.4735,3.4925,3.504,3.5257,0.0,0.0,0.0,0.0,0.0,3.5708,3.57,3.5695,3.5624,3.5527,3.5393,3.5184,3.4944,3.4696,0.0,0.0,0.0,0.0,0.0,0.0,0.0,0.0,0.0,0.0,0.0,0.0,0.0,0.0,0.0,0.0,0.0,0.0,0.0,0.0,0.0,0.0,0.0,0.0,0.0,2.7897,2.7897,2.7897,2.7869,2.7869,2.7897,2.784,2.784,2.7897,2.7869,2.7869,2.7926,2.8237,2.8565,2.8929,2.8952,2.897,0.0,0.0,0.0,0.0,0.0,0.0,0.0,0.0,0.0,0.0,0.0,0.0,0.0,0.0,0.0,0.0,0.0,0.0,0.0,0.0,0.0,0.0,0.0,0.0,0.0,0.0,3.3494,3.3243,3.3243,3.2872,3.2583,3.2583,3.2952,0.0,0.0,0.0,0.0,0.0,0.0,0.0,0.0,0.0,0.0,0.0,0.0,0.0,0.0,3.4223,3.4379,3.4694,3.416,3.3986,3.4223,3.4246,3.4553,3.5105,3.5119,3.5297,3.5611,3.5611,0.0,0.0,0.0,0.0,0.0,3.5779,3.5718,3.5696,3.5611,3.5393,3.5105,3.5051,3.4676,3.42,0.0,0.0,0.0,0.0,0.0,0.0,0.0,0.0,0.0,0.0,0.0,0.0,0.0,0.0,0.0,0.0,0.0,0.0,0.0,0.0,0.0,0.0,0.0,0.0,0.0,2.7897,2.7897,2.7897,2.7589,2.7589,2.7897,2.7272,2.7303,2.7897,2.756,2.7589,2.7897,2.7964,2.8065,2.8174,2.8438,2.854,0.0,0.0,0.0,0.0,3.1604,3.2284,0.0,0.0,0.0,0.0,0.0,0.0,0.0,0.0,3.4213,3.4508,3.4195,0.0,3.4572,3.4486,3.4307,0.0,0.0,0.0,0.0,0.0,0.0,0.0,0.0,0.0,0.0,0.0,0.0,0.0,0.0,0.0,0.0,0.0,0.0,0.0,0.0,0.0,0.0,0.0,0.0,0.0,0.0,3.4445,3.4632,3.4694,3.4569,3.4526,3.4572,3.4774,3.4962,3.5105,3.5366,3.5527,3.5621,3.5768,0.0,0.0,0.0,0.0,3.5907,3.5876,3.5786,3.567,3.5392,3.5211,3.5034,3.4576,3.4315,3.4171,0.0,0.0,0.0,0.0,0.0,0.0,0.0,0.0,0.0,0.0,0.0,0.0,0.0,0.0,0.0,0.0,0.0,0.0,0.0,0.0,0.0,0.0,0.0,0.0,2.7348,2.7348,2.7348,2.7348,2.7115,2.7147,2.7317,2.6906,2.6939,2.7317,2.7115,2.7241,2.7619,2.7619,2.7725,2.7926,2.8264,0.0,0.0,0.0,0.0,0.0,3.2302,3.2852,0.0,3.3642,3.3807,3.3807,0.0,0.0,0.0,0.0,3.4529,3.487,3.4813,3.4832,3.4851,3.4714,3.4551,3.4423,0.0,0.0,0.0,0.0,0.0,0.0,0.0,0.0,0.0,0.0,0.0,0.0,0.0,0.0,0.0,0.0,0.0,0.0,0.0,0.0,0.0,0.0,0.0,0.0,0.0,3.4774,3.4944,3.507,3.507,3.4999,3.487,3.5035,3.5184,3.5325,3.5516,3.565,3.5735,3.5856,3.588,0.0,0.0,0.0,3.593,3.5851,3.5766,3.5689,3.5423,3.5239,3.5053,3.4614,3.4334,3.4152,0.0,0.0,0.0,0.0,0.0,0.0,0.0,0.0,0.0,0.0,0.0,0.0,0.0,0.0,0.0,0.0,0.0,0.0,0.0,0.0,0.0,0.0,0.0,2.6691,2.6691,2.6691,2.6691,2.6691,2.6691,2.6691,2.6691,2.6691,2.6691,2.6691,2.6691,2.6906,2.721,2.721,2.7426,2.7754,2.8291,0.0,0.0,0.0,0.0,0.0,0.0,0.0,0.0,3.3807,3.3807,3.3807,3.3842,0.0,0.0,0.0,0.0,0.0,3.5369,3.5273,3.507,3.487,3.4774,3.4734,0.0,0.0,0.0,0.0,0.0,0.0,0.0,0.0,0.0,0.0,0.0,0.0,0.0,0.0,0.0,0.0,0.0,0.0,0.0,0.0,0.0,0.0,0.0,0.0,0.0,3.5138,3.5273,3.5493,3.5515,3.5407,3.5184,3.5184,3.5311,3.5611,3.5631,3.5748,3.5903,3.591,3.5947,0.0,0.0,0.0,3.5974,3.5797,3.571,3.5667,3.5507,3.5285,3.4999,3.4734,3.442,3.4099,0.0,0.0,0.0,0.0,0.0,0.0,0.0,0.0,0.0,0.0,0.0,0.0,0.0,0.0,0.0,0.0,0.0,0.0,0.0,0.0,0.0,0.0,2.6691,2.6691,2.6691,2.6691,2.6691,2.6691,2.6691,2.6691,2.6691,2.6691,2.6691,2.6691,2.6691,2.6725,2.6791,2.6791,2.6841,2.7023,2.8423,0.0,0.0,0.0,0.0,0.0,0.0,0.0,0.0,3.3807,3.3807,3.3842,3.4068,0.0,0.0,0.0,0.0,0.0,3.5138,3.5122,3.5138,3.532,3.5207,3.4981,0.0,0.0,0.0,0.0,0.0,0.0,0.0,0.0,0.0,0.0,0.0,0.0,0.0,0.0,0.0,0.0,0.0,0.0,0.0,0.0,0.0,0.0,0.0,0.0,0.0,0.0,3.5446,3.5493,3.557,3.5568,3.5527,3.5527,3.5549,3.5591,3.5781,3.5869,3.5903,3.5951,3.5996,0.0,0.0,3.5972,3.591,3.5877,3.5762,3.5582,3.5335,3.5054,3.4714,3.4401,3.4093,3.3797,0.0,0.0,0.0,0.0,0.0,0.0,0.0,0.0,0.0,0.0,0.0,0.0,0.0,0.0,0.0,0.0,0.0,0.0,0.0,0.0,0.0,0.0,2.6691,2.6691,2.6691,2.6691,2.6691,2.6691,2.6691,2.6691,2.6691,2.6691,2.6691,2.6691,2.6691,2.6691,2.6691,2.6691,2.7079,2.7769,0.0,0.0,0.0,0.0,0.0,0.0,0.0,0.0,0.0,0.0,3.3902,3.4043,3.4171,0.0,0.0,0.0,0.0,0.0,3.5304,3.5304,3.5354,3.5479,3.5304,3.5105,0.0,0.0,0.0,0.0,0.0,0.0,0.0,0.0,0.0,0.0,0.0,0.0,0.0,0.0,0.0,0.0,0.0,0.0,0.0,0.0,0.0,0.0,0.0,0.0,0.0,0.0,3.5493,3.5493,3.5574,3.5611,3.5611,3.5718,3.5749,3.5749,3.586,3.5913,3.597,3.5995,3.5975,3.5947,0.0,3.5887,3.5797,3.5749,3.5674,3.557,3.5254,3.5062,3.4851,3.4379,3.3899,3.3465,0.0,0.0,0.0,0.0,0.0,0.0,0.0,0.0,0.0,0.0,0.0,0.0,0.0,0.0,0.0,0.0,0.0,0.0,0.0,0.0,2.5961,2.6315,2.647,2.659,2.6691,2.6691,2.6691,2.6691,2.6691,2.6691,2.6691,2.6691,2.6691,2.6691,2.6691,2.6793,2.6962,2.708,2.7755,2.8821,0.0,0.0,0.0,0.0,0.0,0.0,0.0,0.0,0.0,0.0,0.0,0.0,0.0,0.0,0.0,3.5174,3.5354,3.5493,3.5493,3.5446,3.5432,3.5493,3.5354,0.0,0.0,0.0,0.0,0.0,0.0,0.0,0.0,0.0,0.0,0.0,0.0,0.0,0.0,0.0,0.0,0.0,0.0,0.0,0.0,0.0,0.0,0.0,0.0,0.0,0.0,0.0,3.5522,3.5522,3.5611,3.5676,3.5676,3.5836,3.5913,3.5903,3.5913,3.5948,3.5996,3.5976,3.5948,3.59,3.5869,3.5791,3.5659,3.5543,3.5496,3.5456,3.5133,3.4963,3.4832,3.4311,3.3742,3.3184,0.0,0.0,0.0,0.0,0.0,0.0,0.0,0.0,0.0,0.0,0.0,0.0,0.0,0.0,0.0,0.0,0.0,0.0,0.0,0.0,2.5259,2.5297,2.5762,2.6262,2.6691,2.6691,2.6691,2.6691,2.6691,2.6691,2.6691,2.6691,2.6691,2.6691,2.6691,2.708,2.774,2.8182,2.8826,2.9671,3.1261,0.0,0.0,0.0,0.0,0.0,0.0,0.0,0.0,0.0,0.0,0.0,0.0,0.0,3.5138,3.5383,3.5493,3.5493,3.5493,3.532,3.519,3.5432,3.5493,0.0,3.519,3.5105,0.0,0.0,0.0,0.0,0.0,0.0,0.0,0.0,0.0,0.0,0.0,0.0,0.0,0.0,0.0,0.0,0.0,0.0,0.0,0.0,0.0,0.0,0.0,0.0,0.0,3.559,3.5781,3.5873,3.5873,3.595,3.5951,3.5903,3.5951,3.5996,3.5996,3.5942,3.5907,3.59,3.5766,3.5679,3.5591,3.5328,3.5192,3.5102,3.4832,3.4551,3.4223,3.3954,3.3578,3.3154,0.0,0.0,0.0,0.0,0.0,0.0,0.0,0.0,0.0,0.0,0.0,0.0,0.0,0.0,0.0,0.0,0.0,0.0,0.0,0.0,2.4855,2.5182,2.5373,2.5726,2.6262,2.6539,2.6691,2.6691,2.6691,2.6691,2.6691,2.6691,2.6945,2.7402,2.7402,2.7964,2.8939,2.9106,2.9966,3.1207,3.1827,3.2518,0.0,0.0,0.0,0.0,0.0,0.0,0.0,0.0,3.4242,3.4572,3.4851,3.5122,3.5369,3.546,3.5493,3.5493,3.5493,3.5432,3.5369,3.546,3.5493,0.0,0.0,0.0,0.0,0.0,0.0,0.0,0.0,0.0,0.0,0.0,0.0,0.0,0.0,0.0,0.0,0.0,0.0,0.0,0.0,0.0,0.0,0.0,0.0,0.0,0.0,0.0,0.0,3.5663,3.5821,3.5903,3.5903,3.5972,3.5995,3.5951,3.5996,3.5975,3.5942,3.591,3.5827,3.5706,3.5666,3.5611,3.5509,3.5254,3.5114,3.5051,3.4574,3.4213,3.3935,3.3842,3.3361,3.2745,0.0,0.0,0.0,0.0,0.0,0.0,0.0,0.0,0.0,0.0,0.0,0.0,0.0,0.0,0.0,0.0,0.0,0.0,0.0,2.4438,2.474,2.5274,2.5494,2.5854,2.6412,2.6872,2.6992,2.6691,2.6928,2.7046,2.7046,2.73,2.7689,2.818,2.8286,2.8956,2.997,3.0267,3.1186,3.2448,3.2581,3.3104,0.0,0.0,0.0,0.0,0.0,0.0,0.0,0.0,3.4489,3.487,3.5034,3.5289,3.5493,3.5493,3.5493,3.5493,3.5493,3.5493,3.5493,0.0,0.0,0.0,3.5493,0.0,0.0,0.0,0.0,0.0,0.0,0.0,0.0,0.0,0.0,0.0,0.0,0.0,0.0,0.0,0.0,0.0,0.0,0.0,0.0,0.0,0.0,0.0,0.0,0.0,0.0,0.0,3.5861,3.5921,3.5921,3.5974,3.5996,3.5973,3.5973,3.5947,3.59,3.5827,3.5721,3.5611,3.5577,3.5534,3.546,3.5122,3.487,3.4655,3.4242,3.3961,3.3762,3.3652,3.3136,3.2484,0.0,0.0,0.0,0.0,0.0,0.0,0.0,0.0,0.0,0.0,0.0,0.0,0.0,0.0,0.0,0.0,0.0,0.0,0.0,2.4597,2.4926,2.5585,2.6123,2.667,2.7294,2.7842,2.767,2.6708,2.7469,2.7806,2.7806,2.8619,2.9028,2.9011,2.942,3.0023,3.0785,3.1727,3.2538,3.3243,3.3634,3.3807,3.3807,0.0,0.0,0.0,0.0,0.0,0.0,0.0,3.4597,3.5105,3.5105,3.5289,3.5493,3.5493,3.5493,3.5493,3.5493,3.5493,3.5493,0.0,0.0,0.0,0.0,0.0,0.0,0.0,0.0,0.0,0.0,0.0,0.0,0.0,0.0,0.0,0.0,0.0,0.0,0.0,0.0,0.0,0.0,0.0,0.0,0.0,0.0,0.0,0.0,0.0,0.0,0.0,3.5972,3.6016,3.6016,3.5996,3.5972,3.5903,3.59,3.59,3.5896,3.5682,3.5611,3.56,3.5534,3.5493,3.5446,3.4926,3.433,3.3807,3.3807,3.3807,3.3734,3.3332,3.2921,3.2417,0.0,0.0,0.0,0.0,0.0,0.0,0.0,0.0,0.0,0.0,0.0,0.0,0.0,0.0,0.0,0.0,0.0,0.0,0.0,2.5315,2.556,2.6227,2.6406,2.6957,2.7921,2.8477,2.8592,2.8298,2.8535,2.8636,2.8636,2.8873,2.943,3.0195,3.0318,3.1159,3.2483,3.2763,3.3161,3.3634,3.3734,3.3807,3.3807,0.0,0.0,0.0,0.0,0.0,0.0,0.0,0.0,0.0,3.532,3.5432,3.5493,3.5493,3.5493,3.5493,3.5493,3.5493,0.0,0.0,0.0,0.0,0.0,0.0,0.0,0.0,0.0,0.0,0.0,0.0,0.0,0.0,0.0,0.0,0.0,0.0,0.0,0.0,0.0,0.0,0.0,0.0,0.0,0.0,0.0,0.0,0.0,0.0,0.0,0.0,3.7226,3.6914,3.6914,3.6262,3.5916,3.59,3.5768,3.5702,3.5693,3.5621,3.5577,3.5534,3.5501,3.5383,3.5171,3.4595,3.4141,3.3807,3.3807,3.3625,3.3361,3.3243,3.2695,3.1986,0.0,0.0,0.0,0.0,0.0,0.0,0.0,0.0,0.0,0.0,2.536,2.5615,0.0,0.0,0.0,0.0,0.0,0.0,0.0,0.0,2.6627,2.7256,2.7512,2.8083,2.9015,2.9592,2.9854,2.9854,2.9567,2.9431,2.9431,2.9907,3.0486,3.115,3.1528,3.225,3.3214,3.3361,3.3578,3.3807,3.3807,3.3807,3.3807,0.0,0.0,0.0,0.0,0.0,0.0,0.0,0.0,0.0,3.5446,0.0,3.5493,3.5493,3.5493,3.5493,3.5493,0.0,0.0,0.0,0.0,0.0,0.0,0.0,0.0,0.0,0.0,0.0,0.0,0.0,0.0,0.0,0.0,0.0,0.0,0.0,0.0,0.0,0.0,0.0,0.0,0.0,0.0,0.0,0.0,0.0,0.0,0.0,0.0,0.0,3.8086,3.7792,3.7747,3.6852,3.6387,3.6288,3.5814,3.5599,3.5562,3.5562,3.554,3.5493,3.5383,3.519,3.4889,3.4405,3.4043,3.3807,3.3807,3.355,3.3184,3.2983,3.2433,3.1789,0.0,0.0,0.0,0.0,0.0,0.0,0.0,0.0,0.0,0.0,2.5749,2.5794,0.0,0.0,0.0,0.0,0.0,0.0,0.0,0.0,2.7922,2.8622,2.9225,2.9805,3.0393,3.0918,3.119,3.119,3.0531,3.0209,3.0285,3.1313,3.1861,3.1951,3.2809,3.3214,3.3273,3.3634,3.3807,3.3788,3.3815,3.3842,3.3842,3.3868,0.0,0.0,0.0,0.0,0.0,0.0,0.0,0.0,3.5493,3.5493,3.5493,3.5493,3.5493,3.5493,3.5493,0.0,0.0,0.0,0.0,0.0,0.0,0.0,0.0,0.0,0.0,0.0,0.0,0.0,0.0,0.0,0.0,0.0,0.0,0.0,0.0,0.0,0.0,0.0,0.0,0.0,0.0,0.0,0.0,0.0,0.0,0.0,0.0,3.8867,3.875,3.8646,3.8514,3.7706,3.719,0.0,3.6112,3.5666,3.5622,3.5532,3.5493,3.5446,3.5138,3.487,3.4632,3.4311,3.4018,3.3807,3.3762,3.3494,3.3075,3.2616,3.2127,3.1696,0.0,0.0,0.0,0.0,0.0,0.0,0.0,0.0,0.0,0.0,0.0,0.0,0.0,0.0,0.0,0.0,0.0,0.0,0.0,0.0,2.8746,2.9892,3.0477,3.0878,3.1015,3.1151,3.119,3.119,3.1038,3.1113,3.1418,3.1683,3.2196,3.2903,3.3105,3.3379,3.368,3.3762,3.3807,3.3815,3.4018,3.4123,3.4147,3.4398,3.4529,0.0,0.0,0.0,0.0,0.0,0.0,0.0,3.5493,3.5493,3.5493,3.5493,3.5493,3.5493,0.0,3.5493,0.0,0.0,0.0,0.0,0.0,0.0,0.0,0.0,0.0,0.0,0.0,0.0,0.0,0.0,0.0,0.0,0.0,0.0,0.0,0.0,0.0,0.0,0.0,0.0,0.0,0.0,0.0,0.0,0.0,0.0,0.0,4.0644,3.9871,3.9442,3.9412,3.8412,3.789,0.0,3.6916,3.6458,3.643,3.5795,3.5383,3.5174,3.4617,3.436,3.4288,3.4012,3.3868,3.3762,3.3447,3.3045,3.2583,3.2127,3.1714,3.1329,0.0,0.0,0.0,0.0,0.0,0.0,0.0,0.0,0.0,0.0,0.0,0.0,0.0,0.0,0.0,0.0,0.0,0.0,0.0,0.0,0.0,3.0699,3.1015,3.119,3.119,3.119,3.119,3.119,3.119,0.0,0.0,0.0,0.0,3.2872,0.0,3.3606,3.3807,3.3807,3.3807,3.3815,3.4074,3.42,3.4242,3.4572,3.4774,3.4889,3.4889,0.0,0.0,0.0,0.0,0.0,0.0,0.0,3.5493,3.5493,3.5493,3.5493,0.0,0.0,0.0,0.0,0.0,0.0,0.0,0.0,0.0,0.0,0.0,0.0,0.0,0.0,0.0,0.0,0.0,0.0,0.0,0.0,0.0,0.0,0.0,0.0,0.0,0.0,0.0,0.0,0.0,0.0,0.0,4.1149,4.1103,4.1103,4.0535,4.0208,4.0178,3.9209,3.8713,3.8666,3.7762,3.704,3.6489,3.5668,3.5223,3.507,3.4449,3.42,3.4195,3.3902,3.3807,3.378,3.3578,3.3075,3.2484,3.2248,3.175,3.119,0.0,0.0,0.0,0.0,0.0,0.0,0.0,0.0,0.0,0.0,0.0,0.0,0.0,0.0,0.0,0.0,0.0,0.0,0.0,0.0,0.0,0.0,3.1376,3.1326,3.119,3.119,3.119,3.119,3.119,0.0,0.0,0.0,0.0,3.2745,0.0,3.3807,3.3807,3.3807,3.3807,3.3815,3.4165,3.4288,3.4334,3.4695,3.4981,3.5174,3.5174,3.5304,3.5493,3.5493,0.0,0.0,0.0,0.0,3.5493,3.5493,3.5493,3.5532,0.0,0.0,0.0,0.0,0.0,0.0,0.0,0.0,0.0,0.0,0.0,0.0,0.0,0.0,0.0,0.0,0.0,0.0,0.0,0.0,0.0,0.0,0.0,0.0,0.0,0.0,0.0,0.0,0.0,0.0,4.1171,4.1055,4.0992,4.0959,4.0843,4.0762,4.0703,3.9964,3.9561,3.9488,3.8642,3.7663,3.6566,3.5812,3.5265,3.4925,3.436,3.4123,3.4123,3.3876,3.3807,3.3807,3.3634,3.3118,3.2484,3.2316,3.1823,3.119,0.0,0.0,0.0,0.0,0.0,0.0,0.0,0.0,0.0,0.0,2.7625,0.0,0.0,0.0,0.0,0.0,0.0,0.0,0.0,0.0,0.0,3.2154,3.2138,3.1833,3.1207,3.119,3.119,3.119,0.0,0.0,0.0,0.0,0.0,3.3634,0.0,3.3807,3.3807,3.3807,3.3807,3.3842,3.4398,3.4632,3.4694,3.5207,3.5417,3.5446,3.5446,3.5479,3.5493,3.5493,3.5493,0.0,0.0,0.0,3.5493,3.5493,3.5493,3.5661,0.0,0.0,0.0,0.0,0.0,0.0,0.0,0.0,0.0,0.0,0.0,0.0,0.0,0.0,0.0,0.0,0.0,0.0,0.0,0.0,0.0,0.0,0.0,0.0,0.0,0.0,0.0,0.0,0.0,0.0,4.1026,4.1019,4.0955,4.0824,4.0742,4.0715,4.0703,4.0467,4.0346,4.0315,3.9508,3.8646,3.7751,3.7129,3.5913,3.4292,3.3986,3.3868,3.3868,3.3815,3.3807,3.3734,3.2965,3.2616,3.2417,3.1657,3.1291,3.119,0.0,0.0,0.0,0.0,0.0,0.0,0.0,0.0,0.0,0.0,0.0,2.8278,0.0,0.0,0.0,0.0,0.0,0.0,0.0,0.0,0.0,3.2933,3.2916,3.2763,3.2442,3.2425,3.2425,3.2425,0.0,0.0,0.0,3.4013,3.3952,0.0,0.0,0.0,0.0,3.3807,3.3876,3.4068,3.4508,3.4774,3.502,3.5852,3.618,3.6238,3.6738,3.6911,3.6911,3.6911,3.6911,3.6911,3.6911,0.0,0.0,0.0,0.0,0.0,0.0,0.0,0.0,0.0,0.0,0.0,0.0,0.0,0.0,0.0,0.0,0.0,0.0,0.0,0.0,0.0,0.0,0.0,0.0,0.0,0.0,0.0,0.0,0.0,0.0,0.0,0.0,0.0,0.0,4.1055,4.0996,4.0903,4.0799,4.0762,4.0636,4.0602,4.0602,4.0534,4.0489,4.0489,3.9991,3.9201,3.8214,3.7743,3.6658,3.5143,3.467,3.4229,3.3807,3.3807,3.368,3.3437,3.3045,3.2583,3.2057,3.1677,3.1372,3.119,0.0,0.0,0.0,0.0,0.0,0.0,0.0,0.0,0.0,0.0,0.0,0.0,0.0,0.0,0.0,0.0,0.0,0.0,0.0,0.0,0.0,3.3694,3.3677,3.3592,3.3406,3.3406,3.3406,0.0,0.0,0.0,3.4818,3.5349,3.501,0.0,3.4302,3.4431,0.0,0.0,0.0,0.0,3.5277,3.5571,3.5825,3.6703,3.7026,3.7123,3.7777,3.8007,3.8007,3.8007,3.8007,3.8007,3.8007,3.8007,0.0,0.0,0.0,0.0,0.0,0.0,0.0,0.0,0.0,0.0,0.0,0.0,0.0,0.0,0.0,0.0,0.0,0.0,0.0,0.0,0.0,0.0,0.0,0.0,0.0,0.0,0.0,0.0,0.0,0.0,0.0,0.0,0.0,4.1023,4.0955,4.0807,4.0707,4.0642,4.0545,4.0489,4.0489,4.0489,4.0489,4.0489,4.0213,3.964,3.8804,3.839,3.7555,3.6377,3.5417,3.4642,3.41,3.388,3.3606,3.3332,3.3243,3.2695,3.1951,3.1844,3.1545,3.119,0.0,0.0,0.0,0.0,0.0,0.0,0.0,0.0,0.0,0.0,0.0,0.0,0.0,0.0,3.2401,3.2496,3.2971,3.3609,3.4344,3.5053,3.5182,3.4472,3.4438,0.0,3.3423,3.3406,0.0,0.0,0.0,0.0,3.4818,3.5349,3.5799,3.6127,3.6156,3.6156,3.6185,0.0,0.0,0.0,0.0,0.0,0.0,3.7798,0.0,0.0,0.0,0.0,3.8007,3.8007,3.8007,3.8007,3.8007,3.8007,0.0,0.0,0.0,0.0,0.0,0.0,0.0,0.0,0.0,0.0,0.0,0.0,0.0,0.0,0.0,0.0,0.0,0.0,0.0,0.0,0.0,0.0,0.0,0.0,0.0,0.0,0.0,0.0,0.0,0.0,0.0,0.0,0.0,4.108,4.0816,4.0793,4.0703,4.0519,4.0504,4.0489,4.0489,4.0489,4.0489,4.0489,4.0213,4.0081,3.9985,3.9333,3.8585,3.769,3.5809,3.4972,3.4862,3.4119,3.3807,3.3734,3.3332,3.2921,3.2417,3.1951,3.1545,3.119,0.0,0.0,0.0,0.0,0.0,0.0,0.0,0.0,0.0,0.0,0.0,0.0,0.0,3.3416,3.3946,3.4432,3.4678,3.4928,3.5199,3.547,3.5504,3.5233,3.5216,3.5098,3.4844,3.5138,0.0,0.0,0.0,3.6649,3.6789,3.733,3.7686,3.7808,3.6762,3.6303,3.6313,3.6586,0.0,0.0,0.0,0.0,0.0,0.0,0.0,0.0,0.0,0.0,0.0,3.9604,3.9604,3.9604,3.9604,0.0,0.0,0.0,0.0,0.0,0.0,0.0,0.0,0.0,0.0,0.0,0.0,0.0,0.0,0.0,0.0,0.0,0.0,0.0,0.0,0.0,0.0,0.0,0.0,0.0,0.0,0.0,0.0,0.0,0.0,0.0,0.0,0.0,0.0,0.0,4.0809,4.0762,4.0672,4.0504,4.0489,4.0489,4.0489,4.0489,4.0406,4.0232,3.9943,3.9668,3.9438,3.9017,3.8678,3.8346,3.7132,3.6303,3.5771,3.4926,3.442,3.4087,3.3149,3.2466,3.2004,3.1565,3.1312,3.119,0.0,0.0,0.0,0.0,0.0,0.0,0.0,0.0,0.0,0.0,0.0,0.0,0.0,0.0,3.5081,3.5571,3.5622,3.5622,3.5622,3.5783,3.5854,3.5854,3.6054,3.6122,3.6122,3.6481,3.6684,0.0,0.0,0.0,0.0,3.8465,3.8707,3.8652,3.7588,3.711,0.0,0.0,0.0,3.7983,0.0,0.0,3.8892,0.0,0.0,0.0,0.0,0.0,0.0,0.0,0.0,0.0,0.0,0.0,0.0,0.0,0.0,0.0,0.0,0.0,0.0,0.0,0.0,0.0,0.0,0.0,0.0,0.0,0.0,0.0,0.0,0.0,0.0,0.0,0.0,0.0,0.0,0.0,0.0,0.0,0.0,0.0,0.0,0.0,0.0,0.0,0.0,0.0,4.0801,4.0742,4.0649,4.0504,4.0489,4.0489,4.0489,4.0406,4.0286,4.0101,3.9645,3.9333,3.9099,3.8815,3.8707,3.867,3.812,3.7441,3.6633,3.5789,3.5027,3.4321,3.3448,3.2595,3.1752,3.1507,3.1329,3.119,0.0,0.0,0.0,0.0,0.0,0.0,0.0,0.0,0.0,0.0,0.0,0.0,0.0,0.0,0.0,3.5622,3.5622,3.5667,3.5605,3.6139,3.6416,3.6416,3.6921,3.719,3.719,3.721,3.721,0.0,0.0,0.0,0.0,0.0,3.8707,3.8707,3.8707,3.8689,3.875,0.0,3.9599,3.9668,0.0,4.0489,4.0489,0.0,0.0,0.0,4.0489,4.0489,0.0,0.0,0.0,0.0,0.0,0.0,0.0,0.0,0.0,0.0,0.0,0.0,0.0,0.0,0.0,0.0,0.0,0.0,0.0,0.0,0.0,0.0,0.0,0.0,0.0,0.0,0.0,0.0,0.0,0.0,0.0,0.0,0.0,0.0,0.0,0.0,0.0,0.0,0.0,4.0944,4.0801,4.0731,4.0617,4.0504,4.0489,4.0489,4.0489,4.0232,4.0081,4.0061,3.9414,3.9099,3.9072,3.8833,3.8707,3.8707,3.8707,3.8267,3.7489,3.667,3.5622,3.4447,3.4393,3.3341,3.1806,3.1806,3.1545,3.119,0.0,0.0,0.0,0.0,0.0,0.0,0.0,0.0,0.0,0.0,0.0,0.0,3.5605,3.5941,3.6028,3.5605,3.6333,3.6603,3.6224,3.6684,3.6999,3.6999,3.7114,3.719,3.719,3.7542,3.772,0.0,0.0,0.0,0.0,0.0,0.0,0.0,3.8894,3.8999,3.9027,3.9432,0.0,0.0,4.0336,4.0489,0.0,0.0,0.0,0.0,0.0,4.0489,0.0,0.0,4.0489,4.0519,0.0,0.0,0.0,0.0,0.0,0.0,4.1191,0.0,0.0,0.0,0.0,0.0,0.0,0.0,0.0,0.0,0.0,0.0,0.0,0.0,0.0,0.0,0.0,0.0,0.0,0.0,0.0,0.0,0.0,0.0,0.0,0.0,0.0,0.0,4.0925,4.0813,4.0731,4.0617,4.053,4.0504,4.0489,4.0425,4.0213,4.0139,3.9859,3.9364,3.9186,3.8999,3.8803,3.875,3.8707,3.8707,3.8707,3.8579,3.8303,3.7496,3.6723,3.593,3.4467,3.3406,3.2585,3.1692,3.1291,3.119,0.0,0.0,0.0,0.0,0.0,0.0,0.0,0.0,0.0,0.0,0.0,0.0,0.0,3.6416,3.6603,3.6274,3.6825,3.7076,3.6764,3.721,3.7506,3.7506,3.7703,3.7826,3.7826,3.8083,3.8216,0.0,0.0,0.0,0.0,0.0,0.0,0.0,0.0,0.0,0.0,0.0,0.0,0.0,4.0389,0.0,0.0,4.0489,4.0489,0.0,0.0,0.0,4.0489,4.0489,4.0489,0.0,0.0,0.0,0.0,0.0,0.0,0.0,0.0,0.0,0.0,0.0,0.0,0.0,4.1191,4.1191,0.0,0.0,0.0,0.0,0.0,0.0,0.0,0.0,0.0,0.0,0.0,0.0,0.0,0.0,0.0,0.0,0.0,0.0,0.0,4.0914,4.0813,4.0721,4.0623,4.053,4.0489,4.0489,4.0489,4.0372,4.0101,3.9943,3.9622,3.9099,3.8971,3.8855,3.8707,3.8707,3.8707,3.8707,3.8707,3.8707,3.867,3.8193,3.7376,3.6307,3.5119,3.3859,3.2625,3.1919,3.1444,3.119,0.0,0.0,0.0,0.0,0.0,0.0,0.0,0.0,0.0,0.0,0.0,0.0,0.0,0.0,0.0,0.0,3.7285,3.734,3.7285,3.772,3.798,3.798,3.8465,3.8719,3.8732,3.8732,3.8762,0.0,0.0,0.0,0.0,0.0,0.0,0.0,0.0,0.0,0.0,0.0,0.0,4.0158,4.0406,4.0489,0.0,0.0,4.0489,0.0,4.0489,4.0504,4.0515,4.053,4.0526,0.0,0.0,0.0,0.0,0.0,4.1105,0.0,0.0,0.0,0.0,0.0,0.0,0.0,4.1171,4.1191,4.1191,0.0,0.0,0.0,0.0,0.0,0.0,0.0,0.0,0.0,0.0,0.0,0.0,0.0,0.0,0.0,0.0,4.0857,4.0777,4.0777,4.0721,4.0623,4.0504,4.0489,4.0489,4.0489,4.0489,4.0356,4.0061,3.9754,3.9432,3.9044,3.8815,3.8707,3.8707,3.8707,3.8707,3.8707,3.8707,3.8707,3.8707,3.8627,3.7615,3.613,3.6041,3.4582,3.2493,3.2341,3.1867,3.1309,3.4134,0.0,0.0,0.0,0.0,0.0,0.0,0.0,0.0,0.0,0.0,0.0,0.0,0.0,0.0,0.0,3.7948,3.8234,3.779,3.8267,3.8546,3.8546,3.8627,3.8803,3.9027,3.9008,0.0,0.0,0.0,0.0,0.0,0.0,0.0,0.0,0.0,0.0,0.0,0.0,0.0,4.0441,4.0473,0.0,4.0489,4.0489,4.0489,4.0489,4.0489,4.0574,4.0667,0.0,4.0733,4.0751,0.0,0.0,0.0,0.0,0.0,0.0,0.0,0.0,0.0,0.0,0.0,0.0,4.1055,4.1126,4.1171,0.0,0.0,0.0,0.0,0.0,0.0,0.0,0.0,0.0,0.0,0.0,0.0,0.0,0.0,0.0,0.0,4.0762,4.0718,4.0718,4.061,4.0534,4.0504,4.0489,4.0489,4.0489,4.0489,4.0248,3.969,3.9622,3.9327,3.8792,3.8719,3.8707,3.8707,3.8707,3.8707,3.8707,3.8707,3.8707,3.8676,3.8216,3.7648,3.6909,3.6254,3.5205,3.3914,3.273,3.2188,3.1985,3.4912,0.0,0.0,0.0,0.0,0.0,0.0,0.0,0.0,0.0,0.0,0.0,0.0,0.0,0.0,0.0,0.0,0.0,0.0,0.0,0.0,3.8894,3.9045,3.9216,3.9358,3.9339,0.0,0.0,0.0,0.0,0.0,0.0,0.0,0.0,0.0,0.0,0.0,0.0,4.0489,4.0489,4.0489,0.0,4.0489,4.0489,4.0489,4.0504,4.0588,4.066,4.0762,4.0796,4.0801,0.0,0.0,4.0996,4.1026,0.0,4.1191,4.1191,0.0,0.0,0.0,4.1126,0.0,0.0,0.0,4.0996,4.0988,4.0914,0.0,0.0,0.0,0.0,0.0,0.0,0.0,0.0,0.0,0.0,0.0,0.0,0.0,0.0,0.0,4.066,4.0596,4.0596,4.053,4.0489,4.0489,4.0489,4.0489,4.0489,4.0489,4.0193,3.9599,3.9599,3.932,3.8707,3.8707,3.8707,3.8707,3.8707,3.8707,3.8707,3.8707,3.8546,3.8267,3.8013,3.747,3.6768,3.6365,3.5503,3.4404,3.366,3.3152,3.273,3.5761,0.0,0.0,0.0,0.0,0.0,0.0,0.0,0.0,0.0,0.0,0.0,0.0,0.0,0.0,0.0,0.0,0.0,0.0,0.0,0.0,0.0,3.9857,4.0042,3.9936,4.0087,4.0208,0.0,0.0,0.0,0.0,0.0,0.0,0.0,0.0,0.0,0.0,0.0,0.0,4.0504,0.0,4.0534,4.0504,4.0534,4.053,4.0559,4.0707,4.079,4.0831,4.087,0.0,4.0902,4.0996,4.1049,0.0,0.0,0.0,0.0,0.0,0.0,0.0,0.0,0.0,4.0992,0.0,0.0,0.0,4.0768,0.0,0.0,0.0,0.0,0.0,0.0,0.0,0.0,0.0,0.0,0.0,0.0,0.0,0.0,0.0,4.0574,4.0489,4.0489,4.0489,4.0489,4.0489,4.0489,4.0489,4.0489,4.0457,4.0157,3.9599,3.9552,3.9223,3.8707,3.8707,3.8707,3.8707,3.8707,3.8707,3.8707,3.8707,3.8465,3.8065,3.7946,3.7379,3.6522,3.6457,3.5719,3.4692,3.4539,3.4117,3.3508,3.7002,3.702,0.0,0.0,0.0,0.0,0.0,0.0,0.0,0.0,0.0,0.0,0.0,0.0,0.0,0.0,0.0,0.0,4.0142,0.0,0.0,0.0,0.0,0.0,4.1109,4.1854,4.2412,0.0,0.0,0.0,0.0,0.0,0.0,0.0,4.1646,0.0,0.0,0.0,4.0489,0.0,4.0636,4.061,0.0,4.0636,4.0667,4.0696,4.0903,4.0959,4.0992,0.0,4.115,4.1151,0.0,4.1171,0.0,0.0,0.0,0.0,0.0,0.0,0.0,0.0,4.092,0.0,0.0,0.0,4.0768,4.071,0.0,0.0,0.0,0.0,0.0,0.0,0.0,0.0,0.0,0.0,0.0,0.0,0.0,0.0,0.0,0.0,4.0489,4.0489,4.0489,4.0489,4.0489,4.0489,4.0489,4.0489,4.0286,3.9963,3.9599,3.9289,3.8999,3.8707,3.8707,3.8707,3.8707,3.8707,3.8707,3.8707,3.8707,3.8676,3.8578,3.8099,3.7578,3.7058,3.658,3.6002,3.5419,3.4742,3.4438,3.4269,3.7285,3.719,0.0,0.0,0.0,0.0,0.0,0.0,0.0,0.0,0.0,0.0,0.0,0.0,0.0,0.0,0.0,4.1172,0.0,0.0,0.0,0.0,0.0,0.0,0.0,4.2697,4.2961,4.3104,4.3104,0.0,0.0,0.0,0.0,0.0,4.2112,0.0,4.1324,0.0,0.0,0.0,0.0,0.0,0.0,4.0712,4.0807,4.0889,4.0979,4.1052,4.1126,0.0,4.1191,0.0,0.0,0.0,0.0,0.0,0.0,0.0,0.0,0.0,0.0,0.0,0.0,0.0,0.0,0.0,4.0623,0.0,0.0,0.0,0.0,0.0,0.0,0.0,0.0,0.0,0.0,0.0,0.0,0.0,0.0,0.0,0.0,0.0,0.0,0.0,0.0,4.0489,4.0489,4.0489,4.0441,4.0267,4.0158,3.9859,3.9333,3.916,3.8961,3.8707,3.8707,3.8707,3.8707,3.8707,3.8707,3.8707,3.8707,3.8496,3.8183,3.7703,3.721,3.6684,3.6139,3.5827,3.5588,3.5267,3.5148,3.503,3.7756,0.0,0.0,0.0,0.0,0.0,0.0,0.0,0.0,0.0,0.0,0.0,4.1681,4.2228,0.0,0.0,0.0,4.2616,0.0,0.0,4.2984,0.0,0.0,0.0,0.0,0.0,0.0,4.3797,0.0,0.0,0.0,0.0,0.0,0.0,0.0,4.2451,4.1981,0.0,0.0,4.0721,4.0762,4.08,4.0835,4.0843,4.095,4.1052,4.1052,4.1126,4.1191,4.1191,4.1191,0.0,4.1191,0.0,0.0,0.0,0.0,0.0,4.1191,0.0,0.0,0.0,0.0,0.0,0.0,0.0,0.0,0.0,0.0,0.0,0.0,0.0,0.0,0.0,0.0,0.0,0.0,0.0,0.0,0.0,0.0,0.0,0.0,0.0,0.0,4.0389,4.0302,4.0283,4.0389,4.0302,4.0157,3.9982,3.988,3.9599,3.9107,3.9036,3.8894,3.8707,3.8707,3.8707,3.8707,3.8707,3.8707,3.8707,3.8707,3.8382,3.7859,3.7542,3.6981,3.6333,3.5985,3.5739,3.5622,3.5622,3.5622,3.5537,3.8676,3.8658,0.0,0.0,0.0,0.0,0.0,0.0,0.0,0.0,0.0,0.0,0.0,0.0,0.0,0.0,0.0,4.2621,4.3725,0.0,4.3962,0.0,0.0,4.5124,0.0,0.0,0.0,0.0,0.0,0.0,0.0,0.0,0.0,0.0,0.0,4.3546,4.2097,4.2,4.1518,4.0801,4.0944,4.1074,4.1171,0.0,4.108,4.1191,4.1191,0.0,0.0,4.1191,4.1191,0.0,0.0,0.0,0.0,0.0,0.0,0.0,0.0,0.0,0.0,4.085,0.0,0.0,0.0,0.0,4.0489,0.0,0.0,0.0,0.0,0.0,0.0,3.9469,0.0,0.0,0.0,0.0,0.0,0.0,0.0,0.0,0.0,0.0,0.0,4.0101,3.9819,3.9775,4.0101,3.9797,3.9622,3.9622,3.9289,3.9125,3.9099,3.8844,3.8707,3.8707,3.8707,3.8707,3.8707,3.8707,3.8707,3.8707,3.8707,3.8382,3.7893,3.7859,3.7305,3.6374,3.6374,3.6071,3.5622,3.5622,3.5622,3.5622,0.0,0.0,0.0,0.0,0.0,0.0,0.0,4.253,0.0,0.0,0.0,0.0,0.0,0.0,4.3859,0.0,0.0,4.4346,4.4191,4.469,0.0,0.0,0.0,4.5517,0.0,0.0,0.0,0.0,0.0,0.0,0.0,0.0,0.0,0.0,0.0,4.439,0.0,0.0,0.0,0.0,0.0,4.108,4.1191,0.0,0.0,4.1191,4.1191,4.1191,0.0,4.1191,4.1191,4.1191,4.1191,4.1191,4.1191,4.1191,4.1191,0.0,0.0,0.0,4.0955,4.0771,0.0,0.0,0.0,0.0,0.0,0.0,0.0,0.0,0.0,0.0,4.0345,3.9905,3.9986,0.0,0.0,0.0,0.0,0.0,0.0,0.0,0.0,0.0,0.0,3.9775,3.9668,3.9645,0.0,3.9668,3.9505,3.9264,3.9178,3.9008,3.8844,3.875,3.8707,3.8707,3.8707,3.8707,3.8707,3.8707,3.8707,3.8707,3.8707,3.8382,3.7877,3.7578,3.702,3.6374,3.6028,3.5783,3.5622,3.5622,3.5622,3.5622,4.0,0.0,0.0,0.0,0.0,0.0,0.0,0.0,0.0,0.0,4.4896,0.0,4.4966,0.0,4.5052,0.0,4.515,4.5355,4.4797,4.5278,0.0,4.5586,4.5651,0.0,0.0,0.0,0.0,0.0,0.0,4.5974,0.0,0.0,0.0,0.0,0.0,0.0,0.0,0.0,4.2861,0.0,0.0,4.1126,0.0,0.0,4.1191,4.1191,0.0,4.1191,4.1191,4.1191,4.1191,4.1191,4.1191,4.1191,4.1191,4.1191,4.1171,4.1105,4.1023,4.0944,0.0,4.0729,4.0655,0.0,4.0519,0.0,0.0,0.0,0.0,0.0,0.0,0.0,0.0,4.0139,4.0002,3.9775,0.0,3.9294,0.0,0.0,0.0,0.0,0.0,0.0,3.9327,3.9432,3.9333,3.9327,0.0,0.0,3.9189,3.8961,3.8961,3.8884,3.8707,3.8707,3.8707,3.8707,3.8707,3.8707,3.8707,3.8707,3.8707,3.8707,3.8496,3.8117,3.7614,3.7135,3.6603,3.6097,3.5739,3.5622,3.5622,3.5622,3.5622,3.5622,0.0,0.0,0.0,0.0,4.2389,0.0,0.0,0.0,4.5118,0.0,4.54,4.5586,4.5586,4.5586,4.5586,4.5586,4.5586,0.0,4.5586,4.5603,0.0,0.0,4.5733,4.5822,4.5803,0.0,0.0,0.0,0.0,0.0,0.0,0.0,0.0,0.0,4.6173,0.0,4.5058,4.4881,4.3872,4.2324,4.1562,4.123,4.1191,4.1191,4.1191,4.1191,4.1191,4.1191,4.1191,4.1191,4.1191,4.1191,4.1191,4.1191,4.1191,4.1191,4.1101,4.0992,4.0988,4.0852,4.0692,4.0692,0.0,0.0,0.0,0.0,4.0489,0.0,0.0,0.0,0.0,0.0,0.0,4.012,3.9775,3.9352,0.0,0.0,0.0,0.0,0.0,0.0,0.0,3.8707,3.8803,3.9044,3.8826,0.0,0.0,0.0,3.8707,3.8707,3.8707,3.8707,3.8707,3.8707,3.8707,3.8707,3.8707,3.8707,3.8707,3.8707,3.8707,3.8658,3.815,3.7649,3.7135,3.6643,3.6097,3.5622,3.5622,3.5622,3.5622,3.5622,3.5622,3.5622,4.1396,4.2564,4.3637,0.0,4.4529,4.4699,0.0,0.0,0.0,0.0,4.555,4.5586,4.5586,4.5586,4.5586,4.5586,4.5586,0.0,0.0,0.0,0.0,4.5747,4.5836,4.5918,4.6014,4.6033,0.0,4.62,0.0,0.0,4.6247,0.0,0.0,0.0,0.0,0.0,4.5918,4.5233,4.3964,4.2383,4.2187,4.1738,0.0,0.0,4.1191,4.1191,4.1191,4.1191,4.1191,4.1191,4.1191,4.1191,4.1191,4.1128,4.1052,4.1052,4.0955,4.0843,4.08,4.074,4.0667,4.0588,4.0534,4.0489,0.0,0.0,0.0,0.0,0.0,0.0,0.0,0.0,0.0,0.0,3.9268,0.0,0.0,0.0,0.0,0.0,0.0,0.0,0.0,3.8707,3.8719,3.8803,3.875,0.0,0.0,0.0,0.0,3.8707,3.8707,3.8707,3.8707,3.8707,3.8707,3.8707,3.8707,3.8707,3.8707,3.8707,3.8707,3.8707,3.8546,3.8016,3.7173,3.7076,3.644,3.5622,3.5622,3.5622,3.5622,3.5622,3.5622,3.5622,4.22,0.0,0.0,4.5509,0.0,0.0,4.5322,0.0,0.0,4.5586,4.5586,0.0,4.5586,4.5586,4.5586,4.5586,4.5648,0.0,0.0,0.0,0.0,4.5847,4.5935,4.6008,4.6108,4.617,0.0,4.6308,0.0,0.0,4.6308,0.0,0.0,0.0,0.0,4.6308,0.0,4.5371,4.4433,4.3476,4.2715,0.0,0.0,4.1328,4.1191,4.1191,4.1191,4.1191,4.1191,4.1191,4.1191,4.1191,4.1128,4.1055,4.0992,4.0925,4.0828,4.0742,4.0707,4.0662,4.0582,4.0519,4.0489,4.0489,4.0489,4.0489,4.0489,0.0,0.0,0.0,0.0,0.0,0.0,0.0,0.0,0.0,0.0,0.0,0.0,0.0,0.0,0.0,0.0,3.8707,3.8707,3.8707,0.0,0.0,0.0,0.0,0.0,3.8707,3.8707,3.8707,3.8707,3.8707,3.8707,3.8707,3.8707,3.8707,3.8707,3.8707,3.8707,3.8676,3.8465,3.7929,3.7173,3.696,3.6374,3.5622,3.5622,3.5622,3.5622,3.5622,3.5622,3.5622,0.0,0.0,0.0,0.0,0.0,0.0,0.0,4.5586,0.0,4.5586,0.0,4.5586,4.5586,4.562,4.5637,4.5637,0.0,4.5815,4.5815,4.5872,4.5924,4.5924,4.605,4.614,4.614,4.6246,0.0,0.0,0.0,4.6308,4.6308,0.0,0.0,0.0,0.0,0.0,0.0,4.5488,4.5098,0.0,4.3223,4.25,4.2305,4.1504,4.1191,4.1171,4.1171,4.1171,4.1171,4.1171,4.1151,4.1128,4.1019,4.0979,4.0939,4.0821,4.0732,4.0667,4.0667,4.0582,4.0489,4.0489,4.0489,4.0489,4.0489,4.0489,4.0489,4.0489,4.0489,4.0489,0.0,0.0,0.0,0.0,0.0,0.0,0.0,0.0,0.0,0.0,0.0,0.0,0.0,0.0,0.0,0.0,0.0,0.0,0.0,0.0,0.0,3.8707,3.8707,3.8707,3.8707,0.0,3.8707,3.8707,3.8707,3.8707,3.8707,3.8707,3.8707,3.8658,3.8132,3.7649,3.7152,3.6603,3.6097,3.5622,3.5622,3.5622,3.5622,3.5622,3.5622,3.5622,0.0,0.0,0.0,0.0,0.0,4.5586,4.5586,4.5586,4.5586,4.5586,4.5586,4.5586,4.5586,4.5692,4.5756,4.5756,4.5847,0.0,0.0,0.0,0.0,4.6055,4.6198,4.6268,4.6268,4.6289,4.6308,0.0,4.6308,4.6308,4.6308,4.6308,0.0,0.0,0.0,0.0,4.6289,4.6133,0.0,4.4902,4.3887,4.3047,4.2305,4.1504,4.1128,4.1046,4.1046,4.1046,4.1046,4.1046,4.0959,4.0864,4.0831,4.0807,4.0751,4.0729,4.063,4.0549,4.0549,4.0519,4.0489,4.0489,4.0489,4.0489,4.0489,4.0489,4.0489,4.0489,4.0489,4.0489,4.0489,0.0,0.0,0.0,0.0,0.0,0.0,0.0,0.0,0.0,0.0,0.0,0.0,0.0,0.0,0.0,0.0,0.0,0.0,0.0,0.0,0.0,3.8707,0.0,0.0,0.0,3.8707,3.8707,3.8707,3.8707,3.8707,3.8707,3.8707,3.8658,3.8132,3.7649,3.7152,3.6603,3.6097,3.5622,3.5622,3.5622,3.5622,3.5622,3.5622,3.5622,0.0,0.0,0.0,0.0,0.0,0.0,0.0,4.5446,0.0,4.5601,4.5648,4.5708,4.5708,4.5796,4.585,4.585,4.5944,4.6001,4.6001,4.612,4.62,4.62,4.6268,0.0,4.6308,4.6308,4.6308,4.6308,4.6308,4.6308,4.6308,4.6308,0.0,0.0,0.0,4.6308,0.0,0.0,0.0,4.5566,4.4194,4.3408,4.2878,4.1511,4.0955,4.0902,4.0902,4.0877,4.0859,4.087,4.0857,4.0785,4.0762,4.074,4.068,4.0623,4.0545,4.0489,4.0489,4.0489,4.0489,4.0489,4.0489,4.0489,4.0489,4.0489,4.0489,4.0489,4.0489,4.0457,4.0321,4.0043,0.0,0.0,0.0,0.0,0.0,0.0,0.0,0.0,0.0,0.0,0.0,0.0,0.0,0.0,0.0,0.0,0.0,0.0,0.0,0.0,0.0,0.0,0.0,0.0,0.0,3.8707,3.8707,3.8707,3.8707,3.8707,3.8546,3.8267,3.8013,3.747,3.6724,3.6224,3.581,3.5622,3.5622,3.5622,3.5622,3.5622,3.5622,3.5622,0.0,4.4614,0.0,0.0,4.4896,0.0,4.4645,4.5318,4.5852,4.5684,4.5769,4.582,4.582,4.5881,4.5932,4.5932,4.6075,4.6144,4.6144,4.6246,4.6308,4.6308,4.6308,4.6308,4.6308,4.6308,4.6308,0.0,4.6308,4.6211,4.6035,4.6211,4.6308,0.0,0.0,0.0,0.0,0.0,4.6204,4.6065,4.4278,4.3558,4.3353,4.1493,4.0785,4.0779,4.0779,4.0742,4.0667,4.0713,4.0743,4.0723,4.0672,4.0662,4.0636,4.0515,4.0489,4.0489,4.0489,4.0489,4.0489,4.0489,4.0489,4.0489,4.0489,4.0489,4.0489,4.0489,4.0489,4.0389,4.0062,3.9838,0.0,0.0,0.0,0.0,0.0,0.0,0.0,0.0,0.0,0.0,0.0,0.0,0.0,0.0,0.0,0.0,0.0,0.0,0.0,0.0,0.0,3.8707,3.8707,0.0,3.8707,3.8707,3.8707,3.8707,3.8707,3.8578,3.83,3.7911,3.7667,3.7079,3.6182,3.5783,3.5622,3.5622,3.5622,3.5622,3.5622,3.5622,3.5622,3.5622,0.0,0.0,0.0,0.0,0.0,0.0,0.0,4.5365,4.589,4.5872,4.5881,4.5881,4.5881,4.5995,4.608,4.608,4.62,4.6289,4.6289,4.6289,4.6308,4.6308,4.6308,4.6308,4.6308,4.6308,4.6308,0.0,0.0,4.5898,0.0,4.5937,0.0,0.0,0.0,0.0,0.0,4.5988,4.5932,4.5796,4.4086,4.3424,4.323,4.1463,4.0752,4.0696,4.0696,4.0636,4.0519,4.053,4.053,4.053,4.0534,4.0519,4.0519,4.0504,4.0489,4.0489,4.0489,4.0489,4.0489,4.0489,4.0489,4.0489,4.0489,4.0489,4.0489,4.0489,4.0489,4.0336,3.9757,3.988,3.984,0.0,0.0,0.0,0.0,0.0,0.0,0.0,0.0,0.0,0.0,3.8707,0.0,0.0,0.0,0.0,0.0,0.0,0.0,3.8707,0.0,3.8707,3.8707,3.8707,3.8707,3.8707,3.8707,3.8707,3.8658,3.8183,3.7946,3.7859,3.6943,3.6207,3.565,3.5622,3.5622,3.5622,3.5622,3.5622,3.5622,3.5622,3.5622,3.5622,0.0,0.0,0.0,0.0,0.0,0.0,0.0,4.4797,4.5558,4.6066,4.6075,4.6027,4.6027,4.6144,4.6223,4.6223,4.6268,4.6308,4.6308,4.6308,4.6308,4.6308,4.6308,4.6308,4.6308,4.6308,4.6308,0.0,0.0,0.0,0.0,0.0,0.0,0.0,0.0,4.5981,4.5981,4.5916,4.5899,4.5763,4.3996,4.3285,4.31,4.1292,4.0597,4.0588,4.0588,4.0545,4.0489,4.0489,4.0489,4.0489,4.0489,4.0489,4.0489,4.0489,4.0489,4.0489,4.0489,4.0489,4.0489,4.0489,4.0489,4.0489,4.0489,4.0489,4.0489,4.0489,4.0372,4.0195,3.9943,3.9668,3.9414,0.0,0.0,0.0,0.0,0.0,0.0,0.0,0.0,0.0,0.0,0.0,3.8707,0.0,0.0,0.0,0.0,0.0,0.0,3.8707,0.0,3.8707,3.8707,3.8707,3.8707,3.8707,3.8382,3.8382,3.8658,3.7861,3.7305,3.6981,3.6249,3.5827,3.5622,3.5622,3.5622,3.5622,3.5622,3.5622,3.5622,3.5622,3.5622,3.5622,4.1704,0.0,4.2505,0.0,4.2598,4.3258,4.3241,4.4234,4.5215,4.584,4.6067,4.615,4.615,4.6246,4.6308,4.6308,4.6308,4.6308,4.6308,4.6308,4.6308,4.6308,4.6308,0.0,4.6308,4.6308,4.6308,4.6308,4.6308,0.0,0.0,0.0,0.0,0.0,4.5918,4.5862,4.5862,4.582,4.5797,4.5662,4.3886,4.3175,4.2988,4.1185,4.0489,4.0489,4.0489,4.0489,4.0489,4.0489,4.0489,4.0489,4.0489,4.0489,4.0489,4.0489,4.0489,4.0489,4.0489,4.0489,4.0489,4.0489,4.0489,4.0489,4.0489,4.0489,4.0473,4.0389,4.0157,3.9922,3.9819,3.9414,3.9072,3.8999,0.0,0.0,0.0,0.0,0.0,0.0,0.0,3.8707,3.8707,3.8707,0.0,0.0,0.0,0.0,0.0,0.0,0.0,0.0,0.0,0.0,0.0,3.8707,3.8707,3.8707,3.8318,3.8332,3.8676,3.7667,3.6921,3.6374,3.581,3.5622,3.5622,3.5622,3.5622,3.5622,3.5622,3.5622,3.5622,3.5622,3.5622,3.5622,4.0983,4.1012,4.1035,4.1016,4.1789,4.2402,4.2402,4.3887,4.5,4.5019,4.5762,4.6308,4.6308,4.6308,4.6308,4.6308,4.6308,4.6308,4.6308,4.6308,4.6308,0.0,0.0,4.6308,4.6308,4.6308,4.6308,4.6308,0.0,0.0,4.482,0.0,4.514,4.5899,4.5832,4.5809,4.5796,4.5648,4.5603,4.5468,4.3778,4.3104,4.2912,4.1162,4.0489,4.0489,4.0489,4.0489,4.0489,4.0489,4.0489,4.0489,4.0489,4.0489,4.0489,4.0489,4.0489,4.0489,4.0489,4.0489,4.0489,4.0489,4.0489,4.0489,4.0489,4.0489,4.0422,4.0158,3.984,3.9486,3.916,3.9125,3.9008,3.8732,0.0,0.0,0.0,0.0,0.0,0.0,3.8707,3.8707,3.8707,0.0,0.0,0.0,0.0,0.0,0.0,0.0,0.0,3.8707,3.8707,0.0,3.8707,3.8707,3.8707,3.8707,3.8707,3.8707,3.8676,3.7667,3.6921,3.6374,3.581,3.5622,3.5622,3.5622,3.5622,3.5622,3.5622,3.5622,3.5622,3.5622,3.5622,3.5622,4.0992,4.1077,4.1149,4.1149,4.1386,4.1777,4.2324,4.2871,4.3652,4.4844,4.5234,4.5644,4.623,4.6308,4.6308,0.0,4.6308,4.6308,0.0,4.6308,4.6308,4.6308,4.6308,4.6308,4.6308,4.6308,4.6268,4.615,0.0,0.0,0.0,4.5472,4.558,4.5832,4.5718,4.5665,4.5648,4.562,4.5259,4.4624,4.3547,4.2739,4.2085,4.0931,4.0489,4.0489,4.0489,4.0489,4.0489,4.0489,4.0489,4.0489,4.0489,4.0489,4.0489,4.0489,4.0489,4.0489,4.0489,4.0489,4.0489,4.0489,4.0489,4.0489,4.0489,4.0356,4.0195,4.012,3.9645,3.9231,3.9125,3.8961,3.8803,3.8719,3.8707,0.0,0.0,0.0,0.0,0.0,0.0,3.8707,0.0,3.8707,0.0,0.0,0.0,0.0,0.0,0.0,0.0,0.0,3.8707,0.0,3.8707,3.8707,3.8707,3.8707,3.8332,3.7808,3.7135,3.7173,3.6724,3.5871,3.565,3.5622,3.5622,3.5622,3.5622,3.5622,3.5622,3.5622,3.5622,3.5622,3.5622,3.5622,4.1077,4.1149,4.1191,4.1191,4.1191,4.1367,4.1875,4.2207,4.2793,4.3887,4.459,4.5215,4.5742,4.6094,0.0,4.6308,4.6308,4.6308,4.6308,4.6308,4.6308,4.6308,4.6308,4.6289,4.6225,0.0,0.0,4.6014,4.6001,4.5946,4.5861,4.5764,4.5718,4.5723,4.5635,4.5586,4.5566,4.524,4.4797,4.4201,4.3066,4.2297,4.17,4.0835,4.0489,4.0489,4.0489,4.0489,4.0489,4.0489,4.0489,4.0489,4.0489,4.0489,4.0489,4.0489,4.0489,4.0489,4.0489,4.0489,4.0489,4.0489,4.0489,4.0473,4.0372,4.0023,3.9712,3.9712,3.9308,3.8961,3.8961,3.8815,3.8707,3.8707,3.8707,3.8707,3.8707,0.0,0.0,0.0,0.0,0.0,0.0,3.8707,3.8707,0.0,0.0,0.0,0.0,0.0,0.0,3.8707,3.8707,0.0,3.8707,3.8707,3.8707,3.8707,3.815,3.756,3.6964,3.6904,3.6522,3.5898,3.5711,3.5622,3.5622,3.5622,3.5622,3.5622,3.5622,3.5622,3.5622,3.5622,3.5622,3.5622,4.1191,4.1191,0.0,0.0,4.1191,0.0,4.1191,4.1836,4.2344,4.2383,4.3808,4.4863,4.498,4.5723,4.623,4.6289,0.0,0.0,0.0,4.6308,4.6308,4.6289,4.6289,4.6223,4.6084,4.6084,4.6027,4.589,4.582,4.5783,4.5783,4.5648,4.5586,4.5586,4.5586,4.5566,4.5451,4.4643,4.422,4.3989,4.2431,4.1758,4.1623,4.0796,4.0489,4.0489,4.0489,4.0489,4.0489,4.0489,4.0489,4.0489,4.0489,4.0489,4.0489,4.0489,4.0489,4.0489,4.0489,4.0489,4.0489,4.0489,4.0489,4.0425,4.0158,3.9576,3.9099,3.9099,3.8884,3.8707,3.8707,3.8707,3.8707,3.8707,3.8707,3.8707,3.8707,0.0,0.0,0.0,0.0,0.0,0.0,3.8707,3.8707,0.0,0.0,0.0,0.0,0.0,3.8707,3.8707,3.8707,3.8707,3.8707,3.8707,3.8676,3.8627,3.815,3.7859,3.7755,3.6825,3.6374,3.6308,3.5827,3.5622,3.5622,3.5622,3.5622,3.5622,3.5622,3.5622,3.5622,3.5622,3.5622,3.5622,0.0,0.0,4.1191,4.1191,4.1191,4.1191,4.1191,4.1367,4.1699,4.2324,4.2754,4.3516,4.4844,4.5176,4.5586,4.623,4.6308,4.6308,4.6308,4.6308,4.6247,4.6147,4.6147,4.6084,4.594,4.5959,4.59,4.582,4.5723,4.5651,4.5651,4.562,4.5586,4.5586,4.5586,4.522,4.4586,4.4393,4.3566,4.2354,4.197,4.1393,4.0777,4.0566,4.0489,4.0489,4.0489,4.0489,4.0489,4.0489,4.0489,4.0489,4.0489,4.0489,4.0489,4.0489,4.0489,4.0489,4.0489,4.0489,4.0489,4.0489,4.0356,4.0177,4.012,3.9576,3.9099,3.9099,3.8884,3.8707,3.8707,3.8707,3.8707,3.8707,3.8707,3.8707,3.8707,3.8707,0.0,0.0,3.8707,3.8707,3.8707,3.8707,3.8707,0.0,0.0,0.0,0.0,3.8707,3.8707,3.8707,3.8707,3.8707,3.8707,3.8707,3.8496,3.8099,3.7946,3.7488,3.6764,3.6498,3.6182,3.5783,3.5667,3.5622,3.5622,3.5622,3.5622,3.5622,3.5622,3.5622,3.5622,3.5622,3.5622,3.5622,4.1191,4.1191,4.1191,4.1191,4.1191,4.1191,4.1191,4.1191,4.1367,4.1797,4.2168,4.2753,4.3665,4.4444,4.5082,4.5535,4.5961,4.6202,4.6202,4.6147,4.6084,4.6001,4.6001,4.5959,4.585,4.585,4.582,4.5708,4.5635,4.5586,4.5586,4.5586,4.5374,4.5009,4.5009,4.4528,4.372,4.3335,4.2624,4.1777,4.1373,4.0912,4.0489,4.0489,4.0489,4.0489,4.0489,4.0489,4.0489,4.0489,4.0489,4.0489,4.0489,4.0489,4.0489,4.0489,4.0489,4.0489,4.0489,4.0489,4.0489,4.0489,4.0304,4.0061,3.9901,3.9462,3.9063,3.8933,3.8803,3.8707,3.8707,3.8707,3.8707,3.8707,3.8707,3.8707,3.8707,3.8707,0.0,3.8707,3.8707,3.8707,3.8707,3.8707,3.8707,3.8707,3.8707,0.0,3.8707,3.8707,3.8707,3.8707,3.8465,3.8332,3.8332,3.8117,3.7861,3.7578,3.7342,3.6943,3.6374,3.6139,3.5854,3.5622,3.5622,3.5622,3.5622,3.5622,3.5622,3.5622,3.5622,3.5622,3.5622,3.5622,3.5622,3.5622,4.1191,4.1191,4.1191,4.1191,4.1191,4.1191,4.1191,4.1191,4.1191,4.1171,4.1757,4.2201,4.226,4.3539,4.4473,4.467,4.5404,4.5928,4.6055,4.5947,4.589,4.5891,4.5872,4.585,4.5769,4.5775,4.5723,4.5586,4.5586,4.5528,4.5393,4.5393,4.4932,4.4124,4.4124,4.3662,4.2854,4.2104,4.172,4.1546,4.0796,4.0489,4.0489,4.0489,4.0489,4.0489,4.0489,4.0489,4.0489,4.0489,4.0489,4.0489,4.0489,4.0489,4.0489,4.0489,4.0489,4.0489,4.0489,4.0489,4.0489,4.0457,4.0232,3.9922,3.9599,3.9282,3.899,3.875,3.8707,3.8707,3.8707,3.8707,3.8707,3.8707,3.8707,3.8707,3.8707,0.0,3.8707,3.8707,3.8707,3.8707,3.8707,3.8707,3.8707,3.8707,3.8707,3.8707,3.8707,3.8707,3.8707,3.8707,3.8267,3.798,3.7893,3.7506,3.721,3.7058,3.662,3.6333,3.6249,3.5827,3.5622,3.5622,3.5622,3.5622,3.5622,3.5622,3.5622,3.5622,3.5622,3.5622,3.5622,3.5622,3.5622,3.5622,4.1191,4.1191,4.1191,4.1191,4.1191,4.1191,4.1191,4.1191,4.1151,4.1052,4.1143,4.1456,4.2064,4.2369,4.3101,4.4565,4.4734,4.5084,4.5885,4.5907,4.5872,4.5828,4.5815,4.5756,4.5635,4.5618,4.562,4.5586,4.5586,4.522,4.4489,4.4489,4.4066,4.3297,4.3297,4.2816,4.1989,4.1873,4.1373,4.0681,4.0546,4.0489,4.0489,4.0489,4.0489,4.0489,4.0489,4.0489,4.0489,4.0489,4.0489,4.0489,4.0489,4.0489,4.0489,4.0489,4.0489,4.0489,4.0489,4.0489,4.0457,4.0213,3.9922,3.9599,3.9238,3.8961,3.8732,3.8707,3.8707,3.8707,3.8707,3.8707,3.8707,3.8707,3.8707,3.8707,3.8707,0.0,3.8707,3.8707,3.8707,3.8707,3.8707,3.8707,3.8707,3.8707,3.8707,3.8707,3.8707,3.8707,3.8707,3.8707,3.8627,3.835,3.7893,3.7825,3.7342,3.6539,3.6416,3.6182,3.5739,3.5667,3.5622,3.5622,3.5622,3.5622,3.5622,3.5622,3.5622,3.5622,3.5622,3.5622,3.5622,3.5622,3.5622,3.5622,4.1191,4.1191,4.1191,4.1191,4.1191,4.1171,4.1103,4.1082,4.103,4.0914,4.0883,4.1006,4.1306,4.1752,4.2352,4.3066,4.3496,4.3926,4.437,4.5241,4.5722,4.5692,4.5692,4.5665,4.5603,4.5586,4.5355,4.4893,4.4893,4.447,4.3643,4.3643,4.3201,4.2412,4.2412,4.1912,4.1104,4.1104,4.0873,4.0489,4.0489,4.0489,4.0489,4.0489,4.0489,4.0489,4.0489,4.0489,4.0489,4.0489,4.0489,4.0489,4.0489,4.0489,4.0489,4.0489,4.0489,4.0473,4.0321,4.0267,4.0213,3.9922,3.9712,3.951,3.9178,3.898,3.8884,3.8719,3.8707,3.8707,3.8707,3.8707,3.8707,3.8707,3.8707,0.0,0.0,3.8707,3.8707,3.8707,3.8707,3.8707,3.8707,3.8707,3.8707,3.8707,3.8707,3.8707,3.8707,3.8707,3.8707,3.8707,3.8415,3.8032,3.7542,3.7506,3.7135,3.6374,3.6374,3.6139,3.5622,3.5622,3.5622,3.5622,3.5622,3.5622,3.5622,3.5622,3.5622,3.5622,3.5622,3.5622,3.5622,3.5622,3.5622,3.5622,4.1191,4.1191,4.1191,4.1151,4.115,4.1105,4.0964,4.0955,4.0908,4.0796,4.0779,4.0752,4.0667,4.1242,4.1691,4.1793,4.2412,4.2874,4.3085,4.4297,4.5086,4.5278,4.5297,4.5201,4.5009,4.5009,4.4682,4.4028,4.4028,4.3605,4.2797,4.2797,4.2335,4.1508,4.1508,4.1123,4.0489,4.0489,4.0489,4.0489,4.0489,4.0489,4.0489,4.0489,4.0489,4.0489,4.0489,4.0489,4.0489,4.0489,4.0489,4.0489,4.0489,4.0489,4.0489,4.0489,4.0457,4.0356,4.0062,3.9982,3.9901,3.9576,3.9462,3.9408,3.909,3.9027,3.8961,3.8732,3.8707,3.8707,3.8707,3.8707,3.8707,3.8707,0.0,0.0,0.0,3.8707,3.8707,3.8707,3.8707,3.8707,3.8707,3.8707,3.8707,3.8707,3.8707,3.8707,3.8707,3.8707,3.8707,3.8707,3.83,3.7843,3.736,3.736,3.7097,3.6563,3.6457,3.6182,3.5783,3.5667,3.5622,3.5622,3.5622,3.5622,3.5622,3.5622,3.5622,3.5622,3.5622,3.5622,3.5622,3.5622,3.5622,3.5622,4.1191,4.1191,4.1151,4.1049,4.1,4.0964,4.0843,4.0809,4.0788,4.0718,4.0715,4.0655,4.0534,4.0577,4.0927,4.1739,4.1873,4.2239,4.3047,4.322,4.3624,4.4355,4.4393,4.4047,4.3297,4.3278,4.3258,4.3181,4.3181,4.2739,4.1912,4.1912,4.1431,4.0585,4.0585,4.0546,4.0489,4.0489,4.0489,4.0489,4.0489,4.0489,4.0489,4.0489,4.0489,4.0489,4.0489,4.0489,4.0489,4.0489,4.0489,4.0489,4.0489,4.0489,4.0489,4.0489,4.0321,4.0062,3.9731,3.9645,3.9552,3.9212,3.9152,3.9063,3.8773,3.8719,3.8719,3.8707,3.8707,3.8707,3.8707,3.8707,3.8707,3.8707,0.0,0.0,3.8707,3.8707,3.8707,3.8707,3.8707,3.8707,3.8707,3.8707,3.8707,3.8707,3.8707,3.8707,3.8707,3.8707,3.8707,3.8707,3.8658,3.8382,3.7859,3.7859,3.7614,3.7152,3.6661,3.6374,3.6333,3.5827,3.5622,3.5622,3.5622,3.5622,3.5622,3.5622,3.5622,3.5622,3.5622,3.5622,3.5622,3.5622,3.5622,3.5622,4.1082,4.108,4.1026,4.0908,4.087,4.0843,4.0742,4.0742,4.0688,4.0582,4.0588,4.0559,4.0504,4.0489,4.0623,4.095,4.0989,4.1123,4.147,4.1989,4.2681,4.3528,4.3566,4.3412,4.3104,4.3104,4.2835,4.2297,4.2297,4.1854,4.0989,4.0989,4.0816,4.0489,4.0489,4.0489,4.0489,4.0489,4.0489,4.0489,4.0489,4.0489,4.0489,4.0489,4.0489,4.0489,4.0489,4.0489,4.0489,4.0489,4.0489,4.0489,4.0489,4.0489,4.0422,4.0043,3.9716,3.9408,3.9127,3.9144,3.9231,3.8923,3.8855,3.8815,3.8719,3.8707,3.8707,3.8707,3.8707,3.8707,3.8707,3.8707,3.8707,3.8707,0.0,3.8707,3.8707,3.8707,3.8707,3.8707,3.8707,3.8707,3.8707,3.8707,3.8707,3.8707,3.8707,3.8707,3.8707,3.8707,3.8707,3.8707,3.8707,3.8596,3.8382,3.8382,3.7998,3.719,3.6981,3.6563,3.5898,3.5694,3.5622,3.5622,3.5622,3.5622,3.5622,3.5622,3.5622,3.5622,3.5622,3.5622,3.5622,3.5622,3.5622,3.5622,4.0959,4.095,4.0902,4.0788,4.0761,4.0742,4.0655,4.0649,4.0596,4.0519,4.0489,4.0489,4.0489,4.0489,4.0489,4.0489,4.0489,4.0489,4.0489,4.1066,4.1777,4.2643,4.2701,4.2566,4.2297,4.2277,4.1989,4.1393,4.1393,4.1085,4.0489,4.0489,4.0489,4.0489,4.0489,4.0489,4.0489,4.0489,4.0489,4.0489,4.0489,4.0489,4.0489,4.0489,4.0489,4.0489,4.0489,4.0489,4.0489,4.0489,4.0489,4.0489,4.0389,4.0302,4.012,3.9603,3.9264,3.9036,3.8792,3.8844,3.8933,3.875,3.8707,3.8707,3.8707,3.8707,3.8707,3.8707,3.8707,3.8707,3.8707,3.8707,3.8707,3.8707,3.8707,3.8707,3.8707,3.8707,3.8707,3.8707,3.8707,3.8707,3.8707,3.8707,3.8707,3.8707,3.8707,3.8707,3.8707,3.8707,3.8707,3.8707,3.8707,3.8707,3.8707,3.8707,3.8285,3.7433,3.7248,3.6724,3.5871,3.5667,3.5622,3.5622,3.5622,3.5622,3.5622,3.5622,3.5622,3.5622,3.5622,3.5622,3.5622,3.5622,3.5622,3.5622,4.0836,4.0801,4.0779,4.0726,4.0711,4.0662,4.0539,4.0508,4.0508,4.0508,4.0489,4.0489,4.0489,4.0489,4.0489,4.0489,4.0489,4.0489,4.0489,4.0489,4.0893,4.1758,4.1797,4.1393,4.0508,4.0489,4.0489,4.0489,4.0489,4.0489,4.0489,4.0489,4.0489,4.0489,4.0489,4.0489,4.0489,4.0489,4.0489,4.0489,4.0489,4.0489,4.0489,4.0489,4.0489,4.0489,4.0489,4.0489,4.0489,4.0489,4.0489,4.0457,4.0177,3.988,3.9529,3.9205,3.9099,3.9036,3.8792,3.8707,3.8707,3.8707,3.8707,3.8707,3.8707,3.8707,3.8707,3.8707,3.8707,3.8707,3.8707,3.8707,3.8707,3.8707,3.8707,3.8707,3.8707,3.8707,3.8707,3.8707,3.8707,3.8707,3.8707,3.8707,3.8707,3.8707,3.8707,3.8707,3.8707,3.8707,3.8707,3.8707,3.8707,3.8707,3.8707,3.8707,3.8415,3.7911,3.7433,3.6921,3.6392,3.5854,3.5622,3.5622,3.5622,3.5622,3.5622,3.5622,3.5622,3.5622,3.5622,3.5622,3.5622,3.5622,3.5622,3.5622,4.0752,4.0731,4.0889,4.1398,4.147,4.1647,4.2236,4.1816,4.1412,4.1412,4.0873,4.0489,4.0489,4.0489,4.0489,4.0489,4.0489,4.0489,4.0489,4.0489,4.0623,4.0873,4.0893,4.0758,4.0508,4.0489,4.0489,4.0489,4.0489,4.0489,4.0489,4.0489,4.0489,4.0489,4.0489,4.0489,4.0489,4.0489,4.0489,4.0489,4.0489,4.0489,4.0489,4.0489,4.0489,4.0489,4.0489,4.0489,4.0489,4.0489,4.0372,4.0157,3.984,3.9529,3.9212,3.9125,3.8961,3.8803,3.8719,3.8707,3.8707,3.8707,3.8707,3.8707,3.8707,3.8707,3.8707,3.8707,3.8707,3.8707,3.8707,3.8707,3.8707,3.8707,3.8707,3.8707,3.8707,3.8707,3.8707,3.8707,3.8707,3.8707,3.8707,3.8707,3.8707,3.8707,3.8707,3.8707,3.8707,3.8707,3.8707,3.8707,3.8707,3.8707,3.8707,3.835,3.7877,3.7396,3.6882,3.6374,3.581,3.565,3.5622,3.5622,3.5622,3.5622,3.5622,3.5622,3.5622,3.5622,3.5622,3.5622,3.5622,3.5622,3.5622,3.5622,4.0642,4.0913,4.1277,4.1716,4.2085,4.2489,4.3028,4.2643,4.2316,4.2316,4.1566,4.1008,4.1008,4.07,4.0489,4.0489,4.0489,4.0489,4.0489,4.0489,4.0489,4.0489,4.0489,4.0489,4.0489,4.0489,4.0489,4.0489,4.0489,4.0489,4.0489,4.0489,4.0489,4.0489,4.0489,4.0489,4.0489,4.0489,4.0489,4.0489,4.0489,4.0489,4.0489,4.0489,4.0489,4.0489,4.0489,4.0489,4.0489,4.0372,4.0062,3.9668,3.9481,3.9197,3.8933,3.8933,3.8815,3.8707,3.8707,3.8707,3.8707,3.8707,3.8707,3.8707,3.8707,3.8707,3.8707,3.8707,3.8707,3.8707,3.8707,3.8707,3.8707,3.8707,3.8707,3.8707,3.8707,3.8707,3.8707,3.8707,3.8707,3.8707,3.8707,3.8707,3.8707,3.8707,3.8707,3.8707,3.8707,3.8707,3.8707,3.8707,3.8496,3.8382,3.8382,3.7649,3.7268,3.7173,3.6661,3.6139,3.5622,3.5622,3.5622,3.5622,3.5622,3.5622,3.5622,3.5622,3.5622,3.5622,3.5622,3.5622,3.5622,3.5622,3.5622,3.5622,4.0631,4.1258,4.1854,4.2008,4.2681,4.3239,4.3316,4.3258,4.3201,4.3201,4.245,4.1893,4.1816,4.1085,4.0566,4.0508,4.0489,4.0489,4.0489,4.0489,4.0489,4.0489,4.0489,4.0489,4.0489,4.0489,4.0489,4.0489,4.0489,4.0489,4.0489,4.0489,4.0489,4.0489,4.0489,4.0489,4.0489,4.0489,4.0489,4.0489,4.0489,4.0489,4.0489,4.0489,4.0489,4.0473,4.0473,4.0438,4.0389,4.0101,3.9599,3.9099,3.9072,3.8913,3.8707,3.8707,3.8707,3.8707,3.8707,3.8707,3.8707,3.8707,3.8707,3.8707,3.8707,3.8707,3.8707,3.8707,3.8707,3.8707,3.8707,3.8707,3.8707,3.8707,3.8707,3.8707,3.8707,3.8707,3.8707,3.8707,3.8707,3.8707,3.8707,3.8707,3.8707,3.8707,3.8707,3.8707,3.8707,3.8707,3.8676,3.8627,3.8132,3.7859,3.7825,3.6865,3.6661,3.7114,3.6563,3.6054,3.5622,3.5622,3.5622,3.5622,3.5622,3.5622,3.5622,3.5622,3.5622,3.5622,3.5622,3.5622,3.5622,3.5622,3.5622,3.5622,4.1373,4.1681,4.222,4.3528,4.3912,4.4259,4.4951,4.447,4.4047,4.4047,4.3335,4.2566,4.1873,4.1643,4.1239,4.0546,4.0489,4.0489,4.0489,4.0489,4.0489,4.0489,4.0489,4.0489,4.0489,4.0489,4.0489,4.0489,4.0489,4.0489,4.0489,4.0489,4.0489,4.0489,4.0489,4.0489,4.0489,4.0489,4.0489,4.0489,4.0489,4.0489,4.0489,4.0489,4.0372,4.0177,4.0177,4.0023,3.9757,3.9414,3.9212,3.9044,3.8855,3.875,3.8707,3.8707,3.8707,3.8707,3.8707,3.8707,3.8707,3.8707,3.8707,3.8707,3.8707,3.8707,3.8707,3.8707,3.8707,3.8707,3.8707,3.8707,3.8707,3.8707,3.8707,3.8707,3.8707,3.8707,3.8707,3.8707,3.8707,3.8707,3.8707,3.8707,3.8707,3.8707,3.8707,3.8707,3.8707,3.8707,3.8515,3.8099,3.7946,3.772,3.736,3.6724,3.6457,3.658,3.6011,3.5694,3.5622,3.5622,3.5622,3.5622,3.5622,3.5622,3.5622,3.5622,3.5622,3.5622,3.5622,3.5622,3.5622,3.5622,3.5622,3.5622,4.1643,4.2143,4.2816,4.4085,4.4643,4.5066,4.5528,4.5201,4.4913,4.4913,4.4182,4.3508,4.3047,4.2643,4.2066,4.12,4.0739,4.0489,4.0489,4.0489,4.0489,4.0489,4.0489,4.0489,4.0489,4.0489,4.0489,4.0489,4.0489,4.0489,4.0489,4.0489,4.0489,4.0489,4.0489,4.0489,4.0489,4.0489,4.0489,4.0489,4.0356,4.0389,4.0489,4.0356,4.0213,4.0101,4.0101,3.9775,3.9339,3.9178,3.9008,3.8865,3.8732,3.8707,3.8707,3.8707,3.8707,3.8707,3.8707,3.8707,3.8707,3.8707,3.8707,3.8707,3.8707,3.8707,3.8707,3.8707,3.8707,3.8707,3.8707,3.8707,3.8707,3.8707,3.8707,3.8707,3.8707,3.8707,3.8707,3.8707,3.8707,3.8707,3.8707,3.8707,3.8707,3.8707,3.8707,3.8707,3.8707,3.8465,3.8183,3.7893,3.7415,3.7058,3.6803,3.6291,3.6028,3.6011,3.5739,3.5622,3.5622,3.5622,3.5622,3.5622,3.5622,3.5622,3.5622,3.5622,3.5622,3.5622,3.5622,3.5622,3.5622,3.5622,3.5622,3.5622,4.1854,4.272,4.3566,4.4374,4.5124,4.5586,4.5586,4.5586,4.5586,4.5586,4.497,4.447,4.4316,4.3585,4.2816,4.2085,4.1219,4.0719,4.0719,4.0566,4.0489,4.0489,4.0489,4.0489,4.0489,4.0489,4.0489,4.0489,4.0489,4.0489,4.0489,4.0489,4.0489,4.0489,4.0489,4.0489,4.0489,4.0489,4.0473,4.0406,4.0177,4.0195,4.0319,4.0101,3.9982,3.9922,3.9922,3.9529,3.9036,3.9036,3.8865,3.8707,3.8707,3.8707,3.8707,3.8707,3.8707,3.8707,3.8707,3.8707,3.8707,3.8707,3.8707,3.8707,3.8707,3.8707,3.8707,3.8707,3.8707,3.8707,3.8707,3.8707,3.8707,3.8707,3.8707,3.8707,3.8707,3.8707,3.8707,3.8707,3.8707,3.8707,3.8707,3.8707,3.8707,3.8707,3.8707,3.8707,3.8707,3.8183,3.7859,3.779,3.6865,3.635,3.6249,3.581,3.5622,3.5622,3.5622,3.5622,3.5622,3.5622,3.5622,3.5622,3.5622,3.5622,3.5622,3.5622,3.5622,3.5622,3.5622,3.5622,3.5622,3.5622,3.5622,3.5622,4.2758,4.3585,4.4412,4.5259,4.5509,4.5586,4.5586,4.5586,4.5586,4.5586,4.549,4.5143,4.4374,4.3585,4.3047,4.2931,4.2124,4.1623,4.1623,4.0912,4.0489,4.0489,4.0489,4.0489,4.0489,4.0489,4.0489,4.0489,4.0489,4.0489,4.0489,4.0489,4.0489,4.0489,4.0489,4.0489,4.0489,4.0489,4.0372,4.0158,4.012,3.9943,3.9712,3.9668,3.9505,3.9257,3.9257,3.9045,3.8762,3.8762,3.8719,3.8707,3.8707,3.8707,3.8707,3.8707,3.8707,3.8707,3.8707,3.8707,3.8707,3.8707,3.8707,3.8707,3.8707,3.8707,3.8707,3.8707,3.8707,3.8707,3.8707,3.8707,3.8707,3.8707,3.8707,3.8707,3.8707,3.8707,3.8707,3.8707,3.8707,3.8707,3.8707,3.8707,3.8707,3.8707,3.8707,3.8707,3.8707,3.8183,3.772,3.7323,3.6724,3.6182,3.5694,3.5622,3.5622,3.5622,3.5622,3.5622,3.5622,3.5622,3.5622,3.5622,3.5622,3.5622,3.5622,3.5622,3.5622,3.5622,3.5622,3.5622,3.5622,3.5622,3.5622,3.5622,4.2931,4.3739,4.4566,4.5451,4.5586,4.5586,4.5586,4.5586,4.5586,4.5586,4.5586,4.5451,4.5066,4.4259,4.3778,4.3778,4.3008,4.2527,4.2527,4.172,4.1239,4.1239,4.0758,4.0489,4.0489,4.0489,4.0489,4.0489,4.0489,4.0489,4.0489,4.0489,4.0489,4.0489,4.0489,4.0489,4.0489,4.0489,4.0422,4.0321,4.0158,4.0101,4.0101,3.9943,3.9797,3.9599,3.9238,3.8923,3.8707,3.8707,3.8707,3.8707,3.8707,3.8707,3.8707,3.8707,3.8707,3.8707,3.8707,3.8707,3.8707,3.8707,3.8707,3.8707,3.8707,3.8707,3.8707,3.8707,3.8707,3.8707,3.8707,3.8707,3.8707,3.8707,3.8707,3.8707,3.8707,3.8707,3.8707,3.8707,3.8707,3.8707,3.8707,3.8707,3.8707,3.8707,3.8707,3.8707,3.8707,3.8183,3.779,3.7614,3.6825,3.6308,3.6054,3.5739,3.5622,3.5622,3.5622,3.5622,3.5622,3.5622,3.5622,3.5622,3.5622,3.5622,3.5622,3.5622,3.5622,3.5622,3.5622,3.5622,3.5622,3.5622,3.5622,3.5622]}]]